<?xml version="1.0" encoding="UTF-8"?>
<gpx version="1.1" creator="https://www.www-youtrack-es.amenigma.com" xsi:schemaLocation="http://www.topografix.com/GPX/1/1 http://www.topografix.com/GPX/1/1/gpx.xsd http://www.garmin.com/xmlschemas/GpxExtensions/v3 http://www.garmin.com/xmlschemas/GpxExtensionsv3.xsd http://www.garmin.com/xmlschemas/TrackPointExtension/v1 http://www.garmin.com/xmlschemas/TrackPointExtensionv1.xsd" xmlns:gpxtpx="http://www.garmin.com/xmlschemas/TrackPointExtension/v1" xmlns:gpxx="http://www.garmin.com/xmlschemas/GpxExtensions/v3" xmlns:xsi="http://www.w3.org/2001/XMLSchema-instance">
  <metadata>
    <link href="https://www.www-youtrack-es.amenigma.com">
      <text>YouTrack.es</text>
    </link>
    <time>2026-08-31T22:08:29Z</time>
  </metadata>
  <trk>
    <src>https://www.www-youtrack-es.amenigma.com</src>
    <link href="https://www.www-youtrack-es.amenigma.com/ruta/1657-mirador-2018">
      <text>YouTrack.es</text>
    </link>
    <trkseg>
      <trkpt lat="40.7044853456318378448486328125" lon="-4.97760518454015254974365234375">
        <ele>1218.800048828125</ele>
        <time>2018-08-12T07:08:43.000Z</time>
      </trkpt>
      <trkpt lat="40.70448542945086956024169921875" lon="-4.97760568745434284210205078125">
        <ele>1218.5999755859375</ele>
        <time>2018-08-12T07:08:44.000Z</time>
      </trkpt>
      <trkpt lat="40.70446548052132129669189453125" lon="-4.977589510381221771240234375">
        <ele>1218.800048828125</ele>
        <time>2018-08-12T07:09:06.000Z</time>
      </trkpt>
      <trkpt lat="40.70425760932266712188720703125" lon="-4.97751139104366302490234375">
        <ele>1219</ele>
        <time>2018-08-12T07:09:18.000Z</time>
      </trkpt>
      <trkpt lat="40.70411704480648040771484375" lon="-4.97741290368139743804931640625">
        <ele>1219.4000244140625</ele>
        <time>2018-08-12T07:09:28.000Z</time>
      </trkpt>
      <trkpt lat="40.70396088995039463043212890625" lon="-4.97729723341763019561767578125">
        <ele>1220.199951171875</ele>
        <time>2018-08-12T07:09:38.000Z</time>
      </trkpt>
      <trkpt lat="40.7039485685527324676513671875" lon="-4.9772849120199680328369140625">
        <ele>1220.4000244140625</ele>
        <time>2018-08-12T07:09:39.000Z</time>
      </trkpt>
      <trkpt lat="40.7036337442696094512939453125" lon="-4.97713856399059295654296875">
        <ele>1221.800048828125</ele>
        <time>2018-08-12T07:09:51.000Z</time>
      </trkpt>
      <trkpt lat="40.70336326025426387786865234375" lon="-4.97713009826838970184326171875">
        <ele>1223.5999755859375</ele>
        <time>2018-08-12T07:10:04.000Z</time>
      </trkpt>
      <trkpt lat="40.7032049261033535003662109375" lon="-4.9772161804139614105224609375">
        <ele>1225.800048828125</ele>
        <time>2018-08-12T07:10:13.000Z</time>
      </trkpt>
      <trkpt lat="40.70298389531672000885009765625" lon="-4.977387674152851104736328125">
        <ele>1227.800048828125</ele>
        <time>2018-08-12T07:10:23.000Z</time>
      </trkpt>
      <trkpt lat="40.7028155028820037841796875" lon="-4.97751650400459766387939453125">
        <ele>1228.800048828125</ele>
        <time>2018-08-12T07:10:32.000Z</time>
      </trkpt>
      <trkpt lat="40.70263604633510112762451171875" lon="-4.97736831195652484893798828125">
        <ele>1229.800048828125</ele>
        <time>2018-08-12T07:10:43.000Z</time>
      </trkpt>
      <trkpt lat="40.70242214016616344451904296875" lon="-4.97714929282665252685546875">
        <ele>1231.199951171875</ele>
        <time>2018-08-12T07:10:55.000Z</time>
      </trkpt>
      <trkpt lat="40.70210396312177181243896484375" lon="-4.97683639638125896453857421875">
        <ele>1233.5999755859375</ele>
        <time>2018-08-12T07:11:12.000Z</time>
      </trkpt>
      <trkpt lat="40.70194873027503490447998046875" lon="-4.97658359818160533905029296875">
        <ele>1235</ele>
        <time>2018-08-12T07:11:23.000Z</time>
      </trkpt>
      <trkpt lat="40.701698698103427886962890625" lon="-4.97645770199596881866455078125">
        <ele>1237.5999755859375</ele>
        <time>2018-08-12T07:11:35.000Z</time>
      </trkpt>
      <trkpt lat="40.701502226293087005615234375" lon="-4.97644831426441669464111328125">
        <ele>1239</ele>
        <time>2018-08-12T07:11:48.000Z</time>
      </trkpt>
      <trkpt lat="40.70148177444934844970703125" lon="-4.9764426983892917633056640625">
        <ele>1239.199951171875</ele>
        <time>2018-08-12T07:11:50.000Z</time>
      </trkpt>
      <trkpt lat="40.7014225982129573822021484375" lon="-4.9763414449989795684814453125">
        <ele>1240</ele>
        <time>2018-08-12T07:11:57.000Z</time>
      </trkpt>
      <trkpt lat="40.7013293914496898651123046875" lon="-4.976100213825702667236328125">
        <ele>1241.5999755859375</ele>
        <time>2018-08-12T07:12:11.000Z</time>
      </trkpt>
      <trkpt lat="40.7012946903705596923828125" lon="-4.97595034539699554443359375">
        <ele>1242.199951171875</ele>
        <time>2018-08-12T07:12:21.000Z</time>
      </trkpt>
      <trkpt lat="40.7012908346951007843017578125" lon="-4.97593224048614501953125">
        <ele>1242.4000244140625</ele>
        <time>2018-08-12T07:12:22.000Z</time>
      </trkpt>
      <trkpt lat="40.70124699734151363372802734375" lon="-4.9758281372487545013427734375">
        <ele>1243</ele>
        <time>2018-08-12T07:12:32.000Z</time>
      </trkpt>
      <trkpt lat="40.70120374672114849090576171875" lon="-4.97573736123740673065185546875">
        <ele>1243.199951171875</ele>
        <time>2018-08-12T07:12:39.000Z</time>
      </trkpt>
      <trkpt lat="40.701196454465389251708984375" lon="-4.97568187303841114044189453125">
        <ele>1243.5999755859375</ele>
        <time>2018-08-12T07:12:51.000Z</time>
      </trkpt>
      <trkpt lat="40.70120357908308506011962890625" lon="-4.97567734681069850921630859375">
        <ele>1243.5999755859375</ele>
        <time>2018-08-12T07:13:13.000Z</time>
      </trkpt>
      <trkpt lat="40.7011882402002811431884765625" lon="-4.975579865276813507080078125">
        <ele>1243.5999755859375</ele>
        <time>2018-08-12T07:13:26.000Z</time>
      </trkpt>
      <trkpt lat="40.70119787938892841339111328125" lon="-4.97541415505111217498779296875">
        <ele>1243.800048828125</ele>
        <time>2018-08-12T07:13:33.000Z</time>
      </trkpt>
      <trkpt lat="40.70116795599460601806640625" lon="-4.97518029995262622833251953125">
        <ele>1244.4000244140625</ele>
        <time>2018-08-12T07:13:41.000Z</time>
      </trkpt>
      <trkpt lat="40.7011543773114681243896484375" lon="-4.9751181900501251220703125">
        <ele>1245.199951171875</ele>
        <time>2018-08-12T07:13:44.000Z</time>
      </trkpt>
      <trkpt lat="40.701097883284091949462890625" lon="-4.97503093443810939788818359375">
        <ele>1246.199951171875</ele>
        <time>2018-08-12T07:13:49.000Z</time>
      </trkpt>
      <trkpt lat="40.70101230405271053314208984375" lon="-4.9748928844928741455078125">
        <ele>1247.4000244140625</ele>
        <time>2018-08-12T07:13:57.000Z</time>
      </trkpt>
      <trkpt lat="40.70102102123200893402099609375" lon="-4.9747995100915431976318359375">
        <ele>1248.4000244140625</ele>
        <time>2018-08-12T07:14:00.000Z</time>
      </trkpt>
      <trkpt lat="40.70095748640596866607666015625" lon="-4.97447068803012371063232421875">
        <ele>1249.4000244140625</ele>
        <time>2018-08-12T07:14:12.000Z</time>
      </trkpt>
      <trkpt lat="40.70088355801999568939208984375" lon="-4.9741638265550136566162109375">
        <ele>1251</ele>
        <time>2018-08-12T07:14:25.000Z</time>
      </trkpt>
      <trkpt lat="40.7006910257041454315185546875" lon="-4.9738939292728900909423828125">
        <ele>1252.4000244140625</ele>
        <time>2018-08-12T07:14:36.000Z</time>
      </trkpt>
      <trkpt lat="40.7005317695438861846923828125" lon="-4.97361137531697750091552734375">
        <ele>1253.800048828125</ele>
        <time>2018-08-12T07:14:45.000Z</time>
      </trkpt>
      <trkpt lat="40.70032297633588314056396484375" lon="-4.97316847555339336395263671875">
        <ele>1253.4000244140625</ele>
        <time>2018-08-12T07:14:57.000Z</time>
      </trkpt>
      <trkpt lat="40.70021132938563823699951171875" lon="-4.97291140258312225341796875">
        <ele>1253.199951171875</ele>
        <time>2018-08-12T07:15:02.000Z</time>
      </trkpt>
      <trkpt lat="40.6999145261943340301513671875" lon="-4.97259699739515781402587890625">
        <ele>1252.5999755859375</ele>
        <time>2018-08-12T07:15:09.000Z</time>
      </trkpt>
      <trkpt lat="40.69937028922140598297119140625" lon="-4.97191504575312137603759765625">
        <ele>1250.4000244140625</ele>
        <time>2018-08-12T07:15:23.000Z</time>
      </trkpt>
      <trkpt lat="40.698944739997386932373046875" lon="-4.97130517847836017608642578125">
        <ele>1249.199951171875</ele>
        <time>2018-08-12T07:15:35.000Z</time>
      </trkpt>
      <trkpt lat="40.6988847255706787109375" lon="-4.97120082378387451171875">
        <ele>1249.199951171875</ele>
        <time>2018-08-12T07:15:37.000Z</time>
      </trkpt>
      <trkpt lat="40.69878372363746166229248046875" lon="-4.9710766039788722991943359375">
        <ele>1249.4000244140625</ele>
        <time>2018-08-12T07:15:40.000Z</time>
      </trkpt>
      <trkpt lat="40.698506534099578857421875" lon="-4.97082187794148921966552734375">
        <ele>1249.4000244140625</ele>
        <time>2018-08-12T07:15:48.000Z</time>
      </trkpt>
      <trkpt lat="40.69806740619242191314697265625" lon="-4.97013506479561328887939453125">
        <ele>1249.5999755859375</ele>
        <time>2018-08-12T07:16:02.000Z</time>
      </trkpt>
      <trkpt lat="40.69762031547725200653076171875" lon="-4.96945629827678203582763671875">
        <ele>1250</ele>
        <time>2018-08-12T07:16:16.000Z</time>
      </trkpt>
      <trkpt lat="40.697158388793468475341796875" lon="-4.96880468912422657012939453125">
        <ele>1249.5999755859375</ele>
        <time>2018-08-12T07:16:28.000Z</time>
      </trkpt>
      <trkpt lat="40.6967615894973278045654296875" lon="-4.9682559259235858917236328125">
        <ele>1248</ele>
        <time>2018-08-12T07:16:38.000Z</time>
      </trkpt>
      <trkpt lat="40.6963022612035274505615234375" lon="-4.96763424016535282135009765625">
        <ele>1247.199951171875</ele>
        <time>2018-08-12T07:16:50.000Z</time>
      </trkpt>
      <trkpt lat="40.695904456079006195068359375" lon="-4.96697433292865753173828125">
        <ele>1247.199951171875</ele>
        <time>2018-08-12T07:17:03.000Z</time>
      </trkpt>
      <trkpt lat="40.695601366460323333740234375" lon="-4.96646379120647907257080078125">
        <ele>1249</ele>
        <time>2018-08-12T07:17:15.000Z</time>
      </trkpt>
      <trkpt lat="40.6953165493905544281005859375" lon="-4.96587538160383701324462890625">
        <ele>1250.199951171875</ele>
        <time>2018-08-12T07:17:27.000Z</time>
      </trkpt>
      <trkpt lat="40.69505763240158557891845703125" lon="-4.9654738046228885650634765625">
        <ele>1251</ele>
        <time>2018-08-12T07:17:37.000Z</time>
      </trkpt>
      <trkpt lat="40.69485898129642009735107421875" lon="-4.96511531062424182891845703125">
        <ele>1253</ele>
        <time>2018-08-12T07:17:48.000Z</time>
      </trkpt>
      <trkpt lat="40.6947613321244716644287109375" lon="-4.96475572697818279266357421875">
        <ele>1255</ele>
        <time>2018-08-12T07:17:58.000Z</time>
      </trkpt>
      <trkpt lat="40.694584138691425323486328125" lon="-4.96418827213346958160400390625">
        <ele>1257.4000244140625</ele>
        <time>2018-08-12T07:18:13.000Z</time>
      </trkpt>
      <trkpt lat="40.69454080425202846527099609375" lon="-4.9639211408793926239013671875">
        <ele>1257.4000244140625</ele>
        <time>2018-08-12T07:18:17.000Z</time>
      </trkpt>
      <trkpt lat="40.6943938694894313812255859375" lon="-4.96360422112047672271728515625">
        <ele>1256.5999755859375</ele>
        <time>2018-08-12T07:18:22.000Z</time>
      </trkpt>
      <trkpt lat="40.69422413595020771026611328125" lon="-4.96343222446739673614501953125">
        <ele>1254.5999755859375</ele>
        <time>2018-08-12T07:18:27.000Z</time>
      </trkpt>
      <trkpt lat="40.69395859725773334503173828125" lon="-4.96334974654018878936767578125">
        <ele>1254</ele>
        <time>2018-08-12T07:18:36.000Z</time>
      </trkpt>
      <trkpt lat="40.69375097751617431640625" lon="-4.96323072351515293121337890625">
        <ele>1255</ele>
        <time>2018-08-12T07:18:46.000Z</time>
      </trkpt>
      <trkpt lat="40.69357730448246002197265625" lon="-4.96310985647141933441162109375">
        <ele>1255.4000244140625</ele>
        <time>2018-08-12T07:18:55.000Z</time>
      </trkpt>
      <trkpt lat="40.693298019468784332275390625" lon="-4.96303743682801723480224609375">
        <ele>1256.199951171875</ele>
        <time>2018-08-12T07:19:06.000Z</time>
      </trkpt>
      <trkpt lat="40.69311537779867649078369140625" lon="-4.96285705827176570892333984375">
        <ele>1258</ele>
        <time>2018-08-12T07:19:15.000Z</time>
      </trkpt>
      <trkpt lat="40.69279954768717288970947265625" lon="-4.96290567331016063690185546875">
        <ele>1260</ele>
        <time>2018-08-12T07:19:26.000Z</time>
      </trkpt>
      <trkpt lat="40.692445077002048492431640625" lon="-4.96315486729145050048828125">
        <ele>1261.4000244140625</ele>
        <time>2018-08-12T07:19:39.000Z</time>
      </trkpt>
      <trkpt lat="40.69208608008921146392822265625" lon="-4.9634158797562122344970703125">
        <ele>1261.800048828125</ele>
        <time>2018-08-12T07:19:50.000Z</time>
      </trkpt>
      <trkpt lat="40.6917539052665233612060546875" lon="-4.96386774815618991851806640625">
        <ele>1261.5999755859375</ele>
        <time>2018-08-12T07:20:03.000Z</time>
      </trkpt>
      <trkpt lat="40.691496245563030242919921875" lon="-4.9642215482890605926513671875">
        <ele>1262.199951171875</ele>
        <time>2018-08-12T07:20:15.000Z</time>
      </trkpt>
      <trkpt lat="40.69121084176003932952880859375" lon="-4.964525811374187469482421875">
        <ele>1262.800048828125</ele>
        <time>2018-08-12T07:20:26.000Z</time>
      </trkpt>
      <trkpt lat="40.69093708880245685577392578125" lon="-4.964804761111736297607421875">
        <ele>1263.5999755859375</ele>
        <time>2018-08-12T07:20:37.000Z</time>
      </trkpt>
      <trkpt lat="40.69081236608326435089111328125" lon="-4.96510089375078678131103515625">
        <ele>1264.800048828125</ele>
        <time>2018-08-12T07:20:45.000Z</time>
      </trkpt>
      <trkpt lat="40.69061740301549434661865234375" lon="-4.96528931893408298492431640625">
        <ele>1265.4000244140625</ele>
        <time>2018-08-12T07:20:55.000Z</time>
      </trkpt>
      <trkpt lat="40.69051799364387989044189453125" lon="-4.96537598781287670135498046875">
        <ele>1266.800048828125</ele>
        <time>2018-08-12T07:21:01.000Z</time>
      </trkpt>
      <trkpt lat="40.69031481631100177764892578125" lon="-4.96559073217213153839111328125">
        <ele>1268.4000244140625</ele>
        <time>2018-08-12T07:21:11.000Z</time>
      </trkpt>
      <trkpt lat="40.69008984602987766265869140625" lon="-4.96596590615808963775634765625">
        <ele>1269</ele>
        <time>2018-08-12T07:21:21.000Z</time>
      </trkpt>
      <trkpt lat="40.689960010349750518798828125" lon="-4.96621702797710895538330078125">
        <ele>1268.800048828125</ele>
        <time>2018-08-12T07:21:26.000Z</time>
      </trkpt>
      <trkpt lat="40.6898347847163677215576171875" lon="-4.966421462595462799072265625">
        <ele>1267.4000244140625</ele>
        <time>2018-08-12T07:21:31.000Z</time>
      </trkpt>
      <trkpt lat="40.68971760571002960205078125" lon="-4.96643713675439357757568359375">
        <ele>1267.199951171875</ele>
        <time>2018-08-12T07:21:37.000Z</time>
      </trkpt>
      <trkpt lat="40.68956899456679821014404296875" lon="-4.96603899635374546051025390625">
        <ele>1268.5999755859375</ele>
        <time>2018-08-12T07:21:49.000Z</time>
      </trkpt>
      <trkpt lat="40.68944938480854034423828125" lon="-4.965610764920711517333984375">
        <ele>1271.199951171875</ele>
        <time>2018-08-12T07:22:04.000Z</time>
      </trkpt>
      <trkpt lat="40.6894280947744846343994140625" lon="-4.965367019176483154296875">
        <ele>1273</ele>
        <time>2018-08-12T07:22:16.000Z</time>
      </trkpt>
      <trkpt lat="40.689478218555450439453125" lon="-4.96522192843258380889892578125">
        <ele>1274.5999755859375</ele>
        <time>2018-08-12T07:22:23.000Z</time>
      </trkpt>
      <trkpt lat="40.68936623632907867431640625" lon="-4.96514783240854740142822265625">
        <ele>1276.199951171875</ele>
        <time>2018-08-12T07:22:30.000Z</time>
      </trkpt>
      <trkpt lat="40.68908535875380039215087890625" lon="-4.96529216878116130828857421875">
        <ele>1279</ele>
        <time>2018-08-12T07:22:44.000Z</time>
      </trkpt>
      <trkpt lat="40.6890262663364410400390625" lon="-4.965282864868640899658203125">
        <ele>1279.4000244140625</ele>
        <time>2018-08-12T07:22:47.000Z</time>
      </trkpt>
      <trkpt lat="40.68884395994246006011962890625" lon="-4.96497248299419879913330078125">
        <ele>1281.4000244140625</ele>
        <time>2018-08-12T07:22:59.000Z</time>
      </trkpt>
      <trkpt lat="40.6886065006256103515625" lon="-4.96493895538151264190673828125">
        <ele>1282.5999755859375</ele>
        <time>2018-08-12T07:23:09.000Z</time>
      </trkpt>
      <trkpt lat="40.68837809376418590545654296875" lon="-4.96489964425563812255859375">
        <ele>1284.199951171875</ele>
        <time>2018-08-12T07:23:20.000Z</time>
      </trkpt>
      <trkpt lat="40.6881118007004261016845703125" lon="-4.96479093097150325775146484375">
        <ele>1286.199951171875</ele>
        <time>2018-08-12T07:23:33.000Z</time>
      </trkpt>
      <trkpt lat="40.68787802942097187042236328125" lon="-4.96464290656149387359619140625">
        <ele>1287.5999755859375</ele>
        <time>2018-08-12T07:23:45.000Z</time>
      </trkpt>
      <trkpt lat="40.68759153597056865692138671875" lon="-4.96450007893145084381103515625">
        <ele>1290</ele>
        <time>2018-08-12T07:23:59.000Z</time>
      </trkpt>
      <trkpt lat="40.68731510080397129058837890625" lon="-4.96432925574481487274169921875">
        <ele>1291.5999755859375</ele>
        <time>2018-08-12T07:24:13.000Z</time>
      </trkpt>
      <trkpt lat="40.68703246302902698516845703125" lon="-4.9642024375498294830322265625">
        <ele>1293.199951171875</ele>
        <time>2018-08-12T07:24:26.000Z</time>
      </trkpt>
      <trkpt lat="40.6866935826838016510009765625" lon="-4.96415457688271999359130859375">
        <ele>1294.199951171875</ele>
        <time>2018-08-12T07:24:39.000Z</time>
      </trkpt>
      <trkpt lat="40.68639594130218029022216796875" lon="-4.96404745616018772125244140625">
        <ele>1294.4000244140625</ele>
        <time>2018-08-12T07:24:49.000Z</time>
      </trkpt>
      <trkpt lat="40.686129145324230194091796875" lon="-4.96378728188574314117431640625">
        <ele>1294.5999755859375</ele>
        <time>2018-08-12T07:25:01.000Z</time>
      </trkpt>
      <trkpt lat="40.6859103776514530181884765625" lon="-4.96342149563133716583251953125">
        <ele>1296</ele>
        <time>2018-08-12T07:25:14.000Z</time>
      </trkpt>
      <trkpt lat="40.685710720717906951904296875" lon="-4.9628931842744350433349609375">
        <ele>1297.199951171875</ele>
        <time>2018-08-12T07:25:29.000Z</time>
      </trkpt>
      <trkpt lat="40.685554482042789459228515625" lon="-4.962323047220706939697265625">
        <ele>1298.5999755859375</ele>
        <time>2018-08-12T07:25:45.000Z</time>
      </trkpt>
      <trkpt lat="40.6854084692895412445068359375" lon="-4.96171561069786548614501953125">
        <ele>1299.800048828125</ele>
        <time>2018-08-12T07:26:01.000Z</time>
      </trkpt>
      <trkpt lat="40.68521417677402496337890625" lon="-4.9611178971827030181884765625">
        <ele>1301</ele>
        <time>2018-08-12T07:26:15.000Z</time>
      </trkpt>
      <trkpt lat="40.6849055550992488861083984375" lon="-4.9605616740882396697998046875">
        <ele>1302.4000244140625</ele>
        <time>2018-08-12T07:26:30.000Z</time>
      </trkpt>
      <trkpt lat="40.68459534086287021636962890625" lon="-4.96009790338575839996337890625">
        <ele>1303.4000244140625</ele>
        <time>2018-08-12T07:26:44.000Z</time>
      </trkpt>
      <trkpt lat="40.6842219270765781402587890625" lon="-4.95984862558543682098388671875">
        <ele>1303.800048828125</ele>
        <time>2018-08-12T07:26:54.000Z</time>
      </trkpt>
      <trkpt lat="40.68395898677408695220947265625" lon="-4.959666319191455841064453125">
        <ele>1303.4000244140625</ele>
        <time>2018-08-12T07:27:03.000Z</time>
      </trkpt>
      <trkpt lat="40.68371339701116085052490234375" lon="-4.9593721143901348114013671875">
        <ele>1303.800048828125</ele>
        <time>2018-08-12T07:27:13.000Z</time>
      </trkpt>
      <trkpt lat="40.68361130543053150177001953125" lon="-4.9590432085096836090087890625">
        <ele>1304.800048828125</ele>
        <time>2018-08-12T07:27:23.000Z</time>
      </trkpt>
      <trkpt lat="40.6836348585784435272216796875" lon="-4.958976991474628448486328125">
        <ele>1305.5999755859375</ele>
        <time>2018-08-12T07:27:28.000Z</time>
      </trkpt>
      <trkpt lat="40.6837270595133304595947265625" lon="-4.9589667655527591705322265625">
        <ele>1307.199951171875</ele>
        <time>2018-08-12T07:27:36.000Z</time>
      </trkpt>
      <trkpt lat="40.68387181498110294342041015625" lon="-4.9588135443627834320068359375">
        <ele>1307.800048828125</ele>
        <time>2018-08-12T07:27:44.000Z</time>
      </trkpt>
      <trkpt lat="40.68395127542316913604736328125" lon="-4.9583994783461093902587890625">
        <ele>1308.5999755859375</ele>
        <time>2018-08-12T07:27:56.000Z</time>
      </trkpt>
      <trkpt lat="40.68406485021114349365234375" lon="-4.95796889998018741607666015625">
        <ele>1310.5999755859375</ele>
        <time>2018-08-12T07:28:11.000Z</time>
      </trkpt>
      <trkpt lat="40.68410952575504779815673828125" lon="-4.95772129856050014495849609375">
        <ele>1312.4000244140625</ele>
        <time>2018-08-12T07:28:22.000Z</time>
      </trkpt>
      <trkpt lat="40.68408873863518238067626953125" lon="-4.95742357335984706878662109375">
        <ele>1314.800048828125</ele>
        <time>2018-08-12T07:28:34.000Z</time>
      </trkpt>
      <trkpt lat="40.6840747408568859100341796875" lon="-4.9570020474493503570556640625">
        <ele>1316.199951171875</ele>
        <time>2018-08-12T07:28:47.000Z</time>
      </trkpt>
      <trkpt lat="40.683875419199466705322265625" lon="-4.9565913341939449310302734375">
        <ele>1316.800048828125</ele>
        <time>2018-08-12T07:29:01.000Z</time>
      </trkpt>
      <trkpt lat="40.6835424900054931640625" lon="-4.9562594108283519744873046875">
        <ele>1317.4000244140625</ele>
        <time>2018-08-12T07:29:15.000Z</time>
      </trkpt>
      <trkpt lat="40.68331919610500335693359375" lon="-4.955866970121860504150390625">
        <ele>1318</ele>
        <time>2018-08-12T07:29:28.000Z</time>
      </trkpt>
      <trkpt lat="40.68318751640617847442626953125" lon="-4.955754317343235015869140625">
        <ele>1318.800048828125</ele>
        <time>2018-08-12T07:29:34.000Z</time>
      </trkpt>
      <trkpt lat="40.6828147731721401214599609375" lon="-4.9558332748711109161376953125">
        <ele>1319.800048828125</ele>
        <time>2018-08-12T07:29:47.000Z</time>
      </trkpt>
      <trkpt lat="40.68226802162826061248779296875" lon="-4.9559338577091693878173828125">
        <ele>1319.4000244140625</ele>
        <time>2018-08-12T07:30:02.000Z</time>
      </trkpt>
      <trkpt lat="40.681963674724102020263671875" lon="-4.95603117160499095916748046875">
        <ele>1319</ele>
        <time>2018-08-12T07:30:11.000Z</time>
      </trkpt>
      <trkpt lat="40.68172655068337917327880859375" lon="-4.95586856268346309661865234375">
        <ele>1319.199951171875</ele>
        <time>2018-08-12T07:30:19.000Z</time>
      </trkpt>
      <trkpt lat="40.6814585812389850616455078125" lon="-4.955301024019718170166015625">
        <ele>1321.199951171875</ele>
        <time>2018-08-12T07:30:36.000Z</time>
      </trkpt>
      <trkpt lat="40.681240819394588470458984375" lon="-4.95466961525380611419677734375">
        <ele>1323.199951171875</ele>
        <time>2018-08-12T07:30:54.000Z</time>
      </trkpt>
      <trkpt lat="40.6811306811869144439697265625" lon="-4.95429125614464282989501953125">
        <ele>1324.4000244140625</ele>
        <time>2018-08-12T07:31:05.000Z</time>
      </trkpt>
      <trkpt lat="40.6809385679662227630615234375" lon="-4.9536707438528537750244140625">
        <ele>1325.800048828125</ele>
        <time>2018-08-12T07:31:24.000Z</time>
      </trkpt>
      <trkpt lat="40.6807404197752475738525390625" lon="-4.9531611241400241851806640625">
        <ele>1328</ele>
        <time>2018-08-12T07:31:41.000Z</time>
      </trkpt>
      <trkpt lat="40.68062919192016124725341796875" lon="-4.95277178473770618438720703125">
        <ele>1329.800048828125</ele>
        <time>2018-08-12T07:31:54.000Z</time>
      </trkpt>
      <trkpt lat="40.68045618943870067596435546875" lon="-4.95245344005525112152099609375">
        <ele>1331.800048828125</ele>
        <time>2018-08-12T07:32:07.000Z</time>
      </trkpt>
      <trkpt lat="40.680310763418674468994140625" lon="-4.95208949781954288482666015625">
        <ele>1333.5999755859375</ele>
        <time>2018-08-12T07:32:20.000Z</time>
      </trkpt>
      <trkpt lat="40.68018310703337192535400390625" lon="-4.95168305933475494384765625">
        <ele>1335.199951171875</ele>
        <time>2018-08-12T07:32:31.000Z</time>
      </trkpt>
      <trkpt lat="40.680092833936214447021484375" lon="-4.9514267407357692718505859375">
        <ele>1334.800048828125</ele>
        <time>2018-08-12T07:32:36.000Z</time>
      </trkpt>
      <trkpt lat="40.67981623113155364990234375" lon="-4.95093740522861480712890625">
        <ele>1333.4000244140625</ele>
        <time>2018-08-12T07:32:45.000Z</time>
      </trkpt>
      <trkpt lat="40.67965127527713775634765625" lon="-4.95060187764465808868408203125">
        <ele>1331.5999755859375</ele>
        <time>2018-08-12T07:32:50.000Z</time>
      </trkpt>
      <trkpt lat="40.67948900163173675537109375" lon="-4.95028889738023281097412109375">
        <ele>1328.4000244140625</ele>
        <time>2018-08-12T07:32:55.000Z</time>
      </trkpt>
      <trkpt lat="40.6793329305946826934814453125" lon="-4.94973518885672092437744140625">
        <ele>1324.800048828125</ele>
        <time>2018-08-12T07:33:04.000Z</time>
      </trkpt>
      <trkpt lat="40.67918934859335422515869140625" lon="-4.94946445338428020477294921875">
        <ele>1322.5999755859375</ele>
        <time>2018-08-12T07:33:12.000Z</time>
      </trkpt>
      <trkpt lat="40.6790318526327610015869140625" lon="-4.9489876069128513336181640625">
        <ele>1322</ele>
        <time>2018-08-12T07:33:19.000Z</time>
      </trkpt>
      <trkpt lat="40.67877612076699733734130859375" lon="-4.9483686871826648712158203125">
        <ele>1319</ele>
        <time>2018-08-12T07:33:26.000Z</time>
      </trkpt>
      <trkpt lat="40.67859121598303318023681640625" lon="-4.9478687904775142669677734375">
        <ele>1315.800048828125</ele>
        <time>2018-08-12T07:33:31.000Z</time>
      </trkpt>
      <trkpt lat="40.6785229034721851348876953125" lon="-4.94755371473729610443115234375">
        <ele>1312.800048828125</ele>
        <time>2018-08-12T07:33:34.000Z</time>
      </trkpt>
      <trkpt lat="40.67848644219338893890380859375" lon="-4.9471140839159488677978515625">
        <ele>1309.5999755859375</ele>
        <time>2018-08-12T07:33:38.000Z</time>
      </trkpt>
      <trkpt lat="40.67843112163245677947998046875" lon="-4.94643934071063995361328125">
        <ele>1307</ele>
        <time>2018-08-12T07:33:45.000Z</time>
      </trkpt>
      <trkpt lat="40.67840714938938617706298828125" lon="-4.94638041593134403228759765625">
        <ele>1306.800048828125</ele>
        <time>2018-08-12T07:33:46.000Z</time>
      </trkpt>
      <trkpt lat="40.6782402656972408294677734375" lon="-4.94633096270263195037841796875">
        <ele>1304.199951171875</ele>
        <time>2018-08-12T07:33:50.000Z</time>
      </trkpt>
      <trkpt lat="40.678120069205760955810546875" lon="-4.9462229199707508087158203125">
        <ele>1303.4000244140625</ele>
        <time>2018-08-12T07:33:53.000Z</time>
      </trkpt>
      <trkpt lat="40.67783282138407230377197265625" lon="-4.94584950618445873260498046875">
        <ele>1301.800048828125</ele>
        <time>2018-08-12T07:34:01.000Z</time>
      </trkpt>
      <trkpt lat="40.67747239954769611358642578125" lon="-4.94556091725826263427734375">
        <ele>1299.5999755859375</ele>
        <time>2018-08-12T07:34:10.000Z</time>
      </trkpt>
      <trkpt lat="40.6773739121854305267333984375" lon="-4.9454833008348941802978515625">
        <ele>1298.5999755859375</ele>
        <time>2018-08-12T07:34:18.000Z</time>
      </trkpt>
      <trkpt lat="40.6773729063570499420166015625" lon="-4.94548321701586246490478515625">
        <ele>1299.4000244140625</ele>
        <time>2018-08-12T07:35:08.000Z</time>
      </trkpt>
      <trkpt lat="40.67737483419477939605712890625" lon="-4.94549830444157123565673828125">
        <ele>1299.199951171875</ele>
        <time>2018-08-12T07:36:08.000Z</time>
      </trkpt>
      <trkpt lat="40.67737315781414508819580078125" lon="-4.9454977177083492279052734375">
        <ele>1299.199951171875</ele>
        <time>2018-08-12T07:36:13.000Z</time>
      </trkpt>
      <trkpt lat="40.6773685477674007415771484375" lon="-4.94550283066928386688232421875">
        <ele>1299.4000244140625</ele>
        <time>2018-08-12T07:37:06.000Z</time>
      </trkpt>
      <trkpt lat="40.6773618422448635101318359375" lon="-4.94549578987061977386474609375">
        <ele>1299.4000244140625</ele>
        <time>2018-08-12T07:37:28.000Z</time>
      </trkpt>
      <trkpt lat="40.677358992397785186767578125" lon="-4.945480115711688995361328125">
        <ele>1299.199951171875</ele>
        <time>2018-08-12T07:38:27.000Z</time>
      </trkpt>
      <trkpt lat="40.67735991440713405609130859375" lon="-4.94548422284424304962158203125">
        <ele>1299.4000244140625</ele>
        <time>2018-08-12T07:39:41.000Z</time>
      </trkpt>
      <trkpt lat="40.67735253833234310150146484375" lon="-4.945487491786479949951171875">
        <ele>1299.4000244140625</ele>
        <time>2018-08-12T07:40:09.000Z</time>
      </trkpt>
      <trkpt lat="40.6773457489907741546630859375" lon="-4.9454826302826404571533203125">
        <ele>1299.4000244140625</ele>
        <time>2018-08-12T07:41:04.000Z</time>
      </trkpt>
      <trkpt lat="40.67734449170529842376708984375" lon="-4.94546259753406047821044921875">
        <ele>1299.4000244140625</ele>
        <time>2018-08-12T07:41:13.000Z</time>
      </trkpt>
      <trkpt lat="40.6773658655583858489990234375" lon="-4.94527584873139858245849609375">
        <ele>1299.199951171875</ele>
        <time>2018-08-12T07:41:21.000Z</time>
      </trkpt>
      <trkpt lat="40.67731230519711971282958984375" lon="-4.94512916542589664459228515625">
        <ele>1299</ele>
        <time>2018-08-12T07:41:25.000Z</time>
      </trkpt>
      <trkpt lat="40.67728430964052677154541015625" lon="-4.94453958235681056976318359375">
        <ele>1296.5999755859375</ele>
        <time>2018-08-12T07:41:36.000Z</time>
      </trkpt>
      <trkpt lat="40.67712706513702869415283203125" lon="-4.94416826404631137847900390625">
        <ele>1293.5999755859375</ele>
        <time>2018-08-12T07:41:45.000Z</time>
      </trkpt>
      <trkpt lat="40.6770507059991359710693359375" lon="-4.94412920437753200531005859375">
        <ele>1292.5999755859375</ele>
        <time>2018-08-12T07:41:47.000Z</time>
      </trkpt>
      <trkpt lat="40.676927827298641204833984375" lon="-4.94399123825132846832275390625">
        <ele>1292</ele>
        <time>2018-08-12T07:41:51.000Z</time>
      </trkpt>
      <trkpt lat="40.67663647234439849853515625" lon="-4.94351615197956562042236328125">
        <ele>1291.5999755859375</ele>
        <time>2018-08-12T07:42:03.000Z</time>
      </trkpt>
      <trkpt lat="40.67649557255208492279052734375" lon="-4.94330174289643764495849609375">
        <ele>1289.4000244140625</ele>
        <time>2018-08-12T07:42:12.000Z</time>
      </trkpt>
      <trkpt lat="40.67644125781953334808349609375" lon="-4.94318984448909759521484375">
        <ele>1288.5999755859375</ele>
        <time>2018-08-12T07:42:24.000Z</time>
      </trkpt>
      <trkpt lat="40.6763593666255474090576171875" lon="-4.94304458610713481903076171875">
        <ele>1288.199951171875</ele>
        <time>2018-08-12T07:42:47.000Z</time>
      </trkpt>
      <trkpt lat="40.6762517429888248443603515625" lon="-4.94287577457726001739501953125">
        <ele>1288</ele>
        <time>2018-08-12T07:43:00.000Z</time>
      </trkpt>
      <trkpt lat="40.67600690759718418121337890625" lon="-4.94249925948679447174072265625">
        <ele>1287.4000244140625</ele>
        <time>2018-08-12T07:43:10.000Z</time>
      </trkpt>
      <trkpt lat="40.6758316420018672943115234375" lon="-4.9421436153352260589599609375">
        <ele>1286.800048828125</ele>
        <time>2018-08-12T07:43:20.000Z</time>
      </trkpt>
      <trkpt lat="40.675641708076000213623046875" lon="-4.9417637474834918975830078125">
        <ele>1287.800048828125</ele>
        <time>2018-08-12T07:43:30.000Z</time>
      </trkpt>
      <trkpt lat="40.6756006367504596710205078125" lon="-4.94166903197765350341796875">
        <ele>1287.800048828125</ele>
        <time>2018-08-12T07:43:32.000Z</time>
      </trkpt>
      <trkpt lat="40.675520338118076324462890625" lon="-4.9415181577205657958984375">
        <ele>1287.5999755859375</ele>
        <time>2018-08-12T07:43:35.000Z</time>
      </trkpt>
      <trkpt lat="40.67527265287935733795166015625" lon="-4.94117894209921360015869140625">
        <ele>1285.5999755859375</ele>
        <time>2018-08-12T07:43:44.000Z</time>
      </trkpt>
      <trkpt lat="40.67521280609071254730224609375" lon="-4.94107651524245738983154296875">
        <ele>1285.4000244140625</ele>
        <time>2018-08-12T07:43:46.000Z</time>
      </trkpt>
      <trkpt lat="40.67486512474715709686279296875" lon="-4.94071827270090579986572265625">
        <ele>1285.199951171875</ele>
        <time>2018-08-12T07:43:57.000Z</time>
      </trkpt>
      <trkpt lat="40.67452280782163143157958984375" lon="-4.9404940567910671234130859375">
        <ele>1286</ele>
        <time>2018-08-12T07:44:08.000Z</time>
      </trkpt>
      <trkpt lat="40.67413573153316974639892578125" lon="-4.940358437597751617431640625">
        <ele>1286</ele>
        <time>2018-08-12T07:44:18.000Z</time>
      </trkpt>
      <trkpt lat="40.67391780205070972442626953125" lon="-4.940169341862201690673828125">
        <ele>1285</ele>
        <time>2018-08-12T07:44:27.000Z</time>
      </trkpt>
      <trkpt lat="40.67390321753919124603271484375" lon="-4.940143860876560211181640625">
        <ele>1285</ele>
        <time>2018-08-12T07:44:28.000Z</time>
      </trkpt>
      <trkpt lat="40.67393012344837188720703125" lon="-4.93986868299543857574462890625">
        <ele>1286.5999755859375</ele>
        <time>2018-08-12T07:44:38.000Z</time>
      </trkpt>
      <trkpt lat="40.673921406269073486328125" lon="-4.93967615067958831787109375">
        <ele>1289.800048828125</ele>
        <time>2018-08-12T07:44:47.000Z</time>
      </trkpt>
      <trkpt lat="40.67380716092884540557861328125" lon="-4.9395666830241680145263671875">
        <ele>1292.199951171875</ele>
        <time>2018-08-12T07:44:59.000Z</time>
      </trkpt>
      <trkpt lat="40.673788972198963165283203125" lon="-4.9395291320979595184326171875">
        <ele>1294.5999755859375</ele>
        <time>2018-08-12T07:45:15.000Z</time>
      </trkpt>
      <trkpt lat="40.6737817637622356414794921875" lon="-4.93951966054737567901611328125">
        <ele>1294.5999755859375</ele>
        <time>2018-08-12T07:45:20.000Z</time>
      </trkpt>
      <trkpt lat="40.6737616471946239471435546875" lon="-4.93946651928126811981201171875">
        <ele>1294.5999755859375</ele>
        <time>2018-08-12T07:45:23.000Z</time>
      </trkpt>
      <trkpt lat="40.67373122088611125946044921875" lon="-4.939220845699310302734375">
        <ele>1294.800048828125</ele>
        <time>2018-08-12T07:45:32.000Z</time>
      </trkpt>
      <trkpt lat="40.67373440600931644439697265625" lon="-4.93917399086058139801025390625">
        <ele>1295</ele>
        <time>2018-08-12T07:45:34.000Z</time>
      </trkpt>
      <trkpt lat="40.673725605010986328125" lon="-4.93912654928863048553466796875">
        <ele>1296.4000244140625</ele>
        <time>2018-08-12T07:45:39.000Z</time>
      </trkpt>
      <trkpt lat="40.67373608238995075225830078125" lon="-4.9390773475170135498046875">
        <ele>1297.199951171875</ele>
        <time>2018-08-12T07:45:42.000Z</time>
      </trkpt>
      <trkpt lat="40.6737244315445423126220703125" lon="-4.9389139004051685333251953125">
        <ele>1300</ele>
        <time>2018-08-12T07:45:55.000Z</time>
      </trkpt>
      <trkpt lat="40.6737408600747585296630859375" lon="-4.938750453293323516845703125">
        <ele>1301.800048828125</ele>
        <time>2018-08-12T07:46:12.000Z</time>
      </trkpt>
      <trkpt lat="40.67373172380030155181884765625" lon="-4.9386537261307239532470703125">
        <ele>1302.199951171875</ele>
        <time>2018-08-12T07:47:02.000Z</time>
      </trkpt>
      <trkpt lat="40.6737116910517215728759765625" lon="-4.93837234564125537872314453125">
        <ele>1303.199951171875</ele>
        <time>2018-08-12T07:47:16.000Z</time>
      </trkpt>
      <trkpt lat="40.67368729971349239349365234375" lon="-4.93813916109502315521240234375">
        <ele>1304.800048828125</ele>
        <time>2018-08-12T07:47:29.000Z</time>
      </trkpt>
      <trkpt lat="40.67365243099629878997802734375" lon="-4.937989376485347747802734375">
        <ele>1307.4000244140625</ele>
        <time>2018-08-12T07:47:38.000Z</time>
      </trkpt>
      <trkpt lat="40.67357833497226238250732421875" lon="-4.93781872093677520751953125">
        <ele>1309.800048828125</ele>
        <time>2018-08-12T07:47:52.000Z</time>
      </trkpt>
      <trkpt lat="40.67357414402067661285400390625" lon="-4.937804974615573883056640625">
        <ele>1310</ele>
        <time>2018-08-12T07:47:53.000Z</time>
      </trkpt>
      <trkpt lat="40.6735048256814479827880859375" lon="-4.93758478201925754547119140625">
        <ele>1311.5999755859375</ele>
        <time>2018-08-12T07:48:07.000Z</time>
      </trkpt>
      <trkpt lat="40.67351094447076320648193359375" lon="-4.93748076260089874267578125">
        <ele>1313.4000244140625</ele>
        <time>2018-08-12T07:48:17.000Z</time>
      </trkpt>
      <trkpt lat="40.6735262833535671234130859375" lon="-4.937407672405242919921875">
        <ele>1314.800048828125</ele>
        <time>2018-08-12T07:48:23.000Z</time>
      </trkpt>
      <trkpt lat="40.67348345182836055755615234375" lon="-4.93716887198388576507568359375">
        <ele>1317.199951171875</ele>
        <time>2018-08-12T07:48:43.000Z</time>
      </trkpt>
      <trkpt lat="40.67348931916058063507080078125" lon="-4.9369434826076030731201171875">
        <ele>1320.199951171875</ele>
        <time>2018-08-12T07:49:04.000Z</time>
      </trkpt>
      <trkpt lat="40.6734426319599151611328125" lon="-4.93674256838858127593994140625">
        <ele>1320.5999755859375</ele>
        <time>2018-08-12T07:49:16.000Z</time>
      </trkpt>
      <trkpt lat="40.67347104661166667938232421875" lon="-4.9365797080099582672119140625">
        <ele>1321.199951171875</ele>
        <time>2018-08-12T07:49:23.000Z</time>
      </trkpt>
      <trkpt lat="40.6734065897762775421142578125" lon="-4.93633269332349300384521484375">
        <ele>1323.199951171875</ele>
        <time>2018-08-12T07:49:34.000Z</time>
      </trkpt>
      <trkpt lat="40.67329502664506435394287109375" lon="-4.9360697530210018157958984375">
        <ele>1325</ele>
        <time>2018-08-12T07:49:48.000Z</time>
      </trkpt>
      <trkpt lat="40.67326703108847141265869140625" lon="-4.93605382740497589111328125">
        <ele>1325.4000244140625</ele>
        <time>2018-08-12T07:49:50.000Z</time>
      </trkpt>
      <trkpt lat="40.67318237386643886566162109375" lon="-4.93596171028912067413330078125">
        <ele>1327.800048828125</ele>
        <time>2018-08-12T07:50:01.000Z</time>
      </trkpt>
      <trkpt lat="40.6731140613555908203125" lon="-4.935878813266754150390625">
        <ele>1329</ele>
        <time>2018-08-12T07:50:13.000Z</time>
      </trkpt>
      <trkpt lat="40.6730766780674457550048828125" lon="-4.93586129508912563323974609375">
        <ele>1329.5999755859375</ele>
        <time>2018-08-12T07:50:18.000Z</time>
      </trkpt>
      <trkpt lat="40.6729600019752979278564453125" lon="-4.935792647302150726318359375">
        <ele>1330.800048828125</ele>
        <time>2018-08-12T07:50:30.000Z</time>
      </trkpt>
      <trkpt lat="40.6729110516607761383056640625" lon="-4.93573489598929882049560546875">
        <ele>1331.5999755859375</ele>
        <time>2018-08-12T07:50:37.000Z</time>
      </trkpt>
      <trkpt lat="40.6728436611592769622802734375" lon="-4.9357046373188495635986328125">
        <ele>1333</ele>
        <time>2018-08-12T07:50:49.000Z</time>
      </trkpt>
      <trkpt lat="40.67283385433256626129150390625" lon="-4.9356996081769466400146484375">
        <ele>1333.4000244140625</ele>
        <time>2018-08-12T07:51:18.000Z</time>
      </trkpt>
      <trkpt lat="40.67282882519066333770751953125" lon="-4.93569700978696346282958984375">
        <ele>1333.4000244140625</ele>
        <time>2018-08-12T07:51:20.000Z</time>
      </trkpt>
      <trkpt lat="40.6727142445743083953857421875" lon="-4.935643784701824188232421875">
        <ele>1333.4000244140625</ele>
        <time>2018-08-12T07:51:27.000Z</time>
      </trkpt>
      <trkpt lat="40.67269488237798213958740234375" lon="-4.93547539226710796356201171875">
        <ele>1333.800048828125</ele>
        <time>2018-08-12T07:51:34.000Z</time>
      </trkpt>
      <trkpt lat="40.67271918989717960357666015625" lon="-4.935259558260440826416015625">
        <ele>1335</ele>
        <time>2018-08-12T07:51:42.000Z</time>
      </trkpt>
      <trkpt lat="40.67258340306580066680908203125" lon="-4.93490827269852161407470703125">
        <ele>1336.800048828125</ele>
        <time>2018-08-12T07:51:57.000Z</time>
      </trkpt>
      <trkpt lat="40.6724805571138858795166015625" lon="-4.93471196852624416351318359375">
        <ele>1338.5999755859375</ele>
        <time>2018-08-12T07:52:09.000Z</time>
      </trkpt>
      <trkpt lat="40.672372765839099884033203125" lon="-4.9345157481729984283447265625">
        <ele>1341.199951171875</ele>
        <time>2018-08-12T07:52:24.000Z</time>
      </trkpt>
      <trkpt lat="40.67236782051622867584228515625" lon="-4.934507198631763458251953125">
        <ele>1341.4000244140625</ele>
        <time>2018-08-12T07:52:28.000Z</time>
      </trkpt>
      <trkpt lat="40.67234703339636325836181640625" lon="-4.93435825221240520477294921875">
        <ele>1342.199951171875</ele>
        <time>2018-08-12T07:52:41.000Z</time>
      </trkpt>
      <trkpt lat="40.6723387353122234344482421875" lon="-4.934233613312244415283203125">
        <ele>1343.5999755859375</ele>
        <time>2018-08-12T07:52:51.000Z</time>
      </trkpt>
      <trkpt lat="40.6723497994244098663330078125" lon="-4.93413663469254970550537109375">
        <ele>1344.800048828125</ele>
        <time>2018-08-12T07:53:02.000Z</time>
      </trkpt>
      <trkpt lat="40.67231141030788421630859375" lon="-4.93404761888086795806884765625">
        <ele>1345.800048828125</ele>
        <time>2018-08-12T07:53:12.000Z</time>
      </trkpt>
      <trkpt lat="40.6722213886678218841552734375" lon="-4.9338014423847198486328125">
        <ele>1346.4000244140625</ele>
        <time>2018-08-12T07:53:24.000Z</time>
      </trkpt>
      <trkpt lat="40.672151148319244384765625" lon="-4.93355912156403064727783203125">
        <ele>1347.5999755859375</ele>
        <time>2018-08-12T07:53:35.000Z</time>
      </trkpt>
      <trkpt lat="40.67215039394795894622802734375" lon="-4.93354537524282932281494140625">
        <ele>1347.800048828125</ele>
        <time>2018-08-12T07:53:37.000Z</time>
      </trkpt>
      <trkpt lat="40.67213932983577251434326171875" lon="-4.93345367722213268280029296875">
        <ele>1349.4000244140625</ele>
        <time>2018-08-12T07:53:47.000Z</time>
      </trkpt>
      <trkpt lat="40.67214335314929485321044921875" lon="-4.93333767168223857879638671875">
        <ele>1350.4000244140625</ele>
        <time>2018-08-12T07:54:00.000Z</time>
      </trkpt>
      <trkpt lat="40.6721419282257556915283203125" lon="-4.93332845158874988555908203125">
        <ele>1350.4000244140625</ele>
        <time>2018-08-12T07:54:01.000Z</time>
      </trkpt>
      <trkpt lat="40.67214787937700748443603515625" lon="-4.9332128651440143585205078125">
        <ele>1351.4000244140625</ele>
        <time>2018-08-12T07:54:13.000Z</time>
      </trkpt>
      <trkpt lat="40.6720926426351070404052734375" lon="-4.93291069753468036651611328125">
        <ele>1351.800048828125</ele>
        <time>2018-08-12T07:54:24.000Z</time>
      </trkpt>
      <trkpt lat="40.67205282859504222869873046875" lon="-4.93259151466190814971923828125">
        <ele>1352.199951171875</ele>
        <time>2018-08-12T07:54:33.000Z</time>
      </trkpt>
      <trkpt lat="40.6720339693129062652587890625" lon="-4.93223779834806919097900390625">
        <ele>1353</ele>
        <time>2018-08-12T07:54:43.000Z</time>
      </trkpt>
      <trkpt lat="40.6720255874097347259521484375" lon="-4.93213252164423465728759765625">
        <ele>1353.4000244140625</ele>
        <time>2018-08-12T07:54:47.000Z</time>
      </trkpt>
      <trkpt lat="40.672038160264492034912109375" lon="-4.93180076591670513153076171875">
        <ele>1355.800048828125</ele>
        <time>2018-08-12T07:55:00.000Z</time>
      </trkpt>
      <trkpt lat="40.67203572951257228851318359375" lon="-4.9315398372709751129150390625">
        <ele>1358.199951171875</ele>
        <time>2018-08-12T07:55:11.000Z</time>
      </trkpt>
      <trkpt lat="40.67204880528151988983154296875" lon="-4.9314516596496105194091796875">
        <ele>1358.800048828125</ele>
        <time>2018-08-12T07:55:15.000Z</time>
      </trkpt>
      <trkpt lat="40.672076046466827392578125" lon="-4.9311934970319271087646484375">
        <ele>1359.800048828125</ele>
        <time>2018-08-12T07:55:26.000Z</time>
      </trkpt>
      <trkpt lat="40.6720145232975482940673828125" lon="-4.93094664998352527618408203125">
        <ele>1361</ele>
        <time>2018-08-12T07:55:37.000Z</time>
      </trkpt>
      <trkpt lat="40.671981833875179290771484375" lon="-4.9307732284069061279296875">
        <ele>1361.800048828125</ele>
        <time>2018-08-12T07:55:44.000Z</time>
      </trkpt>
      <trkpt lat="40.67209658212959766387939453125" lon="-4.93036754429340362548828125">
        <ele>1362.5999755859375</ele>
        <time>2018-08-12T07:55:56.000Z</time>
      </trkpt>
      <trkpt lat="40.67214109003543853759765625" lon="-4.92993704974651336669921875">
        <ele>1363.4000244140625</ele>
        <time>2018-08-12T07:56:08.000Z</time>
      </trkpt>
      <trkpt lat="40.67220554687082767486572265625" lon="-4.9295902065932750701904296875">
        <ele>1364.5999755859375</ele>
        <time>2018-08-12T07:56:20.000Z</time>
      </trkpt>
      <trkpt lat="40.6722381524741649627685546875" lon="-4.929300360381603240966796875">
        <ele>1365.800048828125</ele>
        <time>2018-08-12T07:56:32.000Z</time>
      </trkpt>
      <trkpt lat="40.67223052494227886199951171875" lon="-4.92897086776793003082275390625">
        <ele>1368.4000244140625</ele>
        <time>2018-08-12T07:56:46.000Z</time>
      </trkpt>
      <trkpt lat="40.6722579337656497955322265625" lon="-4.92867280729115009307861328125">
        <ele>1371.4000244140625</ele>
        <time>2018-08-12T07:56:59.000Z</time>
      </trkpt>
      <trkpt lat="40.67236413247883319854736328125" lon="-4.928435347974300384521484375">
        <ele>1373</ele>
        <time>2018-08-12T07:57:12.000Z</time>
      </trkpt>
      <trkpt lat="40.67239455878734588623046875" lon="-4.9283406324684619903564453125">
        <ele>1374.4000244140625</ele>
        <time>2018-08-12T07:57:18.000Z</time>
      </trkpt>
      <trkpt lat="40.67240520380437374114990234375" lon="-4.92814256809651851654052734375">
        <ele>1377.199951171875</ele>
        <time>2018-08-12T07:57:29.000Z</time>
      </trkpt>
      <trkpt lat="40.67247896455228328704833984375" lon="-4.92784853093326091766357421875">
        <ele>1379.5999755859375</ele>
        <time>2018-08-12T07:57:45.000Z</time>
      </trkpt>
      <trkpt lat="40.67252866923809051513671875" lon="-4.92755935527384281158447265625">
        <ele>1380.4000244140625</ele>
        <time>2018-08-12T07:57:59.000Z</time>
      </trkpt>
      <trkpt lat="40.67256010137498378753662109375" lon="-4.927340336143970489501953125">
        <ele>1381</ele>
        <time>2018-08-12T07:58:11.000Z</time>
      </trkpt>
      <trkpt lat="40.67258843220770359039306640625" lon="-4.92704235948622226715087890625">
        <ele>1382.4000244140625</ele>
        <time>2018-08-12T07:58:26.000Z</time>
      </trkpt>
      <trkpt lat="40.6725776195526123046875" lon="-4.92681286297738552093505859375">
        <ele>1383.5999755859375</ele>
        <time>2018-08-12T07:58:39.000Z</time>
      </trkpt>
      <trkpt lat="40.67257133312523365020751953125" lon="-4.926598034799098968505859375">
        <ele>1386.800048828125</ele>
        <time>2018-08-12T07:58:52.000Z</time>
      </trkpt>
      <trkpt lat="40.672563873231410980224609375" lon="-4.92639745585620403289794921875">
        <ele>1389.199951171875</ele>
        <time>2018-08-12T07:59:04.000Z</time>
      </trkpt>
      <trkpt lat="40.67259781993925571441650390625" lon="-4.92615588940680027008056640625">
        <ele>1392</ele>
        <time>2018-08-12T07:59:19.000Z</time>
      </trkpt>
      <trkpt lat="40.67263503558933734893798828125" lon="-4.92597877979278564453125">
        <ele>1393.800048828125</ele>
        <time>2018-08-12T07:59:30.000Z</time>
      </trkpt>
      <trkpt lat="40.67253394983708858489990234375" lon="-4.9258460104465484619140625">
        <ele>1396</ele>
        <time>2018-08-12T07:59:42.000Z</time>
      </trkpt>
      <trkpt lat="40.67258499562740325927734375" lon="-4.9256768636405467987060546875">
        <ele>1398.800048828125</ele>
        <time>2018-08-12T07:59:57.000Z</time>
      </trkpt>
      <trkpt lat="40.672598071396350860595703125" lon="-4.925487600266933441162109375">
        <ele>1401.5999755859375</ele>
        <time>2018-08-12T08:00:15.000Z</time>
      </trkpt>
      <trkpt lat="40.6725816428661346435546875" lon="-4.9254247359931468963623046875">
        <ele>1402.4000244140625</ele>
        <time>2018-08-12T08:00:20.000Z</time>
      </trkpt>
      <trkpt lat="40.6725466065108776092529296875" lon="-4.925337731838226318359375">
        <ele>1403.800048828125</ele>
        <time>2018-08-12T08:00:35.000Z</time>
      </trkpt>
      <trkpt lat="40.67253277637064456939697265625" lon="-4.92531283758580684661865234375">
        <ele>1404</ele>
        <time>2018-08-12T08:00:37.000Z</time>
      </trkpt>
      <trkpt lat="40.672476030886173248291015625" lon="-4.9251977540552616119384765625">
        <ele>1404.199951171875</ele>
        <time>2018-08-12T08:00:45.000Z</time>
      </trkpt>
      <trkpt lat="40.672472007572650909423828125" lon="-4.92489458061754703521728515625">
        <ele>1405.199951171875</ele>
        <time>2018-08-12T08:01:02.000Z</time>
      </trkpt>
      <trkpt lat="40.6724631227552890777587890625" lon="-4.92476901970803737640380859375">
        <ele>1406</ele>
        <time>2018-08-12T08:01:11.000Z</time>
      </trkpt>
      <trkpt lat="40.6724470295011997222900390625" lon="-4.924374483525753021240234375">
        <ele>1407</ele>
        <time>2018-08-12T08:01:25.000Z</time>
      </trkpt>
      <trkpt lat="40.67240671254694461822509765625" lon="-4.92400224320590496063232421875">
        <ele>1409.199951171875</ele>
        <time>2018-08-12T08:01:38.000Z</time>
      </trkpt>
      <trkpt lat="40.67236631177365779876708984375" lon="-4.92348222993314266204833984375">
        <ele>1410.5999755859375</ele>
        <time>2018-08-12T08:01:53.000Z</time>
      </trkpt>
      <trkpt lat="40.672376118600368499755859375" lon="-4.92319741286337375640869140625">
        <ele>1410.5999755859375</ele>
        <time>2018-08-12T08:02:00.000Z</time>
      </trkpt>
      <trkpt lat="40.67230872809886932373046875" lon="-4.9230301938951015472412109375">
        <ele>1410.199951171875</ele>
        <time>2018-08-12T08:02:04.000Z</time>
      </trkpt>
      <trkpt lat="40.6722663156688213348388671875" lon="-4.9225509166717529296875">
        <ele>1408.800048828125</ele>
        <time>2018-08-12T08:02:11.000Z</time>
      </trkpt>
      <trkpt lat="40.672272183001041412353515625" lon="-4.922298453748226165771484375">
        <ele>1407.5999755859375</ele>
        <time>2018-08-12T08:02:14.000Z</time>
      </trkpt>
      <trkpt lat="40.672276876866817474365234375" lon="-4.9219774268567562103271484375">
        <ele>1404</ele>
        <time>2018-08-12T08:02:18.000Z</time>
      </trkpt>
      <trkpt lat="40.67221158184111118316650390625" lon="-4.921560175716876983642578125">
        <ele>1399.5999755859375</ele>
        <time>2018-08-12T08:02:23.000Z</time>
      </trkpt>
      <trkpt lat="40.67213413305580615997314453125" lon="-4.92122079245746135711669921875">
        <ele>1397.4000244140625</ele>
        <time>2018-08-12T08:02:27.000Z</time>
      </trkpt>
      <trkpt lat="40.6720691733062267303466796875" lon="-4.92083304561674594879150390625">
        <ele>1393.199951171875</ele>
        <time>2018-08-12T08:02:32.000Z</time>
      </trkpt>
      <trkpt lat="40.67176046781241893768310546875" lon="-4.9203855358064174652099609375">
        <ele>1389.5999755859375</ele>
        <time>2018-08-12T08:02:39.000Z</time>
      </trkpt>
      <trkpt lat="40.67157782614231109619140625" lon="-4.9201488308608531951904296875">
        <ele>1387.199951171875</ele>
        <time>2018-08-12T08:02:43.000Z</time>
      </trkpt>
      <trkpt lat="40.671428628265857696533203125" lon="-4.92000994272530078887939453125">
        <ele>1384.800048828125</ele>
        <time>2018-08-12T08:02:47.000Z</time>
      </trkpt>
      <trkpt lat="40.67127901129424571990966796875" lon="-4.9199215136468410491943359375">
        <ele>1384</ele>
        <time>2018-08-12T08:02:50.000Z</time>
      </trkpt>
      <trkpt lat="40.67104415036737918853759765625" lon="-4.91985554806888103485107421875">
        <ele>1383.4000244140625</ele>
        <time>2018-08-12T08:02:55.000Z</time>
      </trkpt>
      <trkpt lat="40.67096519283950328826904296875" lon="-4.9197828769683837890625">
        <ele>1382</ele>
        <time>2018-08-12T08:02:57.000Z</time>
      </trkpt>
      <trkpt lat="40.67090316675603389739990234375" lon="-4.91967952810227870941162109375">
        <ele>1381.199951171875</ele>
        <time>2018-08-12T08:02:59.000Z</time>
      </trkpt>
      <trkpt lat="40.6708953715860843658447265625" lon="-4.91956151090562343597412109375">
        <ele>1380.4000244140625</ele>
        <time>2018-08-12T08:03:01.000Z</time>
      </trkpt>
      <trkpt lat="40.6708138994872570037841796875" lon="-4.91938230581581592559814453125">
        <ele>1379.5999755859375</ele>
        <time>2018-08-12T08:03:05.000Z</time>
      </trkpt>
      <trkpt lat="40.6705936230719089508056640625" lon="-4.91913001053035259246826171875">
        <ele>1378</ele>
        <time>2018-08-12T08:03:12.000Z</time>
      </trkpt>
      <trkpt lat="40.67041718401014804840087890625" lon="-4.9187416769564151763916015625">
        <ele>1377.4000244140625</ele>
        <time>2018-08-12T08:03:20.000Z</time>
      </trkpt>
      <trkpt lat="40.6703150086104869842529296875" lon="-4.91862625814974308013916015625">
        <ele>1377.199951171875</ele>
        <time>2018-08-12T08:03:23.000Z</time>
      </trkpt>
      <trkpt lat="40.66992022097110748291015625" lon="-4.91821822710335254669189453125">
        <ele>1376.4000244140625</ele>
        <time>2018-08-12T08:03:31.000Z</time>
      </trkpt>
      <trkpt lat="40.66955007612705230712890625" lon="-4.9180650897324085235595703125">
        <ele>1372.5999755859375</ele>
        <time>2018-08-12T08:03:37.000Z</time>
      </trkpt>
      <trkpt lat="40.66947539336979389190673828125" lon="-4.91808059625327587127685546875">
        <ele>1372.199951171875</ele>
        <time>2018-08-12T08:03:38.000Z</time>
      </trkpt>
      <trkpt lat="40.6690111197531223297119140625" lon="-4.91813206113874912261962890625">
        <ele>1368</ele>
        <time>2018-08-12T08:03:44.000Z</time>
      </trkpt>
      <trkpt lat="40.66870383918285369873046875" lon="-4.91816751658916473388671875">
        <ele>1365.4000244140625</ele>
        <time>2018-08-12T08:03:48.000Z</time>
      </trkpt>
      <trkpt lat="40.66817343235015869140625" lon="-4.9182146228849887847900390625">
        <ele>1362.4000244140625</ele>
        <time>2018-08-12T08:03:55.000Z</time>
      </trkpt>
      <trkpt lat="40.66804225556552410125732421875" lon="-4.9182166345417499542236328125">
        <ele>1361.4000244140625</ele>
        <time>2018-08-12T08:03:57.000Z</time>
      </trkpt>
      <trkpt lat="40.66773816011846065521240234375" lon="-4.91804958321154117584228515625">
        <ele>1357.800048828125</ele>
        <time>2018-08-12T08:04:04.000Z</time>
      </trkpt>
      <trkpt lat="40.66770278848707675933837890625" lon="-4.91802376694977283477783203125">
        <ele>1357.4000244140625</ele>
        <time>2018-08-12T08:04:05.000Z</time>
      </trkpt>
      <trkpt lat="40.66757722757756710052490234375" lon="-4.9179745651781558990478515625">
        <ele>1356.5999755859375</ele>
        <time>2018-08-12T08:04:08.000Z</time>
      </trkpt>
      <trkpt lat="40.66753179766237735748291015625" lon="-4.917977750301361083984375">
        <ele>1356.199951171875</ele>
        <time>2018-08-12T08:04:09.000Z</time>
      </trkpt>
      <trkpt lat="40.66748988814651966094970703125" lon="-4.91800163872539997100830078125">
        <ele>1356</ele>
        <time>2018-08-12T08:04:10.000Z</time>
      </trkpt>
      <trkpt lat="40.6674527563154697418212890625" lon="-4.91804036311805248260498046875">
        <ele>1355.4000244140625</ele>
        <time>2018-08-12T08:04:11.000Z</time>
      </trkpt>
      <trkpt lat="40.66741193644702434539794921875" lon="-4.91808512248098850250244140625">
        <ele>1354.5999755859375</ele>
        <time>2018-08-12T08:04:12.000Z</time>
      </trkpt>
      <trkpt lat="40.6673754751682281494140625" lon="-4.918119572103023529052734375">
        <ele>1353.800048828125</ele>
        <time>2018-08-12T08:04:13.000Z</time>
      </trkpt>
      <trkpt lat="40.6673367507755756378173828125" lon="-4.918144047260284423828125">
        <ele>1353.199951171875</ele>
        <time>2018-08-12T08:04:14.000Z</time>
      </trkpt>
      <trkpt lat="40.667300038039684295654296875" lon="-4.91816508583724498748779296875">
        <ele>1352.5999755859375</ele>
        <time>2018-08-12T08:04:15.000Z</time>
      </trkpt>
      <trkpt lat="40.6672639958560466766357421875" lon="-4.91818034090101718902587890625">
        <ele>1352</ele>
        <time>2018-08-12T08:04:16.000Z</time>
      </trkpt>
      <trkpt lat="40.66722736693918704986572265625" lon="-4.91819174028933048248291015625">
        <ele>1351.199951171875</ele>
        <time>2018-08-12T08:04:17.000Z</time>
      </trkpt>
      <trkpt lat="40.6671059131622314453125" lon="-4.91819433867931365966796875">
        <ele>1349.199951171875</ele>
        <time>2018-08-12T08:04:20.000Z</time>
      </trkpt>
      <trkpt lat="40.6670616567134857177734375" lon="-4.91818469949066638946533203125">
        <ele>1348.800048828125</ele>
        <time>2018-08-12T08:04:21.000Z</time>
      </trkpt>
      <trkpt lat="40.66701597534120082855224609375" lon="-4.918168522417545318603515625">
        <ele>1348.4000244140625</ele>
        <time>2018-08-12T08:04:22.000Z</time>
      </trkpt>
      <trkpt lat="40.6666906736791133880615234375" lon="-4.9179990403354167938232421875">
        <ele>1345.199951171875</ele>
        <time>2018-08-12T08:04:31.000Z</time>
      </trkpt>
      <trkpt lat="40.6665488518774509429931640625" lon="-4.9177573062479496002197265625">
        <ele>1342</ele>
        <time>2018-08-12T08:04:38.000Z</time>
      </trkpt>
      <trkpt lat="40.66643628291785717010498046875" lon="-4.91759427823126316070556640625">
        <ele>1338.800048828125</ele>
        <time>2018-08-12T08:04:43.000Z</time>
      </trkpt>
      <trkpt lat="40.6663175113499164581298828125" lon="-4.917402751743793487548828125">
        <ele>1335.4000244140625</ele>
        <time>2018-08-12T08:04:49.000Z</time>
      </trkpt>
      <trkpt lat="40.66629814915359020233154296875" lon="-4.9173677153885364532470703125">
        <ele>1335.4000244140625</ele>
        <time>2018-08-12T08:04:50.000Z</time>
      </trkpt>
      <trkpt lat="40.66614769399166107177734375" lon="-4.91716462187469005584716796875">
        <ele>1332</ele>
        <time>2018-08-12T08:04:56.000Z</time>
      </trkpt>
      <trkpt lat="40.66591358743607997894287109375" lon="-4.91694300435483455657958984375">
        <ele>1328.5999755859375</ele>
        <time>2018-08-12T08:05:02.000Z</time>
      </trkpt>
      <trkpt lat="40.6657653115689754486083984375" lon="-4.91679548285901546478271484375">
        <ele>1325.199951171875</ele>
        <time>2018-08-12T08:05:06.000Z</time>
      </trkpt>
      <trkpt lat="40.665574036538600921630859375" lon="-4.9166163615882396697998046875">
        <ele>1322.4000244140625</ele>
        <time>2018-08-12T08:05:11.000Z</time>
      </trkpt>
      <trkpt lat="40.66530724056065082550048828125" lon="-4.91636507213115692138671875">
        <ele>1319.4000244140625</ele>
        <time>2018-08-12T08:05:18.000Z</time>
      </trkpt>
      <trkpt lat="40.66524387337267398834228515625" lon="-4.91629156284034252166748046875">
        <ele>1318.800048828125</ele>
        <time>2018-08-12T08:05:20.000Z</time>
      </trkpt>
      <trkpt lat="40.66510909236967563629150390625" lon="-4.9161727912724018096923828125">
        <ele>1316.4000244140625</ele>
        <time>2018-08-12T08:05:26.000Z</time>
      </trkpt>
      <trkpt lat="40.6650786660611629486083984375" lon="-4.9161543510854244232177734375">
        <ele>1314.5999755859375</ele>
        <time>2018-08-12T08:05:36.000Z</time>
      </trkpt>
      <trkpt lat="40.6650733016431331634521484375" lon="-4.91613901220262050628662109375">
        <ele>1314.4000244140625</ele>
        <time>2018-08-12T08:06:27.000Z</time>
      </trkpt>
      <trkpt lat="40.66506651230156421661376953125" lon="-4.916142784059047698974609375">
        <ele>1314.5999755859375</ele>
        <time>2018-08-12T08:06:50.000Z</time>
      </trkpt>
      <trkpt lat="40.665055699646472930908203125" lon="-4.9161342345178127288818359375">
        <ele>1314.5999755859375</ele>
        <time>2018-08-12T08:07:51.000Z</time>
      </trkpt>
      <trkpt lat="40.6650622375309467315673828125" lon="-4.9161580391228199005126953125">
        <ele>1314.5999755859375</ele>
        <time>2018-08-12T08:08:31.000Z</time>
      </trkpt>
      <trkpt lat="40.66503985784947872161865234375" lon="-4.91614739410579204559326171875">
        <ele>1314.5999755859375</ele>
        <time>2018-08-12T08:08:36.000Z</time>
      </trkpt>
      <trkpt lat="40.66498453728854656219482421875" lon="-4.91607648320496082305908203125">
        <ele>1314.5999755859375</ele>
        <time>2018-08-12T08:08:40.000Z</time>
      </trkpt>
      <trkpt lat="40.6649606488645076751708984375" lon="-4.91604580543935298919677734375">
        <ele>1314.5999755859375</ele>
        <time>2018-08-12T08:08:41.000Z</time>
      </trkpt>
      <trkpt lat="40.66493667662143707275390625" lon="-4.91601428948342800140380859375">
        <ele>1314.5999755859375</ele>
        <time>2018-08-12T08:08:42.000Z</time>
      </trkpt>
      <trkpt lat="40.66490826196968555450439453125" lon="-4.91597137413918972015380859375">
        <ele>1314.5999755859375</ele>
        <time>2018-08-12T08:08:43.000Z</time>
      </trkpt>
      <trkpt lat="40.66466736607253551483154296875" lon="-4.9156509339809417724609375">
        <ele>1312.5999755859375</ele>
        <time>2018-08-12T08:08:52.000Z</time>
      </trkpt>
      <trkpt lat="40.6646404601633548736572265625" lon="-4.91566509939730167388916015625">
        <ele>1312.199951171875</ele>
        <time>2018-08-12T08:08:53.000Z</time>
      </trkpt>
      <trkpt lat="40.66461774520576000213623046875" lon="-4.91569594480097293853759765625">
        <ele>1312</ele>
        <time>2018-08-12T08:08:54.000Z</time>
      </trkpt>
      <trkpt lat="40.664601735770702362060546875" lon="-4.91573651321232318878173828125">
        <ele>1311.800048828125</ele>
        <time>2018-08-12T08:08:55.000Z</time>
      </trkpt>
      <trkpt lat="40.66458991728723049163818359375" lon="-4.9157748185098171234130859375">
        <ele>1311.4000244140625</ele>
        <time>2018-08-12T08:08:56.000Z</time>
      </trkpt>
      <trkpt lat="40.664575584232807159423828125" lon="-4.915813542902469635009765625">
        <ele>1311.199951171875</ele>
        <time>2018-08-12T08:08:57.000Z</time>
      </trkpt>
      <trkpt lat="40.66434114240109920501708984375" lon="-4.91634084843099117279052734375">
        <ele>1309.800048828125</ele>
        <time>2018-08-12T08:09:09.000Z</time>
      </trkpt>
      <trkpt lat="40.66430945880711078643798828125" lon="-4.9163860268890857696533203125">
        <ele>1309.800048828125</ele>
        <time>2018-08-12T08:09:10.000Z</time>
      </trkpt>
      <trkpt lat="40.66427727229893207550048828125" lon="-4.91643011569976806640625">
        <ele>1309.800048828125</ele>
        <time>2018-08-12T08:09:11.000Z</time>
      </trkpt>
      <trkpt lat="40.66399765200912952423095703125" lon="-4.91688902489840984344482421875">
        <ele>1309.4000244140625</ele>
        <time>2018-08-12T08:09:22.000Z</time>
      </trkpt>
      <trkpt lat="40.66370445303618907928466796875" lon="-4.9174625985324382781982421875">
        <ele>1310.4000244140625</ele>
        <time>2018-08-12T08:09:37.000Z</time>
      </trkpt>
      <trkpt lat="40.66334101371467113494873046875" lon="-4.9178987927734851837158203125">
        <ele>1312.5999755859375</ele>
        <time>2018-08-12T08:09:52.000Z</time>
      </trkpt>
      <trkpt lat="40.6630933284759521484375" lon="-4.9182867072522640228271484375">
        <ele>1315.199951171875</ele>
        <time>2018-08-12T08:10:07.000Z</time>
      </trkpt>
      <trkpt lat="40.6629821844398975372314453125" lon="-4.91862156428396701812744140625">
        <ele>1318.4000244140625</ele>
        <time>2018-08-12T08:10:19.000Z</time>
      </trkpt>
      <trkpt lat="40.6628678552806377410888671875" lon="-4.91894342936575412750244140625">
        <ele>1321.5999755859375</ele>
        <time>2018-08-12T08:10:32.000Z</time>
      </trkpt>
      <trkpt lat="40.6627837009727954864501953125" lon="-4.91921483539044857025146484375">
        <ele>1325</ele>
        <time>2018-08-12T08:10:45.000Z</time>
      </trkpt>
      <trkpt lat="40.6626703776419162750244140625" lon="-4.91946562193334102630615234375">
        <ele>1328.199951171875</ele>
        <time>2018-08-12T08:10:58.000Z</time>
      </trkpt>
      <trkpt lat="40.66250416450202465057373046875" lon="-4.91964482702314853668212890625">
        <ele>1331.199951171875</ele>
        <time>2018-08-12T08:11:11.000Z</time>
      </trkpt>
      <trkpt lat="40.66228958778083324432373046875" lon="-4.91987046785652637481689453125">
        <ele>1334</ele>
        <time>2018-08-12T08:11:26.000Z</time>
      </trkpt>
      <trkpt lat="40.662011392414569854736328125" lon="-4.92020708508789539337158203125">
        <ele>1336.5999755859375</ele>
        <time>2018-08-12T08:11:45.000Z</time>
      </trkpt>
      <trkpt lat="40.661682151257991790771484375" lon="-4.920569099485874176025390625">
        <ele>1338.800048828125</ele>
        <time>2018-08-12T08:12:04.000Z</time>
      </trkpt>
      <trkpt lat="40.66145692951977252960205078125" lon="-4.920983500778675079345703125">
        <ele>1339.5999755859375</ele>
        <time>2018-08-12T08:12:19.000Z</time>
      </trkpt>
      <trkpt lat="40.66126096062362194061279296875" lon="-4.92156629450619220733642578125">
        <ele>1342.199951171875</ele>
        <time>2018-08-12T08:12:38.000Z</time>
      </trkpt>
      <trkpt lat="40.6610395945608615875244140625" lon="-4.922266267240047454833984375">
        <ele>1345.199951171875</ele>
        <time>2018-08-12T08:13:01.000Z</time>
      </trkpt>
      <trkpt lat="40.660832561552524566650390625" lon="-4.9227535910904407501220703125">
        <ele>1348.4000244140625</ele>
        <time>2018-08-12T08:13:18.000Z</time>
      </trkpt>
      <trkpt lat="40.66056241281330585479736328125" lon="-4.9232179485261440277099609375">
        <ele>1351.4000244140625</ele>
        <time>2018-08-12T08:13:36.000Z</time>
      </trkpt>
      <trkpt lat="40.6602389551699161529541015625" lon="-4.92371038533747196197509765625">
        <ele>1353.800048828125</ele>
        <time>2018-08-12T08:13:55.000Z</time>
      </trkpt>
      <trkpt lat="40.65990979783236980438232421875" lon="-4.924255795776844024658203125">
        <ele>1354</ele>
        <time>2018-08-12T08:14:08.000Z</time>
      </trkpt>
      <trkpt lat="40.6592911295592784881591796875" lon="-4.925242848694324493408203125">
        <ele>1353</ele>
        <time>2018-08-12T08:14:28.000Z</time>
      </trkpt>
      <trkpt lat="40.6587271951138973236083984375" lon="-4.9257697351276874542236328125">
        <ele>1353.4000244140625</ele>
        <time>2018-08-12T08:14:43.000Z</time>
      </trkpt>
      <trkpt lat="40.658169798552989959716796875" lon="-4.92611490190029144287109375">
        <ele>1354</ele>
        <time>2018-08-12T08:14:58.000Z</time>
      </trkpt>
      <trkpt lat="40.6578273139894008636474609375" lon="-4.92634196765720844268798828125">
        <ele>1355.800048828125</ele>
        <time>2018-08-12T08:15:11.000Z</time>
      </trkpt>
      <trkpt lat="40.65754643641412258148193359375" lon="-4.926542378962039947509765625">
        <ele>1358.800048828125</ele>
        <time>2018-08-12T08:15:23.000Z</time>
      </trkpt>
      <trkpt lat="40.657499916851520538330078125" lon="-4.92657867260277271270751953125">
        <ele>1359.5999755859375</ele>
        <time>2018-08-12T08:15:25.000Z</time>
      </trkpt>
      <trkpt lat="40.657233037054538726806640625" lon="-4.92678754962980747222900390625">
        <ele>1362.4000244140625</ele>
        <time>2018-08-12T08:15:37.000Z</time>
      </trkpt>
      <trkpt lat="40.65688124857842922210693359375" lon="-4.92717546410858631134033203125">
        <ele>1365.4000244140625</ele>
        <time>2018-08-12T08:15:54.000Z</time>
      </trkpt>
      <trkpt lat="40.65670422278344631195068359375" lon="-4.9275111593306064605712890625">
        <ele>1367.4000244140625</ele>
        <time>2018-08-12T08:16:08.000Z</time>
      </trkpt>
      <trkpt lat="40.65650976262986660003662109375" lon="-4.9278789572417736053466796875">
        <ele>1369.5999755859375</ele>
        <time>2018-08-12T08:16:24.000Z</time>
      </trkpt>
      <trkpt lat="40.656315051019191741943359375" lon="-4.9282762594521045684814453125">
        <ele>1371.4000244140625</ele>
        <time>2018-08-12T08:16:41.000Z</time>
      </trkpt>
      <trkpt lat="40.65620231442153453826904296875" lon="-4.92877892218530178070068359375">
        <ele>1372.800048828125</ele>
        <time>2018-08-12T08:16:55.000Z</time>
      </trkpt>
      <trkpt lat="40.65606669522821903228759765625" lon="-4.92963907308876514434814453125">
        <ele>1372.5999755859375</ele>
        <time>2018-08-12T08:17:10.000Z</time>
      </trkpt>
      <trkpt lat="40.6557749211788177490234375" lon="-4.93039813823997974395751953125">
        <ele>1372.800048828125</ele>
        <time>2018-08-12T08:17:25.000Z</time>
      </trkpt>
      <trkpt lat="40.655661933124065399169921875" lon="-4.930608272552490234375">
        <ele>1372.800048828125</ele>
        <time>2018-08-12T08:17:30.000Z</time>
      </trkpt>
      <trkpt lat="40.65520972944796085357666015625" lon="-4.93111931718885898590087890625">
        <ele>1372</ele>
        <time>2018-08-12T08:17:42.000Z</time>
      </trkpt>
      <trkpt lat="40.65491233952343463897705078125" lon="-4.931759946048259735107421875">
        <ele>1371.5999755859375</ele>
        <time>2018-08-12T08:17:54.000Z</time>
      </trkpt>
      <trkpt lat="40.65445200540125370025634765625" lon="-4.93252630345523357391357421875">
        <ele>1372.5999755859375</ele>
        <time>2018-08-12T08:18:10.000Z</time>
      </trkpt>
      <trkpt lat="40.65403291024267673492431640625" lon="-4.93322468362748622894287109375">
        <ele>1372.800048828125</ele>
        <time>2018-08-12T08:18:25.000Z</time>
      </trkpt>
      <trkpt lat="40.65390349365770816802978515625" lon="-4.93369474075734615325927734375">
        <ele>1376</ele>
        <time>2018-08-12T08:18:39.000Z</time>
      </trkpt>
      <trkpt lat="40.65386393107473850250244140625" lon="-4.93402398191392421722412109375">
        <ele>1379</ele>
        <time>2018-08-12T08:18:50.000Z</time>
      </trkpt>
      <trkpt lat="40.65382235683500766754150390625" lon="-4.93437736295163631439208984375">
        <ele>1381</ele>
        <time>2018-08-12T08:19:02.000Z</time>
      </trkpt>
      <trkpt lat="40.65377675928175449371337890625" lon="-4.9348054267466068267822265625">
        <ele>1382.800048828125</ele>
        <time>2018-08-12T08:19:17.000Z</time>
      </trkpt>
      <trkpt lat="40.6537359394133090972900390625" lon="-4.93518772535026073455810546875">
        <ele>1384.5999755859375</ele>
        <time>2018-08-12T08:19:30.000Z</time>
      </trkpt>
      <trkpt lat="40.65368908457458019256591796875" lon="-4.9356285296380519866943359375">
        <ele>1387</ele>
        <time>2018-08-12T08:19:44.000Z</time>
      </trkpt>
      <trkpt lat="40.65363862551748752593994140625" lon="-4.93612599559128284454345703125">
        <ele>1388.5999755859375</ele>
        <time>2018-08-12T08:19:59.000Z</time>
      </trkpt>
      <trkpt lat="40.653528235852718353271484375" lon="-4.9365766905248165130615234375">
        <ele>1390.199951171875</ele>
        <time>2018-08-12T08:20:13.000Z</time>
      </trkpt>
      <trkpt lat="40.65324090421199798583984375" lon="-4.93695563636720180511474609375">
        <ele>1390.4000244140625</ele>
        <time>2018-08-12T08:20:27.000Z</time>
      </trkpt>
      <trkpt lat="40.6528414227068424224853515625" lon="-4.9372170679271221160888671875">
        <ele>1391.4000244140625</ele>
        <time>2018-08-12T08:20:41.000Z</time>
      </trkpt>
      <trkpt lat="40.65220816992223262786865234375" lon="-4.937480427324771881103515625">
        <ele>1391.5999755859375</ele>
        <time>2018-08-12T08:21:00.000Z</time>
      </trkpt>
      <trkpt lat="40.65162965096533298492431640625" lon="-4.93776733987033367156982421875">
        <ele>1393.800048828125</ele>
        <time>2018-08-12T08:21:19.000Z</time>
      </trkpt>
      <trkpt lat="40.65127618610858917236328125" lon="-4.93811150081455707550048828125">
        <ele>1397</ele>
        <time>2018-08-12T08:21:35.000Z</time>
      </trkpt>
      <trkpt lat="40.65102162770926952362060546875" lon="-4.9383657239377498626708984375">
        <ele>1400</ele>
        <time>2018-08-12T08:21:49.000Z</time>
      </trkpt>
      <trkpt lat="40.650821216404438018798828125" lon="-4.938577115535736083984375">
        <ele>1402.4000244140625</ele>
        <time>2018-08-12T08:22:02.000Z</time>
      </trkpt>
      <trkpt lat="40.65055576153099536895751953125" lon="-4.938861764967441558837890625">
        <ele>1405.4000244140625</ele>
        <time>2018-08-12T08:22:19.000Z</time>
      </trkpt>
      <trkpt lat="40.65036532469093799591064453125" lon="-4.93910693563520908355712890625">
        <ele>1408.4000244140625</ele>
        <time>2018-08-12T08:22:34.000Z</time>
      </trkpt>
      <trkpt lat="40.650232471525669097900390625" lon="-4.93931899778544902801513671875">
        <ele>1411.5999755859375</ele>
        <time>2018-08-12T08:22:47.000Z</time>
      </trkpt>
      <trkpt lat="40.65011319704353809356689453125" lon="-4.93955838494002819061279296875">
        <ele>1414.5999755859375</ele>
        <time>2018-08-12T08:23:01.000Z</time>
      </trkpt>
      <trkpt lat="40.64996056258678436279296875" lon="-4.93986717425286769866943359375">
        <ele>1417.5999755859375</ele>
        <time>2018-08-12T08:23:17.000Z</time>
      </trkpt>
      <trkpt lat="40.64983558841049671173095703125" lon="-4.94010421447455883026123046875">
        <ele>1420.800048828125</ele>
        <time>2018-08-12T08:23:31.000Z</time>
      </trkpt>
      <trkpt lat="40.6496407091617584228515625" lon="-4.94048709981143474578857421875">
        <ele>1422.199951171875</ele>
        <time>2018-08-12T08:23:49.000Z</time>
      </trkpt>
      <trkpt lat="40.64948623068630695343017578125" lon="-4.94073034264147281646728515625">
        <ele>1422.4000244140625</ele>
        <time>2018-08-12T08:23:59.000Z</time>
      </trkpt>
      <trkpt lat="40.64923225902020931243896484375" lon="-4.941224120557308197021484375">
        <ele>1421.800048828125</ele>
        <time>2018-08-12T08:24:09.000Z</time>
      </trkpt>
      <trkpt lat="40.64904953353106975555419921875" lon="-4.9421028792858123779296875">
        <ele>1420</ele>
        <time>2018-08-12T08:24:18.000Z</time>
      </trkpt>
      <trkpt lat="40.64896236173808574676513671875" lon="-4.94259162805974483489990234375">
        <ele>1416.5999755859375</ele>
        <time>2018-08-12T08:24:22.000Z</time>
      </trkpt>
      <trkpt lat="40.6488114036619663238525390625" lon="-4.94322882033884525299072265625">
        <ele>1413.4000244140625</ele>
        <time>2018-08-12T08:24:27.000Z</time>
      </trkpt>
      <trkpt lat="40.6487108208239078521728515625" lon="-4.94361757300794124603271484375">
        <ele>1410</ele>
        <time>2018-08-12T08:24:30.000Z</time>
      </trkpt>
      <trkpt lat="40.648612082004547119140625" lon="-4.94401118718087673187255859375">
        <ele>1406.5999755859375</ele>
        <time>2018-08-12T08:24:33.000Z</time>
      </trkpt>
      <trkpt lat="40.64837093465030193328857421875" lon="-4.94492925703525543212890625">
        <ele>1403.199951171875</ele>
        <time>2018-08-12T08:24:40.000Z</time>
      </trkpt>
      <trkpt lat="40.64822542481124401092529296875" lon="-4.94542772881686687469482421875">
        <ele>1401.4000244140625</ele>
        <time>2018-08-12T08:24:44.000Z</time>
      </trkpt>
      <trkpt lat="40.64802191220223903656005859375" lon="-4.94612895883619785308837890625">
        <ele>1398</ele>
        <time>2018-08-12T08:24:50.000Z</time>
      </trkpt>
      <trkpt lat="40.64798888750374317169189453125" lon="-4.94624412618577480316162109375">
        <ele>1397.800048828125</ele>
        <time>2018-08-12T08:24:51.000Z</time>
      </trkpt>
      <trkpt lat="40.64756400883197784423828125" lon="-4.94773660786449909210205078125">
        <ele>1395.800048828125</ele>
        <time>2018-08-12T08:25:05.000Z</time>
      </trkpt>
      <trkpt lat="40.64723434858024120330810546875" lon="-4.948928765952587127685546875">
        <ele>1394</ele>
        <time>2018-08-12T08:25:18.000Z</time>
      </trkpt>
      <trkpt lat="40.64694886095821857452392578125" lon="-4.9499830417335033416748046875">
        <ele>1392</ele>
        <time>2018-08-12T08:25:26.000Z</time>
      </trkpt>
      <trkpt lat="40.64675708301365375518798828125" lon="-4.950474388897418975830078125">
        <ele>1389</ele>
        <time>2018-08-12T08:25:31.000Z</time>
      </trkpt>
      <trkpt lat="40.64651124179363250732421875" lon="-4.95077974162995815277099609375">
        <ele>1389</ele>
        <time>2018-08-12T08:25:39.000Z</time>
      </trkpt>
      <trkpt lat="40.64627428539097309112548828125" lon="-4.9509231559932231903076171875">
        <ele>1392</ele>
        <time>2018-08-12T08:25:47.000Z</time>
      </trkpt>
      <trkpt lat="40.64623287878930568695068359375" lon="-4.9509613774716854095458984375">
        <ele>1392.4000244140625</ele>
        <time>2018-08-12T08:25:50.000Z</time>
      </trkpt>
      <trkpt lat="40.6462327949702739715576171875" lon="-4.95098090730607509613037109375">
        <ele>1393</ele>
        <time>2018-08-12T08:26:01.000Z</time>
      </trkpt>
      <trkpt lat="40.64623405225574970245361328125" lon="-4.9509675800800323486328125">
        <ele>1393.199951171875</ele>
        <time>2018-08-12T08:26:53.000Z</time>
      </trkpt>
      <trkpt lat="40.64624025486409664154052734375" lon="-4.95097654871642589569091796875">
        <ele>1393.199951171875</ele>
        <time>2018-08-12T08:27:51.000Z</time>
      </trkpt>
      <trkpt lat="40.64624570310115814208984375" lon="-4.95097269304096698760986328125">
        <ele>1393.199951171875</ele>
        <time>2018-08-12T08:28:20.000Z</time>
      </trkpt>
      <trkpt lat="40.64624628983438014984130859375" lon="-4.9509764648973941802978515625">
        <ele>1393.199951171875</ele>
        <time>2018-08-12T08:28:59.000Z</time>
      </trkpt>
      <trkpt lat="40.64624369144439697265625" lon="-4.95096229948103427886962890625">
        <ele>1393.199951171875</ele>
        <time>2018-08-12T08:30:05.000Z</time>
      </trkpt>
      <trkpt lat="40.646250732243061065673828125" lon="-4.95096883736550807952880859375">
        <ele>1393.199951171875</ele>
        <time>2018-08-12T08:30:06.000Z</time>
      </trkpt>
      <trkpt lat="40.64626171253621578216552734375" lon="-4.950977973639965057373046875">
        <ele>1393.199951171875</ele>
        <time>2018-08-12T08:30:07.000Z</time>
      </trkpt>
      <trkpt lat="40.6462740339338779449462890625" lon="-4.950986020267009735107421875">
        <ele>1393.199951171875</ele>
        <time>2018-08-12T08:30:08.000Z</time>
      </trkpt>
      <trkpt lat="40.646392889320850372314453125" lon="-4.95099951513111591339111328125">
        <ele>1393.199951171875</ele>
        <time>2018-08-12T08:30:17.000Z</time>
      </trkpt>
      <trkpt lat="40.64660687930881977081298828125" lon="-4.9510757066309452056884765625">
        <ele>1394.199951171875</ele>
        <time>2018-08-12T08:30:28.000Z</time>
      </trkpt>
      <trkpt lat="40.6469144113361835479736328125" lon="-4.9512155167758464813232421875">
        <ele>1395.800048828125</ele>
        <time>2018-08-12T08:30:43.000Z</time>
      </trkpt>
      <trkpt lat="40.64724608324468135833740234375" lon="-4.95131232775747776031494140625">
        <ele>1396.800048828125</ele>
        <time>2018-08-12T08:30:58.000Z</time>
      </trkpt>
      <trkpt lat="40.64771823585033416748046875" lon="-4.9514109827578067779541015625">
        <ele>1398.4000244140625</ele>
        <time>2018-08-12T08:31:15.000Z</time>
      </trkpt>
      <trkpt lat="40.6482179649174213409423828125" lon="-4.95154090225696563720703125">
        <ele>1399.800048828125</ele>
        <time>2018-08-12T08:31:31.000Z</time>
      </trkpt>
      <trkpt lat="40.64884233288466930389404296875" lon="-4.951726309955120086669921875">
        <ele>1400.199951171875</ele>
        <time>2018-08-12T08:31:49.000Z</time>
      </trkpt>
      <trkpt lat="40.6493483483791351318359375" lon="-4.95185329578816890716552734375">
        <ele>1401.4000244140625</ele>
        <time>2018-08-12T08:32:04.000Z</time>
      </trkpt>
      <trkpt lat="40.64989761449396610260009765625" lon="-4.95211347006261348724365234375">
        <ele>1403</ele>
        <time>2018-08-12T08:32:20.000Z</time>
      </trkpt>
      <trkpt lat="40.65024730749428272247314453125" lon="-4.95235822163522243499755859375">
        <ele>1403.800048828125</ele>
        <time>2018-08-12T08:32:33.000Z</time>
      </trkpt>
      <trkpt lat="40.6504748761653900146484375" lon="-4.95263398624956607818603515625">
        <ele>1407.199951171875</ele>
        <time>2018-08-12T08:32:48.000Z</time>
      </trkpt>
      <trkpt lat="40.65062030218541622161865234375" lon="-4.95289265178143978118896484375">
        <ele>1409.800048828125</ele>
        <time>2018-08-12T08:33:02.000Z</time>
      </trkpt>
      <trkpt lat="40.6507322005927562713623046875" lon="-4.953151233494281768798828125">
        <ele>1412.800048828125</ele>
        <time>2018-08-12T08:33:16.000Z</time>
      </trkpt>
      <trkpt lat="40.65080814063549041748046875" lon="-4.95338466949760913848876953125">
        <ele>1414.5999755859375</ele>
        <time>2018-08-12T08:33:28.000Z</time>
      </trkpt>
      <trkpt lat="40.6508398242294788360595703125" lon="-4.95368557982146739959716796875">
        <ele>1417</ele>
        <time>2018-08-12T08:33:42.000Z</time>
      </trkpt>
      <trkpt lat="40.65080554224550724029541015625" lon="-4.95406947098672389984130859375">
        <ele>1420.199951171875</ele>
        <time>2018-08-12T08:33:58.000Z</time>
      </trkpt>
      <trkpt lat="40.65073974430561065673828125" lon="-4.954402483999729156494140625">
        <ele>1422.800048828125</ele>
        <time>2018-08-12T08:34:14.000Z</time>
      </trkpt>
      <trkpt lat="40.65068283118307590484619140625" lon="-4.95479534380137920379638671875">
        <ele>1425.800048828125</ele>
        <time>2018-08-12T08:34:33.000Z</time>
      </trkpt>
      <trkpt lat="40.650634132325649261474609375" lon="-4.9552086554467678070068359375">
        <ele>1428.800048828125</ele>
        <time>2018-08-12T08:34:53.000Z</time>
      </trkpt>
      <trkpt lat="40.6505960784852504730224609375" lon="-4.95552959851920604705810546875">
        <ele>1431</ele>
        <time>2018-08-12T08:35:08.000Z</time>
      </trkpt>
      <trkpt lat="40.65055173821747303009033203125" lon="-4.95593293569982051849365234375">
        <ele>1433.5999755859375</ele>
        <time>2018-08-12T08:35:26.000Z</time>
      </trkpt>
      <trkpt lat="40.6505079008638858795166015625" lon="-4.9563439004123210906982421875">
        <ele>1435.199951171875</ele>
        <time>2018-08-12T08:35:42.000Z</time>
      </trkpt>
      <trkpt lat="40.6504395045340061187744140625" lon="-4.9568478204309940338134765625">
        <ele>1437.5999755859375</ele>
        <time>2018-08-12T08:36:02.000Z</time>
      </trkpt>
      <trkpt lat="40.65034219063818454742431640625" lon="-4.95730899274349212646484375">
        <ele>1440.4000244140625</ele>
        <time>2018-08-12T08:36:22.000Z</time>
      </trkpt>
      <trkpt lat="40.65029793418943881988525390625" lon="-4.95767109096050262451171875">
        <ele>1442</ele>
        <time>2018-08-12T08:36:36.000Z</time>
      </trkpt>
      <trkpt lat="40.65029843710362911224365234375" lon="-4.9583200179040431976318359375">
        <ele>1442.800048828125</ele>
        <time>2018-08-12T08:36:54.000Z</time>
      </trkpt>
      <trkpt lat="40.65033565275371074676513671875" lon="-4.95880172587931156158447265625">
        <ele>1443.4000244140625</ele>
        <time>2018-08-12T08:37:08.000Z</time>
      </trkpt>
      <trkpt lat="40.65029541961848735809326171875" lon="-4.95937186293303966522216796875">
        <ele>1445.199951171875</ele>
        <time>2018-08-12T08:37:26.000Z</time>
      </trkpt>
      <trkpt lat="40.6502272747457027435302734375" lon="-4.95975273661315441131591796875">
        <ele>1448.4000244140625</ele>
        <time>2018-08-12T08:37:42.000Z</time>
      </trkpt>
      <trkpt lat="40.65012878738343715667724609375" lon="-4.96011198498308658599853515625">
        <ele>1451.5999755859375</ele>
        <time>2018-08-12T08:37:59.000Z</time>
      </trkpt>
      <trkpt lat="40.65002837218344211578369140625" lon="-4.96045161969959735870361328125">
        <ele>1454.199951171875</ele>
        <time>2018-08-12T08:38:16.000Z</time>
      </trkpt>
      <trkpt lat="40.64995880238711833953857421875" lon="-4.9608074314892292022705078125">
        <ele>1456.800048828125</ele>
        <time>2018-08-12T08:38:34.000Z</time>
      </trkpt>
      <trkpt lat="40.649903900921344757080078125" lon="-4.9611296318471431732177734375">
        <ele>1459.800048828125</ele>
        <time>2018-08-12T08:38:50.000Z</time>
      </trkpt>
      <trkpt lat="40.64986458979547023773193359375" lon="-4.9615167081356048583984375">
        <ele>1462.800048828125</ele>
        <time>2018-08-12T08:39:07.000Z</time>
      </trkpt>
      <trkpt lat="40.64989618957042694091796875" lon="-4.96197226457297801971435546875">
        <ele>1466</ele>
        <time>2018-08-12T08:39:27.000Z</time>
      </trkpt>
      <trkpt lat="40.64994178712368011474609375" lon="-4.96239303611218929290771484375">
        <ele>1467.5999755859375</ele>
        <time>2018-08-12T08:39:45.000Z</time>
      </trkpt>
      <trkpt lat="40.6499912403523921966552734375" lon="-4.96277072466909885406494140625">
        <ele>1469.5999755859375</ele>
        <time>2018-08-12T08:40:02.000Z</time>
      </trkpt>
      <trkpt lat="40.65003030002117156982421875" lon="-4.9631148017942905426025390625">
        <ele>1471.4000244140625</ele>
        <time>2018-08-12T08:40:17.000Z</time>
      </trkpt>
      <trkpt lat="40.65004463307559490203857421875" lon="-4.9635310471057891845703125">
        <ele>1472.800048828125</ele>
        <time>2018-08-12T08:40:33.000Z</time>
      </trkpt>
      <trkpt lat="40.65002820454537868499755859375" lon="-4.96389113366603851318359375">
        <ele>1474.5999755859375</ele>
        <time>2018-08-12T08:40:49.000Z</time>
      </trkpt>
      <trkpt lat="40.6499966047704219818115234375" lon="-4.964189864695072174072265625">
        <ele>1476</ele>
        <time>2018-08-12T08:41:01.000Z</time>
      </trkpt>
      <trkpt lat="40.64994539134204387664794921875" lon="-4.96452891267836093902587890625">
        <ele>1478.199951171875</ele>
        <time>2018-08-12T08:41:16.000Z</time>
      </trkpt>
      <trkpt lat="40.6498873047530651092529296875" lon="-4.9648823775351047515869140625">
        <ele>1481.199951171875</ele>
        <time>2018-08-12T08:41:32.000Z</time>
      </trkpt>
      <trkpt lat="40.64980759285390377044677734375" lon="-4.9652622453868389129638671875">
        <ele>1484.199951171875</ele>
        <time>2018-08-12T08:41:48.000Z</time>
      </trkpt>
      <trkpt lat="40.64970231615006923675537109375" lon="-4.9659066461026668548583984375">
        <ele>1485</ele>
        <time>2018-08-12T08:42:06.000Z</time>
      </trkpt>
      <trkpt lat="40.64957893453538417816162109375" lon="-4.96649631299078464508056640625">
        <ele>1485.800048828125</ele>
        <time>2018-08-12T08:42:23.000Z</time>
      </trkpt>
      <trkpt lat="40.64947365783154964447021484375" lon="-4.96684558689594268798828125">
        <ele>1487.5999755859375</ele>
        <time>2018-08-12T08:42:37.000Z</time>
      </trkpt>
      <trkpt lat="40.6493652798235416412353515625" lon="-4.96719754301011562347412109375">
        <ele>1490.5999755859375</ele>
        <time>2018-08-12T08:42:52.000Z</time>
      </trkpt>
      <trkpt lat="40.64933032728731632232666015625" lon="-4.967518486082553863525390625">
        <ele>1493.199951171875</ele>
        <time>2018-08-12T08:43:07.000Z</time>
      </trkpt>
      <trkpt lat="40.64948220737278461456298828125" lon="-4.96781654655933380126953125">
        <ele>1496.199951171875</ele>
        <time>2018-08-12T08:43:26.000Z</time>
      </trkpt>
      <trkpt lat="40.6496817804872989654541015625" lon="-4.96795409359037876129150390625">
        <ele>1499.199951171875</ele>
        <time>2018-08-12T08:43:40.000Z</time>
      </trkpt>
      <trkpt lat="40.64991689287126064300537109375" lon="-4.96796499006450176239013671875">
        <ele>1501.5999755859375</ele>
        <time>2018-08-12T08:43:54.000Z</time>
      </trkpt>
      <trkpt lat="40.65020757727324962615966796875" lon="-4.967814870178699493408203125">
        <ele>1503</ele>
        <time>2018-08-12T08:44:13.000Z</time>
      </trkpt>
      <trkpt lat="40.6504646502435207366943359375" lon="-4.96755545027554035186767578125">
        <ele>1506.199951171875</ele>
        <time>2018-08-12T08:44:34.000Z</time>
      </trkpt>
      <trkpt lat="40.6506255827844142913818359375" lon="-4.96736836619675159454345703125">
        <ele>1508.5999755859375</ele>
        <time>2018-08-12T08:44:49.000Z</time>
      </trkpt>
      <trkpt lat="40.65079531632363796234130859375" lon="-4.967131577432155609130859375">
        <ele>1511.5999755859375</ele>
        <time>2018-08-12T08:45:07.000Z</time>
      </trkpt>
      <trkpt lat="40.65090042538940906524658203125" lon="-4.96696402318775653839111328125">
        <ele>1514</ele>
        <time>2018-08-12T08:45:19.000Z</time>
      </trkpt>
      <trkpt lat="40.65098038874566555023193359375" lon="-4.9668192677199840545654296875">
        <ele>1516.4000244140625</ele>
        <time>2018-08-12T08:45:31.000Z</time>
      </trkpt>
      <trkpt lat="40.65107661299407482147216796875" lon="-4.9666278250515460968017578125">
        <ele>1518</ele>
        <time>2018-08-12T08:45:44.000Z</time>
      </trkpt>
      <trkpt lat="40.65118775703012943267822265625" lon="-4.96638298965990543365478515625">
        <ele>1520.5999755859375</ele>
        <time>2018-08-12T08:46:01.000Z</time>
      </trkpt>
      <trkpt lat="40.651289261877536773681640625" lon="-4.9662003479897975921630859375">
        <ele>1522.800048828125</ele>
        <time>2018-08-12T08:46:15.000Z</time>
      </trkpt>
      <trkpt lat="40.65142965875566005706787109375" lon="-4.96596070937812328338623046875">
        <ele>1525.5999755859375</ele>
        <time>2018-08-12T08:46:33.000Z</time>
      </trkpt>
      <trkpt lat="40.651550777256488800048828125" lon="-4.96579826809465885162353515625">
        <ele>1528</ele>
        <time>2018-08-12T08:46:47.000Z</time>
      </trkpt>
      <trkpt lat="40.6516867317259311676025390625" lon="-4.96564823202788829803466796875">
        <ele>1530</ele>
        <time>2018-08-12T08:47:01.000Z</time>
      </trkpt>
      <trkpt lat="40.6518815271556377410888671875" lon="-4.96551596559584140777587890625">
        <ele>1531.800048828125</ele>
        <time>2018-08-12T08:47:18.000Z</time>
      </trkpt>
      <trkpt lat="40.65206877887248992919921875" lon="-4.96544991619884967803955078125">
        <ele>1534</ele>
        <time>2018-08-12T08:47:33.000Z</time>
      </trkpt>
      <trkpt lat="40.65222392790019512176513671875" lon="-4.965416304767131805419921875">
        <ele>1535.5999755859375</ele>
        <time>2018-08-12T08:47:45.000Z</time>
      </trkpt>
      <trkpt lat="40.6524900533258914947509765625" lon="-4.96536433696746826171875">
        <ele>1537.199951171875</ele>
        <time>2018-08-12T08:48:03.000Z</time>
      </trkpt>
      <trkpt lat="40.65268166363239288330078125" lon="-4.96530926786363124847412109375">
        <ele>1538.199951171875</ele>
        <time>2018-08-12T08:48:16.000Z</time>
      </trkpt>
      <trkpt lat="40.65286430530250072479248046875" lon="-4.9652535282075405120849609375">
        <ele>1539.5999755859375</ele>
        <time>2018-08-12T08:48:29.000Z</time>
      </trkpt>
      <trkpt lat="40.65304116345942020416259765625" lon="-4.96517465449869632720947265625">
        <ele>1542</ele>
        <time>2018-08-12T08:48:44.000Z</time>
      </trkpt>
      <trkpt lat="40.65317594446241855621337890625" lon="-4.96511329896748065948486328125">
        <ele>1543.5999755859375</ele>
        <time>2018-08-12T08:48:55.000Z</time>
      </trkpt>
      <trkpt lat="40.6533607654273509979248046875" lon="-4.96500483714044094085693359375">
        <ele>1545</ele>
        <time>2018-08-12T08:49:10.000Z</time>
      </trkpt>
      <trkpt lat="40.65350250340998172760009765625" lon="-4.964937865734100341796875">
        <ele>1547.199951171875</ele>
        <time>2018-08-12T08:49:22.000Z</time>
      </trkpt>
      <trkpt lat="40.6536635197699069976806640625" lon="-4.96487776748836040496826171875">
        <ele>1549.199951171875</ele>
        <time>2018-08-12T08:49:36.000Z</time>
      </trkpt>
      <trkpt lat="40.6538107059895992279052734375" lon="-4.9648438207805156707763671875">
        <ele>1551.199951171875</ele>
        <time>2018-08-12T08:49:48.000Z</time>
      </trkpt>
      <trkpt lat="40.6540403701364994049072265625" lon="-4.964776933193206787109375">
        <ele>1554.4000244140625</ele>
        <time>2018-08-12T08:50:07.000Z</time>
      </trkpt>
      <trkpt lat="40.65421228297054767608642578125" lon="-4.96470660902559757232666015625">
        <ele>1556.800048828125</ele>
        <time>2018-08-12T08:50:22.000Z</time>
      </trkpt>
      <trkpt lat="40.65436114557087421417236328125" lon="-4.9646527133882045745849609375">
        <ele>1558.5999755859375</ele>
        <time>2018-08-12T08:50:35.000Z</time>
      </trkpt>
      <trkpt lat="40.654521994292736053466796875" lon="-4.96461373753845691680908203125">
        <ele>1560.199951171875</ele>
        <time>2018-08-12T08:50:49.000Z</time>
      </trkpt>
      <trkpt lat="40.65474889241158962249755859375" lon="-4.96455523185431957244873046875">
        <ele>1562.199951171875</ele>
        <time>2018-08-12T08:51:06.000Z</time>
      </trkpt>
      <trkpt lat="40.65492994152009487152099609375" lon="-4.96446789242327213287353515625">
        <ele>1563.800048828125</ele>
        <time>2018-08-12T08:51:21.000Z</time>
      </trkpt>
      <trkpt lat="40.65507712773978710174560546875" lon="-4.9643747694790363311767578125">
        <ele>1566</ele>
        <time>2018-08-12T08:51:35.000Z</time>
      </trkpt>
      <trkpt lat="40.65529723651707172393798828125" lon="-4.96422708034515380859375">
        <ele>1569</ele>
        <time>2018-08-12T08:51:55.000Z</time>
      </trkpt>
      <trkpt lat="40.65547040663659572601318359375" lon="-4.96410369873046875">
        <ele>1571.4000244140625</ele>
        <time>2018-08-12T08:52:11.000Z</time>
      </trkpt>
      <trkpt lat="40.65564324147999286651611328125" lon="-4.96402448974549770355224609375">
        <ele>1574.199951171875</ele>
        <time>2018-08-12T08:52:26.000Z</time>
      </trkpt>
      <trkpt lat="40.655806772410869598388671875" lon="-4.9640036188066005706787109375">
        <ele>1576.4000244140625</ele>
        <time>2018-08-12T08:52:40.000Z</time>
      </trkpt>
      <trkpt lat="40.65602310933172702789306640625" lon="-4.9640512280166149139404296875">
        <ele>1577.800048828125</ele>
        <time>2018-08-12T08:52:53.000Z</time>
      </trkpt>
      <trkpt lat="40.6562119536101818084716796875" lon="-4.964116103947162628173828125">
        <ele>1578.5999755859375</ele>
        <time>2018-08-12T08:53:04.000Z</time>
      </trkpt>
      <trkpt lat="40.65655921585857868194580078125" lon="-4.96414854191243648529052734375">
        <ele>1579.199951171875</ele>
        <time>2018-08-12T08:53:20.000Z</time>
      </trkpt>
      <trkpt lat="40.65681486390531063079833984375" lon="-4.964154660701751708984375">
        <ele>1580.800048828125</ele>
        <time>2018-08-12T08:53:32.000Z</time>
      </trkpt>
      <trkpt lat="40.657036565244197845458984375" lon="-4.96433311142027378082275390625">
        <ele>1582</ele>
        <time>2018-08-12T08:53:43.000Z</time>
      </trkpt>
      <trkpt lat="40.6569954939186573028564453125" lon="-4.96463854797184467315673828125">
        <ele>1583</ele>
        <time>2018-08-12T08:53:53.000Z</time>
      </trkpt>
      <trkpt lat="40.65692617557942867279052734375" lon="-4.9650506861507892608642578125">
        <ele>1584.4000244140625</ele>
        <time>2018-08-12T08:54:08.000Z</time>
      </trkpt>
      <trkpt lat="40.65696054138243198394775390625" lon="-4.96540934778749942779541015625">
        <ele>1586.5999755859375</ele>
        <time>2018-08-12T08:54:23.000Z</time>
      </trkpt>
      <trkpt lat="40.65701904706656932830810546875" lon="-4.965746216475963592529296875">
        <ele>1589.199951171875</ele>
        <time>2018-08-12T08:54:39.000Z</time>
      </trkpt>
      <trkpt lat="40.65706632100045680999755859375" lon="-4.96601485647261142730712890625">
        <ele>1591.4000244140625</ele>
        <time>2018-08-12T08:54:54.000Z</time>
      </trkpt>
      <trkpt lat="40.657078139483928680419921875" lon="-4.96630470268428325653076171875">
        <ele>1593.5999755859375</ele>
        <time>2018-08-12T08:55:11.000Z</time>
      </trkpt>
      <trkpt lat="40.65703664906322956085205078125" lon="-4.96649614535272121429443359375">
        <ele>1595.5999755859375</ele>
        <time>2018-08-12T08:55:24.000Z</time>
      </trkpt>
      <trkpt lat="40.65692231990396976470947265625" lon="-4.96672899462282657623291015625">
        <ele>1597.4000244140625</ele>
        <time>2018-08-12T08:55:40.000Z</time>
      </trkpt>
      <trkpt lat="40.656792819499969482421875" lon="-4.96690618805587291717529296875">
        <ele>1599</ele>
        <time>2018-08-12T08:55:55.000Z</time>
      </trkpt>
      <trkpt lat="40.65668393857777118682861328125" lon="-4.96704013086855411529541015625">
        <ele>1601.199951171875</ele>
        <time>2018-08-12T08:56:09.000Z</time>
      </trkpt>
      <trkpt lat="40.65655435435473918914794921875" lon="-4.96723542921245098114013671875">
        <ele>1604.199951171875</ele>
        <time>2018-08-12T08:56:27.000Z</time>
      </trkpt>
      <trkpt lat="40.6564727984368801116943359375" lon="-4.967440702021121978759765625">
        <ele>1606.800048828125</ele>
        <time>2018-08-12T08:56:43.000Z</time>
      </trkpt>
      <trkpt lat="40.65642912872135639190673828125" lon="-4.96770481579005718231201171875">
        <ele>1609.4000244140625</ele>
        <time>2018-08-12T08:57:01.000Z</time>
      </trkpt>
      <trkpt lat="40.656403563916683197021484375" lon="-4.9679846875369548797607421875">
        <ele>1612</ele>
        <time>2018-08-12T08:57:19.000Z</time>
      </trkpt>
      <trkpt lat="40.6563651748001575469970703125" lon="-4.9682264216244220733642578125">
        <ele>1614</ele>
        <time>2018-08-12T08:57:35.000Z</time>
      </trkpt>
      <trkpt lat="40.65632142126560211181640625" lon="-4.96842968277633190155029296875">
        <ele>1615.800048828125</ele>
        <time>2018-08-12T08:57:50.000Z</time>
      </trkpt>
      <trkpt lat="40.65631932578980922698974609375" lon="-4.968445189297199249267578125">
        <ele>1616</ele>
        <time>2018-08-12T08:57:51.000Z</time>
      </trkpt>
      <trkpt lat="40.656254030764102935791015625" lon="-4.9687063694000244140625">
        <ele>1618</ele>
        <time>2018-08-12T08:58:08.000Z</time>
      </trkpt>
      <trkpt lat="40.65618596971035003662109375" lon="-4.96900300495326519012451171875">
        <ele>1620</ele>
        <time>2018-08-12T08:58:27.000Z</time>
      </trkpt>
      <trkpt lat="40.656154118478298187255859375" lon="-4.96921272017061710357666015625">
        <ele>1621.4000244140625</ele>
        <time>2018-08-12T08:58:40.000Z</time>
      </trkpt>
      <trkpt lat="40.656101144850254058837890625" lon="-4.96945512481033802032470703125">
        <ele>1624</ele>
        <time>2018-08-12T08:58:55.000Z</time>
      </trkpt>
      <trkpt lat="40.6560728140175342559814453125" lon="-4.96967774815857410430908203125">
        <ele>1626.4000244140625</ele>
        <time>2018-08-12T08:59:09.000Z</time>
      </trkpt>
      <trkpt lat="40.6560459919273853302001953125" lon="-4.9699232541024684906005859375">
        <ele>1629</ele>
        <time>2018-08-12T08:59:24.000Z</time>
      </trkpt>
      <trkpt lat="40.65603174269199371337890625" lon="-4.97024084441363811492919921875">
        <ele>1631.4000244140625</ele>
        <time>2018-08-12T08:59:43.000Z</time>
      </trkpt>
      <trkpt lat="40.656015984714031219482421875" lon="-4.970527589321136474609375">
        <ele>1634.199951171875</ele>
        <time>2018-08-12T09:00:01.000Z</time>
      </trkpt>
      <trkpt lat="40.6560027413070201873779296875" lon="-4.9707877635955810546875">
        <ele>1636.199951171875</ele>
        <time>2018-08-12T09:00:16.000Z</time>
      </trkpt>
      <trkpt lat="40.6559841334819793701171875" lon="-4.9711118079721927642822265625">
        <ele>1637.5999755859375</ele>
        <time>2018-08-12T09:00:29.000Z</time>
      </trkpt>
      <trkpt lat="40.6558485142886638641357421875" lon="-4.97163542546331882476806640625">
        <ele>1637</ele>
        <time>2018-08-12T09:00:42.000Z</time>
      </trkpt>
      <trkpt lat="40.65567023120820522308349609375" lon="-4.9721270240843296051025390625">
        <ele>1635.800048828125</ele>
        <time>2018-08-12T09:00:55.000Z</time>
      </trkpt>
      <trkpt lat="40.65558507107198238372802734375" lon="-4.9725749529898166656494140625">
        <ele>1636.5999755859375</ele>
        <time>2018-08-12T09:01:10.000Z</time>
      </trkpt>
      <trkpt lat="40.65557803027331829071044921875" lon="-4.9730207026004791259765625">
        <ele>1639</ele>
        <time>2018-08-12T09:01:26.000Z</time>
      </trkpt>
      <trkpt lat="40.6555434130132198333740234375" lon="-4.97341758571565151214599609375">
        <ele>1640.199951171875</ele>
        <time>2018-08-12T09:01:40.000Z</time>
      </trkpt>
      <trkpt lat="40.6555538065731525421142578125" lon="-4.9737135507166385650634765625">
        <ele>1640.199951171875</ele>
        <time>2018-08-12T09:01:51.000Z</time>
      </trkpt>
      <trkpt lat="40.65564282238483428955078125" lon="-4.9741943366825580596923828125">
        <ele>1642.4000244140625</ele>
        <time>2018-08-12T09:02:08.000Z</time>
      </trkpt>
      <trkpt lat="40.65571314655244350433349609375" lon="-4.97462642379105091094970703125">
        <ele>1645</ele>
        <time>2018-08-12T09:02:23.000Z</time>
      </trkpt>
      <trkpt lat="40.65573276020586490631103515625" lon="-4.97497594915330410003662109375">
        <ele>1646.800048828125</ele>
        <time>2018-08-12T09:02:35.000Z</time>
      </trkpt>
      <trkpt lat="40.6556959636509418487548828125" lon="-4.97549797408282756805419921875">
        <ele>1648.5999755859375</ele>
        <time>2018-08-12T09:02:52.000Z</time>
      </trkpt>
      <trkpt lat="40.65561507828533649444580078125" lon="-4.97588471509516239166259765625">
        <ele>1649.199951171875</ele>
        <time>2018-08-12T09:03:06.000Z</time>
      </trkpt>
      <trkpt lat="40.65555724315345287322998046875" lon="-4.97625938616693019866943359375">
        <ele>1651.4000244140625</ele>
        <time>2018-08-12T09:03:20.000Z</time>
      </trkpt>
      <trkpt lat="40.65556763671338558197021484375" lon="-4.9767022021114826202392578125">
        <ele>1653.5999755859375</ele>
        <time>2018-08-12T09:03:39.000Z</time>
      </trkpt>
      <trkpt lat="40.65557216294109821319580078125" lon="-4.977089278399944305419921875">
        <ele>1655.199951171875</ele>
        <time>2018-08-12T09:03:55.000Z</time>
      </trkpt>
      <trkpt lat="40.6555776111781597137451171875" lon="-4.9774180166423320770263671875">
        <ele>1656.800048828125</ele>
        <time>2018-08-12T09:04:09.000Z</time>
      </trkpt>
      <trkpt lat="40.655585490167140960693359375" lon="-4.9777968786656856536865234375">
        <ele>1659.199951171875</ele>
        <time>2018-08-12T09:04:27.000Z</time>
      </trkpt>
      <trkpt lat="40.65559965558350086212158203125" lon="-4.978028722107410430908203125">
        <ele>1660.800048828125</ele>
        <time>2018-08-12T09:04:40.000Z</time>
      </trkpt>
      <trkpt lat="40.65562631003558635711669921875" lon="-4.9784064106643199920654296875">
        <ele>1663.800048828125</ele>
        <time>2018-08-12T09:05:03.000Z</time>
      </trkpt>
      <trkpt lat="40.65564072690904140472412109375" lon="-4.978589974343776702880859375">
        <ele>1665.5999755859375</ele>
        <time>2018-08-12T09:05:15.000Z</time>
      </trkpt>
      <trkpt lat="40.65567207522690296173095703125" lon="-4.97882575727999210357666015625">
        <ele>1668</ele>
        <time>2018-08-12T09:05:30.000Z</time>
      </trkpt>
      <trkpt lat="40.65570627339184284210205078125" lon="-4.97907469980418682098388671875">
        <ele>1670</ele>
        <time>2018-08-12T09:05:46.000Z</time>
      </trkpt>
      <trkpt lat="40.65574935637414455413818359375" lon="-4.97936370782554149627685546875">
        <ele>1672.199951171875</ele>
        <time>2018-08-12T09:06:03.000Z</time>
      </trkpt>
      <trkpt lat="40.65581222064793109893798828125" lon="-4.97962857596576213836669921875">
        <ele>1673.5999755859375</ele>
        <time>2018-08-12T09:06:15.000Z</time>
      </trkpt>
      <trkpt lat="40.65598002634942531585693359375" lon="-4.980103410780429840087890625">
        <ele>1674.5999755859375</ele>
        <time>2018-08-12T09:06:30.000Z</time>
      </trkpt>
      <trkpt lat="40.65626232884824275970458984375" lon="-4.98064211569726467132568359375">
        <ele>1673.4000244140625</ele>
        <time>2018-08-12T09:06:39.000Z</time>
      </trkpt>
      <trkpt lat="40.6563006341457366943359375" lon="-4.98071855865418910980224609375">
        <ele>1673.199951171875</ele>
        <time>2018-08-12T09:06:40.000Z</time>
      </trkpt>
      <trkpt lat="40.656605400145053863525390625" lon="-4.98133127577602863311767578125">
        <ele>1670</ele>
        <time>2018-08-12T09:06:47.000Z</time>
      </trkpt>
      <trkpt lat="40.6568687595427036285400390625" lon="-4.98186687938868999481201171875">
        <ele>1667</ele>
        <time>2018-08-12T09:06:53.000Z</time>
      </trkpt>
      <trkpt lat="40.65689449198544025421142578125" lon="-4.98194449581205844879150390625">
        <ele>1665.800048828125</ele>
        <time>2018-08-12T09:06:54.000Z</time>
      </trkpt>
      <trkpt lat="40.65691477619111537933349609375" lon="-4.98201406560838222503662109375">
        <ele>1665.199951171875</ele>
        <time>2018-08-12T09:06:55.000Z</time>
      </trkpt>
      <trkpt lat="40.65692801959812641143798828125" lon="-4.98207257129251956939697265625">
        <ele>1665</ele>
        <time>2018-08-12T09:06:56.000Z</time>
      </trkpt>
      <trkpt lat="40.65691175870597362518310546875" lon="-4.98247507028281688690185546875">
        <ele>1665</ele>
        <time>2018-08-12T09:07:05.000Z</time>
      </trkpt>
      <trkpt lat="40.65684973262250423431396484375" lon="-4.98256492428481578826904296875">
        <ele>1667.199951171875</ele>
        <time>2018-08-12T09:07:08.000Z</time>
      </trkpt>
      <trkpt lat="40.65668578259646892547607421875" lon="-4.982681684195995330810546875">
        <ele>1667.800048828125</ele>
        <time>2018-08-12T09:07:15.000Z</time>
      </trkpt>
      <trkpt lat="40.6566719524562358856201171875" lon="-4.98270272277295589447021484375">
        <ele>1667.800048828125</ele>
        <time>2018-08-12T09:07:16.000Z</time>
      </trkpt>
      <trkpt lat="40.65663733519613742828369140625" lon="-4.98275720514357089996337890625">
        <ele>1668</ele>
        <time>2018-08-12T09:07:19.000Z</time>
      </trkpt>
      <trkpt lat="40.65662585198879241943359375" lon="-4.98275955207645893096923828125">
        <ele>1670</ele>
        <time>2018-08-12T09:07:29.000Z</time>
      </trkpt>
      <trkpt lat="40.65664462745189666748046875" lon="-4.98273608274757862091064453125">
        <ele>1670.4000244140625</ele>
        <time>2018-08-12T09:08:11.000Z</time>
      </trkpt>
      <trkpt lat="40.6566360779106616973876953125" lon="-4.98273055069148540496826171875">
        <ele>1670.800048828125</ele>
        <time>2018-08-12T09:08:35.000Z</time>
      </trkpt>
      <trkpt lat="40.65663800574839115142822265625" lon="-4.98274446465075016021728515625">
        <ele>1670.800048828125</ele>
        <time>2018-08-12T09:09:32.000Z</time>
      </trkpt>
      <trkpt lat="40.65664018504321575164794921875" lon="-4.98273641802370548248291015625">
        <ele>1670.5999755859375</ele>
        <time>2018-08-12T09:10:22.000Z</time>
      </trkpt>
      <trkpt lat="40.65662962384521961212158203125" lon="-4.9827475659549236297607421875">
        <ele>1670.5999755859375</ele>
        <time>2018-08-12T09:11:26.000Z</time>
      </trkpt>
      <trkpt lat="40.656627528369426727294921875" lon="-4.9827371723949909210205078125">
        <ele>1670</ele>
        <time>2018-08-12T09:12:12.000Z</time>
      </trkpt>
      <trkpt lat="40.6566345691680908203125" lon="-4.9827411957085132598876953125">
        <ele>1670</ele>
        <time>2018-08-12T09:12:43.000Z</time>
      </trkpt>
      <trkpt lat="40.65663113258779048919677734375" lon="-4.98273574747145175933837890625">
        <ele>1670.199951171875</ele>
        <time>2018-08-12T09:13:07.000Z</time>
      </trkpt>
      <trkpt lat="40.65662987530231475830078125" lon="-4.98272937722504138946533203125">
        <ele>1670.4000244140625</ele>
        <time>2018-08-12T09:14:03.000Z</time>
      </trkpt>
      <trkpt lat="40.65662208013236522674560546875" lon="-4.9827261082828044891357421875">
        <ele>1670.199951171875</ele>
        <time>2018-08-12T09:14:51.000Z</time>
      </trkpt>
      <trkpt lat="40.65659693442285060882568359375" lon="-4.982731640338897705078125">
        <ele>1670</ele>
        <time>2018-08-12T09:15:16.000Z</time>
      </trkpt>
      <trkpt lat="40.65633374266326427459716796875" lon="-4.9828320555388927459716796875">
        <ele>1669.800048828125</ele>
        <time>2018-08-12T09:15:29.000Z</time>
      </trkpt>
      <trkpt lat="40.6560607440769672393798828125" lon="-4.9830845184624195098876953125">
        <ele>1669.199951171875</ele>
        <time>2018-08-12T09:15:41.000Z</time>
      </trkpt>
      <trkpt lat="40.65589000470936298370361328125" lon="-4.98332910239696502685546875">
        <ele>1668.4000244140625</ele>
        <time>2018-08-12T09:15:46.000Z</time>
      </trkpt>
      <trkpt lat="40.65585765056312084197998046875" lon="-4.9834083952009677886962890625">
        <ele>1668.199951171875</ele>
        <time>2018-08-12T09:15:47.000Z</time>
      </trkpt>
      <trkpt lat="40.65582881681621074676513671875" lon="-4.98349715955555438995361328125">
        <ele>1668</ele>
        <time>2018-08-12T09:15:48.000Z</time>
      </trkpt>
      <trkpt lat="40.65580350346863269805908203125" lon="-4.98359858058393001556396484375">
        <ele>1667.800048828125</ele>
        <time>2018-08-12T09:15:49.000Z</time>
      </trkpt>
      <trkpt lat="40.65578673966228961944580078125" lon="-4.983700253069400787353515625">
        <ele>1667.800048828125</ele>
        <time>2018-08-12T09:15:50.000Z</time>
      </trkpt>
      <trkpt lat="40.65577290952205657958984375" lon="-4.98380117118358612060546875">
        <ele>1667.5999755859375</ele>
        <time>2018-08-12T09:15:51.000Z</time>
      </trkpt>
      <trkpt lat="40.65573443658649921417236328125" lon="-4.98416251502931118011474609375">
        <ele>1664</ele>
        <time>2018-08-12T09:15:55.000Z</time>
      </trkpt>
      <trkpt lat="40.65565732307732105255126953125" lon="-4.9845488369464874267578125">
        <ele>1660.800048828125</ele>
        <time>2018-08-12T09:16:00.000Z</time>
      </trkpt>
      <trkpt lat="40.6553238071501255035400390625" lon="-4.98538761399686336517333984375">
        <ele>1658.800048828125</ele>
        <time>2018-08-12T09:16:11.000Z</time>
      </trkpt>
      <trkpt lat="40.65485182218253612518310546875" lon="-4.9858917854726314544677734375">
        <ele>1655</ele>
        <time>2018-08-12T09:16:19.000Z</time>
      </trkpt>
      <trkpt lat="40.6547877006232738494873046875" lon="-4.985933192074298858642578125">
        <ele>1655</ele>
        <time>2018-08-12T09:16:20.000Z</time>
      </trkpt>
      <trkpt lat="40.65472005866467952728271484375" lon="-4.98596847988665103912353515625">
        <ele>1653.199951171875</ele>
        <time>2018-08-12T09:16:21.000Z</time>
      </trkpt>
      <trkpt lat="40.65465199761092662811279296875" lon="-4.98599664308130741119384765625">
        <ele>1652.199951171875</ele>
        <time>2018-08-12T09:16:22.000Z</time>
      </trkpt>
      <trkpt lat="40.65458477474749088287353515625" lon="-4.986018352210521697998046875">
        <ele>1651.4000244140625</ele>
        <time>2018-08-12T09:16:23.000Z</time>
      </trkpt>
      <trkpt lat="40.6545178033411502838134765625" lon="-4.98603452928364276885986328125">
        <ele>1650.4000244140625</ele>
        <time>2018-08-12T09:16:24.000Z</time>
      </trkpt>
      <trkpt lat="40.6542487442493438720703125" lon="-4.98608817346394062042236328125">
        <ele>1647</ele>
        <time>2018-08-12T09:16:28.000Z</time>
      </trkpt>
      <trkpt lat="40.65398245118558406829833984375" lon="-4.98609638772904872894287109375">
        <ele>1643.4000244140625</ele>
        <time>2018-08-12T09:16:32.000Z</time>
      </trkpt>
      <trkpt lat="40.65379268489778041839599609375" lon="-4.98606026172637939453125">
        <ele>1641.199951171875</ele>
        <time>2018-08-12T09:16:35.000Z</time>
      </trkpt>
      <trkpt lat="40.6537309102714061737060546875" lon="-4.98603151179850101470947265625">
        <ele>1639.800048828125</ele>
        <time>2018-08-12T09:16:36.000Z</time>
      </trkpt>
      <trkpt lat="40.6536720693111419677734375" lon="-4.9859960563480854034423828125">
        <ele>1639</ele>
        <time>2018-08-12T09:16:37.000Z</time>
      </trkpt>
      <trkpt lat="40.65361884422600269317626953125" lon="-4.98595456592738628387451171875">
        <ele>1638.199951171875</ele>
        <time>2018-08-12T09:16:38.000Z</time>
      </trkpt>
      <trkpt lat="40.6535686366260051727294921875" lon="-4.9859060347080230712890625">
        <ele>1637.5999755859375</ele>
        <time>2018-08-12T09:16:39.000Z</time>
      </trkpt>
      <trkpt lat="40.65351876430213451385498046875" lon="-4.98585171997547149658203125">
        <ele>1637</ele>
        <time>2018-08-12T09:16:40.000Z</time>
      </trkpt>
      <trkpt lat="40.65327485091984272003173828125" lon="-4.9854918010532855987548828125">
        <ele>1633.199951171875</ele>
        <time>2018-08-12T09:16:45.000Z</time>
      </trkpt>
      <trkpt lat="40.653226487338542938232421875" lon="-4.98540571890771389007568359375">
        <ele>1633.199951171875</ele>
        <time>2018-08-12T09:16:46.000Z</time>
      </trkpt>
      <trkpt lat="40.65308801829814910888671875" lon="-4.9851429462432861328125">
        <ele>1629.800048828125</ele>
        <time>2018-08-12T09:16:49.000Z</time>
      </trkpt>
      <trkpt lat="40.65294963307678699493408203125" lon="-4.9848195724189281463623046875">
        <ele>1626.4000244140625</ele>
        <time>2018-08-12T09:16:53.000Z</time>
      </trkpt>
      <trkpt lat="40.65272164531052112579345703125" lon="-4.98447951860725879669189453125">
        <ele>1625</ele>
        <time>2018-08-12T09:17:00.000Z</time>
      </trkpt>
      <trkpt lat="40.65220984630286693572998046875" lon="-4.9841919355094432830810546875">
        <ele>1624.199951171875</ele>
        <time>2018-08-12T09:17:09.000Z</time>
      </trkpt>
      <trkpt lat="40.65166451968252658843994140625" lon="-4.9839699827134609222412109375">
        <ele>1620.5999755859375</ele>
        <time>2018-08-12T09:17:16.000Z</time>
      </trkpt>
      <trkpt lat="40.6514164991676807403564453125" lon="-4.983854480087757110595703125">
        <ele>1617.199951171875</ele>
        <time>2018-08-12T09:17:19.000Z</time>
      </trkpt>
      <trkpt lat="40.65117015503346920013427734375" lon="-4.9837507121264934539794921875">
        <ele>1613.800048828125</ele>
        <time>2018-08-12T09:17:22.000Z</time>
      </trkpt>
      <trkpt lat="40.6510818935930728912353515625" lon="-4.98373654671013355255126953125">
        <ele>1612.800048828125</ele>
        <time>2018-08-12T09:17:23.000Z</time>
      </trkpt>
      <trkpt lat="40.65098810009658336639404296875" lon="-4.98373537324368953704833984375">
        <ele>1611.800048828125</ele>
        <time>2018-08-12T09:17:24.000Z</time>
      </trkpt>
      <trkpt lat="40.6508914567530155181884765625" lon="-4.98374844901263713836669921875">
        <ele>1611</ele>
        <time>2018-08-12T09:17:25.000Z</time>
      </trkpt>
      <trkpt lat="40.65079565159976482391357421875" lon="-4.9837778694927692413330078125">
        <ele>1610</ele>
        <time>2018-08-12T09:17:26.000Z</time>
      </trkpt>
      <trkpt lat="40.65069976262748241424560546875" lon="-4.983818940818309783935546875">
        <ele>1609.199951171875</ele>
        <time>2018-08-12T09:17:27.000Z</time>
      </trkpt>
      <trkpt lat="40.65060965716838836669921875" lon="-4.9838737584650516510009765625">
        <ele>1608.199951171875</ele>
        <time>2018-08-12T09:17:28.000Z</time>
      </trkpt>
      <trkpt lat="40.6505266763269901275634765625" lon="-4.98393955640494823455810546875">
        <ele>1607.4000244140625</ele>
        <time>2018-08-12T09:17:29.000Z</time>
      </trkpt>
      <trkpt lat="40.65045987255871295928955078125" lon="-4.98402111232280731201171875">
        <ele>1606.5999755859375</ele>
        <time>2018-08-12T09:17:30.000Z</time>
      </trkpt>
      <trkpt lat="40.65040840767323970794677734375" lon="-4.9841154925525188446044921875">
        <ele>1605.800048828125</ele>
        <time>2018-08-12T09:17:31.000Z</time>
      </trkpt>
      <trkpt lat="40.65037135966122150421142578125" lon="-4.98421666212379932403564453125">
        <ele>1604.800048828125</ele>
        <time>2018-08-12T09:17:32.000Z</time>
      </trkpt>
      <trkpt lat="40.6503570266067981719970703125" lon="-4.9846341647207736968994140625">
        <ele>1601.4000244140625</ele>
        <time>2018-08-12T09:17:36.000Z</time>
      </trkpt>
      <trkpt lat="40.650386027991771697998046875" lon="-4.98485268093645572662353515625">
        <ele>1600.199951171875</ele>
        <time>2018-08-12T09:17:38.000Z</time>
      </trkpt>
      <trkpt lat="40.6505263410508632659912109375" lon="-4.98593394644558429718017578125">
        <ele>1599.4000244140625</ele>
        <time>2018-08-12T09:17:49.000Z</time>
      </trkpt>
      <trkpt lat="40.65054771490395069122314453125" lon="-4.987044967710971832275390625">
        <ele>1598.4000244140625</ele>
        <time>2018-08-12T09:18:01.000Z</time>
      </trkpt>
      <trkpt lat="40.65054520033299922943115234375" lon="-4.9877461977303028106689453125">
        <ele>1594.4000244140625</ele>
        <time>2018-08-12T09:18:07.000Z</time>
      </trkpt>
      <trkpt lat="40.6505035422742366790771484375" lon="-4.9881864152848720550537109375">
        <ele>1591.4000244140625</ele>
        <time>2018-08-12T09:18:11.000Z</time>
      </trkpt>
      <trkpt lat="40.65045182593166828155517578125" lon="-4.98850182630121707916259765625">
        <ele>1588.4000244140625</ele>
        <time>2018-08-12T09:18:14.000Z</time>
      </trkpt>
      <trkpt lat="40.6503821723163127899169921875" lon="-4.98905888758599758148193359375">
        <ele>1585.199951171875</ele>
        <time>2018-08-12T09:18:20.000Z</time>
      </trkpt>
      <trkpt lat="40.65038577653467655181884765625" lon="-4.989147484302520751953125">
        <ele>1584.800048828125</ele>
        <time>2018-08-12T09:18:21.000Z</time>
      </trkpt>
      <trkpt lat="40.6503949128091335296630859375" lon="-4.9892388470470905303955078125">
        <ele>1584.4000244140625</ele>
        <time>2018-08-12T09:18:22.000Z</time>
      </trkpt>
      <trkpt lat="40.65049155615270137786865234375" lon="-4.990015514194965362548828125">
        <ele>1581</ele>
        <time>2018-08-12T09:18:30.000Z</time>
      </trkpt>
      <trkpt lat="40.650487951934337615966796875" lon="-4.99010880477726459503173828125">
        <ele>1580.4000244140625</ele>
        <time>2018-08-12T09:18:31.000Z</time>
      </trkpt>
      <trkpt lat="40.65047848038375377655029296875" lon="-4.99019547365605831146240234375">
        <ele>1579.4000244140625</ele>
        <time>2018-08-12T09:18:32.000Z</time>
      </trkpt>
      <trkpt lat="40.65046071074903011322021484375" lon="-4.99027409590780735015869140625">
        <ele>1578.4000244140625</ele>
        <time>2018-08-12T09:18:33.000Z</time>
      </trkpt>
      <trkpt lat="40.6504368223249912261962890625" lon="-4.99034970067441463470458984375">
        <ele>1577.4000244140625</ele>
        <time>2018-08-12T09:18:34.000Z</time>
      </trkpt>
      <trkpt lat="40.65040740184485912322998046875" lon="-4.9904201924800872802734375">
        <ele>1576.4000244140625</ele>
        <time>2018-08-12T09:18:35.000Z</time>
      </trkpt>
      <trkpt lat="40.65037420950829982757568359375" lon="-4.9904850684106349945068359375">
        <ele>1575.800048828125</ele>
        <time>2018-08-12T09:18:36.000Z</time>
      </trkpt>
      <trkpt lat="40.65033665858209133148193359375" lon="-4.99054558575153350830078125">
        <ele>1575</ele>
        <time>2018-08-12T09:18:37.000Z</time>
      </trkpt>
      <trkpt lat="40.65029583871364593505859375" lon="-4.99060182832181453704833984375">
        <ele>1573.800048828125</ele>
        <time>2018-08-12T09:18:38.000Z</time>
      </trkpt>
      <trkpt lat="40.65025082789361476898193359375" lon="-4.99065446667373180389404296875">
        <ele>1573</ele>
        <time>2018-08-12T09:18:39.000Z</time>
      </trkpt>
      <trkpt lat="40.65020422451198101043701171875" lon="-4.99070140533149242401123046875">
        <ele>1572</ele>
        <time>2018-08-12T09:18:40.000Z</time>
      </trkpt>
      <trkpt lat="40.6501578725874423980712890625" lon="-4.99074180610477924346923828125">
        <ele>1570.800048828125</ele>
        <time>2018-08-12T09:18:41.000Z</time>
      </trkpt>
      <trkpt lat="40.65011085011065006256103515625" lon="-4.9907764233648777008056640625">
        <ele>1569.800048828125</ele>
        <time>2018-08-12T09:18:42.000Z</time>
      </trkpt>
      <trkpt lat="40.6500579603016376495361328125" lon="-4.99080617912113666534423828125">
        <ele>1568.5999755859375</ele>
        <time>2018-08-12T09:18:43.000Z</time>
      </trkpt>
      <trkpt lat="40.65000087954103946685791015625" lon="-4.99082989990711212158203125">
        <ele>1567.5999755859375</ele>
        <time>2018-08-12T09:18:44.000Z</time>
      </trkpt>
      <trkpt lat="40.6498795934021472930908203125" lon="-4.9908622540533542633056640625">
        <ele>1566.4000244140625</ele>
        <time>2018-08-12T09:18:46.000Z</time>
      </trkpt>
      <trkpt lat="40.64981781877577304840087890625" lon="-4.9908649362623691558837890625">
        <ele>1565.5999755859375</ele>
        <time>2018-08-12T09:18:47.000Z</time>
      </trkpt>
      <trkpt lat="40.6497552059590816497802734375" lon="-4.99085613526403903961181640625">
        <ele>1564.5999755859375</ele>
        <time>2018-08-12T09:18:48.000Z</time>
      </trkpt>
      <trkpt lat="40.64969359897077083587646484375" lon="-4.9908337555825710296630859375">
        <ele>1563.5999755859375</ele>
        <time>2018-08-12T09:18:49.000Z</time>
      </trkpt>
      <trkpt lat="40.64963174052536487579345703125" lon="-4.99079930596053600311279296875">
        <ele>1562.4000244140625</ele>
        <time>2018-08-12T09:18:50.000Z</time>
      </trkpt>
      <trkpt lat="40.649573318660259246826171875" lon="-4.99075412750244140625">
        <ele>1562</ele>
        <time>2018-08-12T09:18:51.000Z</time>
      </trkpt>
      <trkpt lat="40.64951389096677303314208984375" lon="-4.99069738201797008514404296875">
        <ele>1561.4000244140625</ele>
        <time>2018-08-12T09:18:52.000Z</time>
      </trkpt>
      <trkpt lat="40.64945538528263568878173828125" lon="-4.9906252138316631317138671875">
        <ele>1559.800048828125</ele>
        <time>2018-08-12T09:18:53.000Z</time>
      </trkpt>
      <trkpt lat="40.6494008190929889678955078125" lon="-4.9905373714864253997802734375">
        <ele>1559</ele>
        <time>2018-08-12T09:18:54.000Z</time>
      </trkpt>
      <trkpt lat="40.6493518687784671783447265625" lon="-4.99043988995254039764404296875">
        <ele>1558</ele>
        <time>2018-08-12T09:18:55.000Z</time>
      </trkpt>
      <trkpt lat="40.64930836670100688934326171875" lon="-4.99033528380095958709716796875">
        <ele>1557.199951171875</ele>
        <time>2018-08-12T09:18:56.000Z</time>
      </trkpt>
      <trkpt lat="40.64926779828965663909912109375" lon="-4.9902275763452053070068359375">
        <ele>1555.800048828125</ele>
        <time>2018-08-12T09:18:57.000Z</time>
      </trkpt>
      <trkpt lat="40.64911792986094951629638671875" lon="-4.98981812037527561187744140625">
        <ele>1552.199951171875</ele>
        <time>2018-08-12T09:19:01.000Z</time>
      </trkpt>
      <trkpt lat="40.6490720808506011962890625" lon="-4.9897347204387187957763671875">
        <ele>1551.5999755859375</ele>
        <time>2018-08-12T09:19:02.000Z</time>
      </trkpt>
      <trkpt lat="40.64901868812739849090576171875" lon="-4.98966305516660213470458984375">
        <ele>1550.800048828125</ele>
        <time>2018-08-12T09:19:03.000Z</time>
      </trkpt>
      <trkpt lat="40.64895867370069026947021484375" lon="-4.989603459835052490234375">
        <ele>1550</ele>
        <time>2018-08-12T09:19:04.000Z</time>
      </trkpt>
      <trkpt lat="40.64889279194176197052001953125" lon="-4.9895565211772918701171875">
        <ele>1549.199951171875</ele>
        <time>2018-08-12T09:19:05.000Z</time>
      </trkpt>
      <trkpt lat="40.6488224677741527557373046875" lon="-4.9895270168781280517578125">
        <ele>1548.4000244140625</ele>
        <time>2018-08-12T09:19:06.000Z</time>
      </trkpt>
      <trkpt lat="40.64874627627432346343994140625" lon="-4.9895162880420684814453125">
        <ele>1548</ele>
        <time>2018-08-12T09:19:07.000Z</time>
      </trkpt>
      <trkpt lat="40.64867000095546245574951171875" lon="-4.98952475376427173614501953125">
        <ele>1547.4000244140625</ele>
        <time>2018-08-12T09:19:08.000Z</time>
      </trkpt>
      <trkpt lat="40.64859976060688495635986328125" lon="-4.9895519949495792388916015625">
        <ele>1547.199951171875</ele>
        <time>2018-08-12T09:19:09.000Z</time>
      </trkpt>
      <trkpt lat="40.64853899180889129638671875" lon="-4.98959868215024471282958984375">
        <ele>1547</ele>
        <time>2018-08-12T09:19:10.000Z</time>
      </trkpt>
      <trkpt lat="40.64848341979086399078369140625" lon="-4.98965551145374774932861328125">
        <ele>1546.800048828125</ele>
        <time>2018-08-12T09:19:11.000Z</time>
      </trkpt>
      <trkpt lat="40.648429356515407562255859375" lon="-4.9897209741175174713134765625">
        <ele>1546.5999755859375</ele>
        <time>2018-08-12T09:19:12.000Z</time>
      </trkpt>
      <trkpt lat="40.64837998710572719573974609375" lon="-4.9897977523505687713623046875">
        <ele>1546.4000244140625</ele>
        <time>2018-08-12T09:19:13.000Z</time>
      </trkpt>
      <trkpt lat="40.6483339704573154449462890625" lon="-4.98988433741033077239990234375">
        <ele>1546.4000244140625</ele>
        <time>2018-08-12T09:19:14.000Z</time>
      </trkpt>
      <trkpt lat="40.6482934020459651947021484375" lon="-4.9899754486978054046630859375">
        <ele>1546.4000244140625</ele>
        <time>2018-08-12T09:19:15.000Z</time>
      </trkpt>
      <trkpt lat="40.64825735986232757568359375" lon="-4.99006974510848522186279296875">
        <ele>1546</ele>
        <time>2018-08-12T09:19:16.000Z</time>
      </trkpt>
      <trkpt lat="40.64822726882994174957275390625" lon="-4.99016647227108478546142578125">
        <ele>1546</ele>
        <time>2018-08-12T09:19:17.000Z</time>
      </trkpt>
      <trkpt lat="40.6481307931244373321533203125" lon="-4.99055170454084873199462890625">
        <ele>1542.199951171875</ele>
        <time>2018-08-12T09:19:21.000Z</time>
      </trkpt>
      <trkpt lat="40.648082010447978973388671875" lon="-4.990821182727813720703125">
        <ele>1538.800048828125</ele>
        <time>2018-08-12T09:19:24.000Z</time>
      </trkpt>
      <trkpt lat="40.648054182529449462890625" lon="-4.99106484465301036834716796875">
        <ele>1535.800048828125</ele>
        <time>2018-08-12T09:19:27.000Z</time>
      </trkpt>
      <trkpt lat="40.6480295397341251373291015625" lon="-4.9913294613361358642578125">
        <ele>1532.199951171875</ele>
        <time>2018-08-12T09:19:31.000Z</time>
      </trkpt>
      <trkpt lat="40.6480456329882144927978515625" lon="-4.99142761342227458953857421875">
        <ele>1530.5999755859375</ele>
        <time>2018-08-12T09:19:33.000Z</time>
      </trkpt>
      <trkpt lat="40.6480744667351245880126953125" lon="-4.99147153459489345550537109375">
        <ele>1530</ele>
        <time>2018-08-12T09:19:34.000Z</time>
      </trkpt>
      <trkpt lat="40.64817463047802448272705078125" lon="-4.99159164726734161376953125">
        <ele>1528.4000244140625</ele>
        <time>2018-08-12T09:19:37.000Z</time>
      </trkpt>
      <trkpt lat="40.64834377728402614593505859375" lon="-4.9918377399444580078125">
        <ele>1527.199951171875</ele>
        <time>2018-08-12T09:19:42.000Z</time>
      </trkpt>
      <trkpt lat="40.64858266152441501617431640625" lon="-4.99222867190837860107421875">
        <ele>1524</ele>
        <time>2018-08-12T09:19:49.000Z</time>
      </trkpt>
      <trkpt lat="40.64859087578952312469482421875" lon="-4.99230050481855869293212890625">
        <ele>1523.800048828125</ele>
        <time>2018-08-12T09:19:50.000Z</time>
      </trkpt>
      <trkpt lat="40.64861476421356201171875" lon="-4.992438219487667083740234375">
        <ele>1523.199951171875</ele>
        <time>2018-08-12T09:19:52.000Z</time>
      </trkpt>
      <trkpt lat="40.6487332843244075775146484375" lon="-4.99281347729265689849853515625">
        <ele>1521.199951171875</ele>
        <time>2018-08-12T09:20:00.000Z</time>
      </trkpt>
      <trkpt lat="40.64884535036981105804443359375" lon="-4.9930271320044994354248046875">
        <ele>1521.199951171875</ele>
        <time>2018-08-12T09:20:05.000Z</time>
      </trkpt>
      <trkpt lat="40.64899974502623081207275390625" lon="-4.99345703981816768646240234375">
        <ele>1521.4000244140625</ele>
        <time>2018-08-12T09:20:13.000Z</time>
      </trkpt>
      <trkpt lat="40.64909018576145172119140625" lon="-4.99386607669293880462646484375">
        <ele>1521</ele>
        <time>2018-08-12T09:20:20.000Z</time>
      </trkpt>
      <trkpt lat="40.6491030938923358917236328125" lon="-4.99391921795904636383056640625">
        <ele>1520.5999755859375</ele>
        <time>2018-08-12T09:20:21.000Z</time>
      </trkpt>
      <trkpt lat="40.64922639168798923492431640625" lon="-4.99432959593832492828369140625">
        <ele>1518.5999755859375</ele>
        <time>2018-08-12T09:20:30.000Z</time>
      </trkpt>
      <trkpt lat="40.64941942691802978515625" lon="-4.994699321687221527099609375">
        <ele>1518</ele>
        <time>2018-08-12T09:20:39.000Z</time>
      </trkpt>
      <trkpt lat="40.64959351904690265655517578125" lon="-4.99510022811591625213623046875">
        <ele>1516.5999755859375</ele>
        <time>2018-08-12T09:20:50.000Z</time>
      </trkpt>
      <trkpt lat="40.64956870861351490020751953125" lon="-4.99540331773459911346435546875">
        <ele>1516.4000244140625</ele>
        <time>2018-08-12T09:21:00.000Z</time>
      </trkpt>
      <trkpt lat="40.64957641996443271636962890625" lon="-4.9957606382668018341064453125">
        <ele>1515.199951171875</ele>
        <time>2018-08-12T09:21:10.000Z</time>
      </trkpt>
      <trkpt lat="40.6495763361454010009765625" lon="-4.9958060681819915771484375">
        <ele>1515.199951171875</ele>
        <time>2018-08-12T09:21:11.000Z</time>
      </trkpt>
      <trkpt lat="40.649749003350734710693359375" lon="-4.99608661048114299774169921875">
        <ele>1513.800048828125</ele>
        <time>2018-08-12T09:21:20.000Z</time>
      </trkpt>
      <trkpt lat="40.6499600596725940704345703125" lon="-4.99623497016727924346923828125">
        <ele>1511</ele>
        <time>2018-08-12T09:21:29.000Z</time>
      </trkpt>
      <trkpt lat="40.65018192864954471588134765625" lon="-4.99650000594556331634521484375">
        <ele>1509</ele>
        <time>2018-08-12T09:21:39.000Z</time>
      </trkpt>
      <trkpt lat="40.650312602519989013671875" lon="-4.99663378112018108367919921875">
        <ele>1507.800048828125</ele>
        <time>2018-08-12T09:21:47.000Z</time>
      </trkpt>
      <trkpt lat="40.650481246411800384521484375" lon="-4.99676303006708621978759765625">
        <ele>1506.4000244140625</ele>
        <time>2018-08-12T09:21:56.000Z</time>
      </trkpt>
      <trkpt lat="40.65066673792898654937744140625" lon="-4.99693326652050018310546875">
        <ele>1504.4000244140625</ele>
        <time>2018-08-12T09:22:04.000Z</time>
      </trkpt>
      <trkpt lat="40.65083873458206653594970703125" lon="-4.9971858970820903778076171875">
        <ele>1503.4000244140625</ele>
        <time>2018-08-12T09:22:14.000Z</time>
      </trkpt>
      <trkpt lat="40.6510704942047595977783203125" lon="-4.99744892120361328125">
        <ele>1505.5999755859375</ele>
        <time>2018-08-12T09:22:28.000Z</time>
      </trkpt>
      <trkpt lat="40.65122254192829132080078125" lon="-4.9976080097258090972900390625">
        <ele>1508.4000244140625</ele>
        <time>2018-08-12T09:22:39.000Z</time>
      </trkpt>
      <trkpt lat="40.65131298266351222991943359375" lon="-4.9978229217231273651123046875">
        <ele>1511.4000244140625</ele>
        <time>2018-08-12T09:22:49.000Z</time>
      </trkpt>
      <trkpt lat="40.651514232158660888671875" lon="-4.9980146996676921844482421875">
        <ele>1513</ele>
        <time>2018-08-12T09:23:01.000Z</time>
      </trkpt>
      <trkpt lat="40.65175118856132030487060546875" lon="-4.99806742183864116668701171875">
        <ele>1513</ele>
        <time>2018-08-12T09:23:10.000Z</time>
      </trkpt>
      <trkpt lat="40.65198789350688457489013671875" lon="-4.99817244708538055419921875">
        <ele>1510.800048828125</ele>
        <time>2018-08-12T09:23:19.000Z</time>
      </trkpt>
      <trkpt lat="40.65229140222072601318359375" lon="-4.99844762496650218963623046875">
        <ele>1508.800048828125</ele>
        <time>2018-08-12T09:23:29.000Z</time>
      </trkpt>
      <trkpt lat="40.65233507193624973297119140625" lon="-4.99851903878152370452880859375">
        <ele>1507.4000244140625</ele>
        <time>2018-08-12T09:23:31.000Z</time>
      </trkpt>
      <trkpt lat="40.65242174081504344940185546875" lon="-4.9989873357117176055908203125">
        <ele>1505.5999755859375</ele>
        <time>2018-08-12T09:23:39.000Z</time>
      </trkpt>
      <trkpt lat="40.65251846797764301300048828125" lon="-4.9993219412863254547119140625">
        <ele>1502.800048828125</ele>
        <time>2018-08-12T09:23:47.000Z</time>
      </trkpt>
      <trkpt lat="40.65252986736595630645751953125" lon="-4.99935136176645755767822265625">
        <ele>1502.4000244140625</ele>
        <time>2018-08-12T09:23:48.000Z</time>
      </trkpt>
      <trkpt lat="40.65259407274425029754638671875" lon="-4.99951422214508056640625">
        <ele>1502</ele>
        <time>2018-08-12T09:23:56.000Z</time>
      </trkpt>
      <trkpt lat="40.652710162103176116943359375" lon="-4.99955755658447742462158203125">
        <ele>1501.4000244140625</ele>
        <time>2018-08-12T09:24:03.000Z</time>
      </trkpt>
      <trkpt lat="40.65275651402771472930908203125" lon="-4.9994818679988384246826171875">
        <ele>1501</ele>
        <time>2018-08-12T09:24:12.000Z</time>
      </trkpt>
      <trkpt lat="40.65279708243906497955322265625" lon="-4.99942210502922534942626953125">
        <ele>1502</ele>
        <time>2018-08-12T09:24:25.000Z</time>
      </trkpt>
      <trkpt lat="40.6527938134968280792236328125" lon="-4.999405257403850555419921875">
        <ele>1502.800048828125</ele>
        <time>2018-08-12T09:24:46.000Z</time>
      </trkpt>
      <trkpt lat="40.65277696587145328521728515625" lon="-4.99941154383122920989990234375">
        <ele>1503</ele>
        <time>2018-08-12T09:25:11.000Z</time>
      </trkpt>
      <trkpt lat="40.65279574133455753326416015625" lon="-4.99941322021186351776123046875">
        <ele>1503.199951171875</ele>
        <time>2018-08-12T09:25:55.000Z</time>
      </trkpt>
      <trkpt lat="40.652826838195323944091796875" lon="-4.999409615993499755859375">
        <ele>1503.4000244140625</ele>
        <time>2018-08-12T09:26:38.000Z</time>
      </trkpt>
      <trkpt lat="40.65281133167445659637451171875" lon="-4.99941422604024410247802734375">
        <ele>1503.4000244140625</ele>
        <time>2018-08-12T09:27:15.000Z</time>
      </trkpt>
      <trkpt lat="40.65281284041702747344970703125" lon="-4.9994191713631153106689453125">
        <ele>1503.5999755859375</ele>
        <time>2018-08-12T09:28:25.000Z</time>
      </trkpt>
      <trkpt lat="40.65281149931252002716064453125" lon="-4.99940752051770687103271484375">
        <ele>1503.5999755859375</ele>
        <time>2018-08-12T09:28:47.000Z</time>
      </trkpt>
      <trkpt lat="40.65280328504741191864013671875" lon="-4.999415315687656402587890625">
        <ele>1503.4000244140625</ele>
        <time>2018-08-12T09:29:18.000Z</time>
      </trkpt>
      <trkpt lat="40.65280797891318798065185546875" lon="-4.99941824935376644134521484375">
        <ele>1503.4000244140625</ele>
        <time>2018-08-12T09:29:39.000Z</time>
      </trkpt>
      <trkpt lat="40.6528239883482456207275390625" lon="-4.9994399584829807281494140625">
        <ele>1503.4000244140625</ele>
        <time>2018-08-12T09:30:01.000Z</time>
      </trkpt>
      <trkpt lat="40.65283061005175113677978515625" lon="-4.99944641254842281341552734375">
        <ele>1503.4000244140625</ele>
        <time>2018-08-12T09:30:02.000Z</time>
      </trkpt>
      <trkpt lat="40.6529071368277072906494140625" lon="-4.9994986318051815032958984375">
        <ele>1503.800048828125</ele>
        <time>2018-08-12T09:30:09.000Z</time>
      </trkpt>
      <trkpt lat="40.6529879383742809295654296875" lon="-4.99963433481752872467041015625">
        <ele>1505.199951171875</ele>
        <time>2018-08-12T09:30:20.000Z</time>
      </trkpt>
      <trkpt lat="40.65301291644573211669921875" lon="-4.9996739812195301055908203125">
        <ele>1505.5999755859375</ele>
        <time>2018-08-12T09:30:25.000Z</time>
      </trkpt>
      <trkpt lat="40.65303797833621501922607421875" lon="-4.9997551180422306060791015625">
        <ele>1506.199951171875</ele>
        <time>2018-08-12T09:30:29.000Z</time>
      </trkpt>
      <trkpt lat="40.653104446828365325927734375" lon="-5.00017496757209300994873046875">
        <ele>1506.800048828125</ele>
        <time>2018-08-12T09:30:40.000Z</time>
      </trkpt>
      <trkpt lat="40.65315683372318744659423828125" lon="-5.00065558589994907379150390625">
        <ele>1505.4000244140625</ele>
        <time>2018-08-12T09:30:51.000Z</time>
      </trkpt>
      <trkpt lat="40.6532347016036510467529296875" lon="-5.00107501633465290069580078125">
        <ele>1504.199951171875</ele>
        <time>2018-08-12T09:31:00.000Z</time>
      </trkpt>
      <trkpt lat="40.65336696803569793701171875" lon="-5.00118456780910491943359375">
        <ele>1504.199951171875</ele>
        <time>2018-08-12T09:31:04.000Z</time>
      </trkpt>
      <trkpt lat="40.65358020365238189697265625" lon="-5.0015850551426410675048828125">
        <ele>1504</ele>
        <time>2018-08-12T09:31:13.000Z</time>
      </trkpt>
      <trkpt lat="40.65357626415789127349853515625" lon="-5.001635514199733734130859375">
        <ele>1503.800048828125</ele>
        <time>2018-08-12T09:31:14.000Z</time>
      </trkpt>
      <trkpt lat="40.6535111367702484130859375" lon="-5.00210666097700595855712890625">
        <ele>1502.199951171875</ele>
        <time>2018-08-12T09:31:25.000Z</time>
      </trkpt>
      <trkpt lat="40.6535066105425357818603515625" lon="-5.00215024687349796295166015625">
        <ele>1502.199951171875</ele>
        <time>2018-08-12T09:31:26.000Z</time>
      </trkpt>
      <trkpt lat="40.6534807942807674407958984375" lon="-5.00240639783442020416259765625">
        <ele>1501.800048828125</ele>
        <time>2018-08-12T09:31:33.000Z</time>
      </trkpt>
      <trkpt lat="40.65343460999429225921630859375" lon="-5.00278609804809093475341796875">
        <ele>1500.800048828125</ele>
        <time>2018-08-12T09:31:42.000Z</time>
      </trkpt>
      <trkpt lat="40.653526224195957183837890625" lon="-5.00300268642604351043701171875">
        <ele>1499.800048828125</ele>
        <time>2018-08-12T09:31:47.000Z</time>
      </trkpt>
      <trkpt lat="40.65356855280697345733642578125" lon="-5.00324324704706668853759765625">
        <ele>1499.199951171875</ele>
        <time>2018-08-12T09:31:53.000Z</time>
      </trkpt>
      <trkpt lat="40.6538036651909351348876953125" lon="-5.00317434780299663543701171875">
        <ele>1499</ele>
        <time>2018-08-12T09:32:00.000Z</time>
      </trkpt>
      <trkpt lat="40.6539863906800746917724609375" lon="-5.00318591482937335968017578125">
        <ele>1498.4000244140625</ele>
        <time>2018-08-12T09:32:04.000Z</time>
      </trkpt>
      <trkpt lat="40.65409091301262378692626953125" lon="-5.00323838554322719573974609375">
        <ele>1497.800048828125</ele>
        <time>2018-08-12T09:32:06.000Z</time>
      </trkpt>
      <trkpt lat="40.654294006526470184326171875" lon="-5.00353418290615081787109375">
        <ele>1494.199951171875</ele>
        <time>2018-08-12T09:32:12.000Z</time>
      </trkpt>
      <trkpt lat="40.65434941090643405914306640625" lon="-5.00385965220630168914794921875">
        <ele>1490.800048828125</ele>
        <time>2018-08-12T09:32:19.000Z</time>
      </trkpt>
      <trkpt lat="40.65436030738055706024169921875" lon="-5.00392905436456203460693359375">
        <ele>1489.800048828125</ele>
        <time>2018-08-12T09:32:21.000Z</time>
      </trkpt>
      <trkpt lat="40.65447279252111911773681640625" lon="-5.003910697996616363525390625">
        <ele>1488.4000244140625</ele>
        <time>2018-08-12T09:32:26.000Z</time>
      </trkpt>
      <trkpt lat="40.654486119747161865234375" lon="-5.00379972159862518310546875">
        <ele>1488.199951171875</ele>
        <time>2018-08-12T09:32:28.000Z</time>
      </trkpt>
      <trkpt lat="40.654499530792236328125" lon="-5.00353292562067508697509765625">
        <ele>1487.199951171875</ele>
        <time>2018-08-12T09:32:32.000Z</time>
      </trkpt>
      <trkpt lat="40.6545157916843891143798828125" lon="-5.00332094728946685791015625">
        <ele>1485.800048828125</ele>
        <time>2018-08-12T09:32:35.000Z</time>
      </trkpt>
      <trkpt lat="40.65452928654849529266357421875" lon="-5.003074519336223602294921875">
        <ele>1484.800048828125</ele>
        <time>2018-08-12T09:32:38.000Z</time>
      </trkpt>
      <trkpt lat="40.65464328043162822723388671875" lon="-5.002888105809688568115234375">
        <ele>1480.5999755859375</ele>
        <time>2018-08-12T09:32:43.000Z</time>
      </trkpt>
      <trkpt lat="40.65469264984130859375" lon="-5.00297385267913341522216796875">
        <ele>1478.4000244140625</ele>
        <time>2018-08-12T09:32:45.000Z</time>
      </trkpt>
      <trkpt lat="40.65481326542794704437255859375" lon="-5.00322363339364528656005859375">
        <ele>1472.5999755859375</ele>
        <time>2018-08-12T09:32:49.000Z</time>
      </trkpt>
      <trkpt lat="40.6549489684402942657470703125" lon="-5.00361188314855098724365234375">
        <ele>1470</ele>
        <time>2018-08-12T09:32:55.000Z</time>
      </trkpt>
      <trkpt lat="40.65504225902259349822998046875" lon="-5.00365546904504299163818359375">
        <ele>1468.199951171875</ele>
        <time>2018-08-12T09:32:59.000Z</time>
      </trkpt>
      <trkpt lat="40.65508366562426090240478515625" lon="-5.00352881848812103271484375">
        <ele>1467.4000244140625</ele>
        <time>2018-08-12T09:33:02.000Z</time>
      </trkpt>
      <trkpt lat="40.65516941249370574951171875" lon="-5.00297351740300655364990234375">
        <ele>1464</ele>
        <time>2018-08-12T09:33:10.000Z</time>
      </trkpt>
      <trkpt lat="40.655175782740116119384765625" lon="-5.00273547135293483734130859375">
        <ele>1460.4000244140625</ele>
        <time>2018-08-12T09:33:13.000Z</time>
      </trkpt>
      <trkpt lat="40.65517611801624298095703125" lon="-5.002649389207363128662109375">
        <ele>1460.4000244140625</ele>
        <time>2018-08-12T09:33:14.000Z</time>
      </trkpt>
      <trkpt lat="40.65522749908268451690673828125" lon="-5.002354346215724945068359375">
        <ele>1455</ele>
        <time>2018-08-12T09:33:17.000Z</time>
      </trkpt>
      <trkpt lat="40.65529170446097850799560546875" lon="-5.001945979893207550048828125">
        <ele>1451</ele>
        <time>2018-08-12T09:33:21.000Z</time>
      </trkpt>
      <trkpt lat="40.65532892011106014251708984375" lon="-5.001555718481540679931640625">
        <ele>1446.800048828125</ele>
        <time>2018-08-12T09:33:25.000Z</time>
      </trkpt>
      <trkpt lat="40.65536328591406345367431640625" lon="-5.00130333937704563140869140625">
        <ele>1442.5999755859375</ele>
        <time>2018-08-12T09:33:28.000Z</time>
      </trkpt>
      <trkpt lat="40.65540117211639881134033203125" lon="-5.0011733360588550567626953125">
        <ele>1440.5999755859375</ele>
        <time>2018-08-12T09:33:30.000Z</time>
      </trkpt>
      <trkpt lat="40.65553955733776092529296875" lon="-5.00127048231661319732666015625">
        <ele>1436.5999755859375</ele>
        <time>2018-08-12T09:33:35.000Z</time>
      </trkpt>
      <trkpt lat="40.655666291713714599609375" lon="-5.001658983528614044189453125">
        <ele>1435.5999755859375</ele>
        <time>2018-08-12T09:33:39.000Z</time>
      </trkpt>
      <trkpt lat="40.655812136828899383544921875" lon="-5.00232308171689510345458984375">
        <ele>1431.199951171875</ele>
        <time>2018-08-12T09:33:45.000Z</time>
      </trkpt>
      <trkpt lat="40.6558475084602832794189453125" lon="-5.00254184938967227935791015625">
        <ele>1429.199951171875</ele>
        <time>2018-08-12T09:33:47.000Z</time>
      </trkpt>
      <trkpt lat="40.65602880902588367462158203125" lon="-5.0030800513923168182373046875">
        <ele>1425.4000244140625</ele>
        <time>2018-08-12T09:33:53.000Z</time>
      </trkpt>
      <trkpt lat="40.65616845153272151947021484375" lon="-5.0033167563378810882568359375">
        <ele>1422.800048828125</ele>
        <time>2018-08-12T09:33:57.000Z</time>
      </trkpt>
      <trkpt lat="40.65641739405691623687744140625" lon="-5.00346285291016101837158203125">
        <ele>1419.199951171875</ele>
        <time>2018-08-12T09:34:02.000Z</time>
      </trkpt>
      <trkpt lat="40.65660397522151470184326171875" lon="-5.0035541318356990814208984375">
        <ele>1416.800048828125</ele>
        <time>2018-08-12T09:34:05.000Z</time>
      </trkpt>
      <trkpt lat="40.656754262745380401611328125" lon="-5.0037891604006290435791015625">
        <ele>1413.800048828125</ele>
        <time>2018-08-12T09:34:09.000Z</time>
      </trkpt>
      <trkpt lat="40.65685576759278774261474609375" lon="-5.004026032984256744384765625">
        <ele>1407.800048828125</ele>
        <time>2018-08-12T09:34:14.000Z</time>
      </trkpt>
      <trkpt lat="40.65691125579178333282470703125" lon="-5.004089064896106719970703125">
        <ele>1406.199951171875</ele>
        <time>2018-08-12T09:34:17.000Z</time>
      </trkpt>
      <trkpt lat="40.65707772038877010345458984375" lon="-5.004213787615299224853515625">
        <ele>1405.800048828125</ele>
        <time>2018-08-12T09:34:24.000Z</time>
      </trkpt>
      <trkpt lat="40.657318867743015289306640625" lon="-5.0043081678450107574462890625">
        <ele>1406.5999755859375</ele>
        <time>2018-08-12T09:34:33.000Z</time>
      </trkpt>
      <trkpt lat="40.657512657344341278076171875" lon="-5.00443632714450359344482421875">
        <ele>1407.4000244140625</ele>
        <time>2018-08-12T09:34:39.000Z</time>
      </trkpt>
      <trkpt lat="40.6577302515506744384765625" lon="-5.0047148577868938446044921875">
        <ele>1407.4000244140625</ele>
        <time>2018-08-12T09:34:45.000Z</time>
      </trkpt>
      <trkpt lat="40.65786997787654399871826171875" lon="-5.00506429933011531829833984375">
        <ele>1407</ele>
        <time>2018-08-12T09:34:50.000Z</time>
      </trkpt>
      <trkpt lat="40.65793745219707489013671875" lon="-5.00542555935680866241455078125">
        <ele>1404.4000244140625</ele>
        <time>2018-08-12T09:34:55.000Z</time>
      </trkpt>
      <trkpt lat="40.658152364194393157958984375" lon="-5.0058524496853351593017578125">
        <ele>1402</ele>
        <time>2018-08-12T09:35:02.000Z</time>
      </trkpt>
      <trkpt lat="40.65826057456433773040771484375" lon="-5.006157718598842620849609375">
        <ele>1400.199951171875</ele>
        <time>2018-08-12T09:35:06.000Z</time>
      </trkpt>
      <trkpt lat="40.658385045826435089111328125" lon="-5.006527192890644073486328125">
        <ele>1396</ele>
        <time>2018-08-12T09:35:10.000Z</time>
      </trkpt>
      <trkpt lat="40.65854229032993316650390625" lon="-5.00691016204655170440673828125">
        <ele>1391.800048828125</ele>
        <time>2018-08-12T09:35:14.000Z</time>
      </trkpt>
      <trkpt lat="40.65864044241607189178466796875" lon="-5.0071928836405277252197265625">
        <ele>1388</ele>
        <time>2018-08-12T09:35:17.000Z</time>
      </trkpt>
      <trkpt lat="40.6586812622845172882080078125" lon="-5.007294975221157073974609375">
        <ele>1387</ele>
        <time>2018-08-12T09:35:18.000Z</time>
      </trkpt>
      <trkpt lat="40.65874169580638408660888671875" lon="-5.0074805505573749542236328125">
        <ele>1385.4000244140625</ele>
        <time>2018-08-12T09:35:20.000Z</time>
      </trkpt>
      <trkpt lat="40.6587275303900241851806640625" lon="-5.00771750696003437042236328125">
        <ele>1383.4000244140625</ele>
        <time>2018-08-12T09:35:23.000Z</time>
      </trkpt>
      <trkpt lat="40.658781342208385467529296875" lon="-5.0081039965152740478515625">
        <ele>1379.800048828125</ele>
        <time>2018-08-12T09:35:28.000Z</time>
      </trkpt>
      <trkpt lat="40.65879668109118938446044921875" lon="-5.00818722881376743316650390625">
        <ele>1379.5999755859375</ele>
        <time>2018-08-12T09:35:29.000Z</time>
      </trkpt>
      <trkpt lat="40.65882392227649688720703125" lon="-5.0083817727863788604736328125">
        <ele>1378.800048828125</ele>
        <time>2018-08-12T09:35:31.000Z</time>
      </trkpt>
      <trkpt lat="40.6589149497449398040771484375" lon="-5.00867589376866817474365234375">
        <ele>1377.4000244140625</ele>
        <time>2018-08-12T09:35:34.000Z</time>
      </trkpt>
      <trkpt lat="40.65895308740437030792236328125" lon="-5.00900496728718280792236328125">
        <ele>1374.800048828125</ele>
        <time>2018-08-12T09:35:38.000Z</time>
      </trkpt>
      <trkpt lat="40.65901704132556915283203125" lon="-5.009232200682163238525390625">
        <ele>1370.5999755859375</ele>
        <time>2018-08-12T09:35:41.000Z</time>
      </trkpt>
      <trkpt lat="40.659123994410037994384765625" lon="-5.00939480960369110107421875">
        <ele>1368.5999755859375</ele>
        <time>2018-08-12T09:35:45.000Z</time>
      </trkpt>
      <trkpt lat="40.6591250002384185791015625" lon="-5.009419955313205718994140625">
        <ele>1368.4000244140625</ele>
        <time>2018-08-12T09:35:46.000Z</time>
      </trkpt>
      <trkpt lat="40.6591130979359149932861328125" lon="-5.009541995823383331298828125">
        <ele>1368.4000244140625</ele>
        <time>2018-08-12T09:35:51.000Z</time>
      </trkpt>
      <trkpt lat="40.65914017148315906524658203125" lon="-5.00990870408713817596435546875">
        <ele>1368.4000244140625</ele>
        <time>2018-08-12T09:36:00.000Z</time>
      </trkpt>
      <trkpt lat="40.659260116517543792724609375" lon="-5.0102953612804412841796875">
        <ele>1367.800048828125</ele>
        <time>2018-08-12T09:36:08.000Z</time>
      </trkpt>
      <trkpt lat="40.65927922725677490234375" lon="-5.01040960662066936492919921875">
        <ele>1367.5999755859375</ele>
        <time>2018-08-12T09:36:10.000Z</time>
      </trkpt>
      <trkpt lat="40.6592814065515995025634765625" lon="-5.010623596608638763427734375">
        <ele>1367.199951171875</ele>
        <time>2018-08-12T09:36:14.000Z</time>
      </trkpt>
      <trkpt lat="40.6592770479619503021240234375" lon="-5.01066039316356182098388671875">
        <ele>1367</ele>
        <time>2018-08-12T09:36:15.000Z</time>
      </trkpt>
      <trkpt lat="40.65926690585911273956298828125" lon="-5.01068738289177417755126953125">
        <ele>1366.800048828125</ele>
        <time>2018-08-12T09:36:16.000Z</time>
      </trkpt>
      <trkpt lat="40.65925517119467258453369140625" lon="-5.0107173062860965728759765625">
        <ele>1366.800048828125</ele>
        <time>2018-08-12T09:36:17.000Z</time>
      </trkpt>
      <trkpt lat="40.65920186229050159454345703125" lon="-5.011045038700103759765625">
        <ele>1366.4000244140625</ele>
        <time>2018-08-12T09:36:24.000Z</time>
      </trkpt>
      <trkpt lat="40.65927344374358654022216796875" lon="-5.01148131676018238067626953125">
        <ele>1366</ele>
        <time>2018-08-12T09:36:34.000Z</time>
      </trkpt>
      <trkpt lat="40.65929825417697429656982421875" lon="-5.011629760265350341796875">
        <ele>1366</ele>
        <time>2018-08-12T09:36:37.000Z</time>
      </trkpt>
      <trkpt lat="40.65931568853557109832763671875" lon="-5.01167745329439640045166015625">
        <ele>1366</ele>
        <time>2018-08-12T09:36:38.000Z</time>
      </trkpt>
      <trkpt lat="40.65933496691286563873291015625" lon="-5.01172305084764957427978515625">
        <ele>1366</ele>
        <time>2018-08-12T09:36:39.000Z</time>
      </trkpt>
      <trkpt lat="40.6594500504434108734130859375" lon="-5.01209185458719730377197265625">
        <ele>1365.4000244140625</ele>
        <time>2018-08-12T09:36:48.000Z</time>
      </trkpt>
      <trkpt lat="40.65949003212153911590576171875" lon="-5.01250608824193477630615234375">
        <ele>1365.5999755859375</ele>
        <time>2018-08-12T09:36:56.000Z</time>
      </trkpt>
      <trkpt lat="40.659516267478466033935546875" lon="-5.0126833654940128326416015625">
        <ele>1365.800048828125</ele>
        <time>2018-08-12T09:36:59.000Z</time>
      </trkpt>
      <trkpt lat="40.65956446342170238494873046875" lon="-5.012794174253940582275390625">
        <ele>1365.800048828125</ele>
        <time>2018-08-12T09:37:02.000Z</time>
      </trkpt>
      <trkpt lat="40.65958810038864612579345703125" lon="-5.01279660500586032867431640625">
        <ele>1365.800048828125</ele>
        <time>2018-08-12T09:37:03.000Z</time>
      </trkpt>
      <trkpt lat="40.65961441956460475921630859375" lon="-5.01279140822589397430419921875">
        <ele>1365.800048828125</ele>
        <time>2018-08-12T09:37:04.000Z</time>
      </trkpt>
      <trkpt lat="40.65964593552052974700927734375" lon="-5.012772046029567718505859375">
        <ele>1365.800048828125</ele>
        <time>2018-08-12T09:37:05.000Z</time>
      </trkpt>
      <trkpt lat="40.65967376343905925750732421875" lon="-5.0127370096743106842041015625">
        <ele>1365.800048828125</ele>
        <time>2018-08-12T09:37:06.000Z</time>
      </trkpt>
      <trkpt lat="40.65969656221568584442138671875" lon="-5.01269853673875331878662109375">
        <ele>1365.800048828125</ele>
        <time>2018-08-12T09:37:07.000Z</time>
      </trkpt>
      <trkpt lat="40.6597244739532470703125" lon="-5.01266576349735260009765625">
        <ele>1365.800048828125</ele>
        <time>2018-08-12T09:37:08.000Z</time>
      </trkpt>
      <trkpt lat="40.65975992940366268157958984375" lon="-5.01263718120753765106201171875">
        <ele>1365.800048828125</ele>
        <time>2018-08-12T09:37:09.000Z</time>
      </trkpt>
      <trkpt lat="40.659797899425029754638671875" lon="-5.01261387951672077178955078125">
        <ele>1365.800048828125</ele>
        <time>2018-08-12T09:37:10.000Z</time>
      </trkpt>
      <trkpt lat="40.6599197722971439361572265625" lon="-5.0124728120863437652587890625">
        <ele>1367</ele>
        <time>2018-08-12T09:37:17.000Z</time>
      </trkpt>
      <trkpt lat="40.659930668771266937255859375" lon="-5.0124518573284149169921875">
        <ele>1367.4000244140625</ele>
        <time>2018-08-12T09:37:18.000Z</time>
      </trkpt>
      <trkpt lat="40.6599442474544048309326171875" lon="-5.0124386139214038848876953125">
        <ele>1367.800048828125</ele>
        <time>2018-08-12T09:37:19.000Z</time>
      </trkpt>
      <trkpt lat="40.659959502518177032470703125" lon="-5.01236812211573123931884765625">
        <ele>1370.800048828125</ele>
        <time>2018-08-12T09:37:29.000Z</time>
      </trkpt>
      <trkpt lat="40.65994374454021453857421875" lon="-5.01238170079886913299560546875">
        <ele>1370.5999755859375</ele>
        <time>2018-08-12T09:38:49.000Z</time>
      </trkpt>
      <trkpt lat="40.65995388664305210113525390625" lon="-5.01234800554811954498291015625">
        <ele>1370.4000244140625</ele>
        <time>2018-08-12T09:40:07.000Z</time>
      </trkpt>
      <trkpt lat="40.6599591672420501708984375" lon="-5.01233518123626708984375">
        <ele>1370.4000244140625</ele>
        <time>2018-08-12T09:41:37.000Z</time>
      </trkpt>
      <trkpt lat="40.6599698960781097412109375" lon="-5.01233543269336223602294921875">
        <ele>1370.800048828125</ele>
        <time>2018-08-12T09:42:58.000Z</time>
      </trkpt>
      <trkpt lat="40.6599687226116657257080078125" lon="-5.01235730946063995361328125">
        <ele>1370.5999755859375</ele>
        <time>2018-08-12T09:44:27.000Z</time>
      </trkpt>
      <trkpt lat="40.659949779510498046875" lon="-5.01235605217516422271728515625">
        <ele>1370.5999755859375</ele>
        <time>2018-08-12T09:46:12.000Z</time>
      </trkpt>
      <trkpt lat="40.6599543057382106781005859375" lon="-5.0123625062406063079833984375">
        <ele>1370.4000244140625</ele>
        <time>2018-08-12T09:47:51.000Z</time>
      </trkpt>
      <trkpt lat="40.6599559821188449859619140625" lon="-5.0123400427401065826416015625">
        <ele>1370.5999755859375</ele>
        <time>2018-08-12T09:49:38.000Z</time>
      </trkpt>
      <trkpt lat="40.6599657051265239715576171875" lon="-5.0123356841504573822021484375">
        <ele>1370.4000244140625</ele>
        <time>2018-08-12T09:51:07.000Z</time>
      </trkpt>
      <trkpt lat="40.6599633581936359405517578125" lon="-5.01233325339853763580322265625">
        <ele>1370.4000244140625</ele>
        <time>2018-08-12T09:52:42.000Z</time>
      </trkpt>
      <trkpt lat="40.65994734875857830047607421875" lon="-5.01235672272741794586181640625">
        <ele>1370.199951171875</ele>
        <time>2018-08-12T09:54:07.000Z</time>
      </trkpt>
      <trkpt lat="40.6599479354918003082275390625" lon="-5.01236669719219207763671875">
        <ele>1371</ele>
        <time>2018-08-12T09:55:32.000Z</time>
      </trkpt>
      <trkpt lat="40.65994299016892910003662109375" lon="-5.01242168247699737548828125">
        <ele>1371.199951171875</ele>
        <time>2018-08-12T09:55:41.000Z</time>
      </trkpt>
      <trkpt lat="40.65997450612485408782958984375" lon="-5.012468285858631134033203125">
        <ele>1371.4000244140625</ele>
        <time>2018-08-12T09:55:57.000Z</time>
      </trkpt>
      <trkpt lat="40.65999043174088001251220703125" lon="-5.0124526955187320709228515625">
        <ele>1371.4000244140625</ele>
        <time>2018-08-12T09:56:39.000Z</time>
      </trkpt>
      <trkpt lat="40.659962184727191925048828125" lon="-5.01248144544661045074462890625">
        <ele>1370.5999755859375</ele>
        <time>2018-08-12T09:57:15.000Z</time>
      </trkpt>
      <trkpt lat="40.6599774397909641265869140625" lon="-5.01251162029802799224853515625">
        <ele>1370.199951171875</ele>
        <time>2018-08-12T09:57:24.000Z</time>
      </trkpt>
      <trkpt lat="40.65997333265841007232666015625" lon="-5.01252570189535617828369140625">
        <ele>1370</ele>
        <time>2018-08-12T09:57:42.000Z</time>
      </trkpt>
      <trkpt lat="40.65997232683002948760986328125" lon="-5.012506507337093353271484375">
        <ele>1370</ele>
        <time>2018-08-12T09:58:06.000Z</time>
      </trkpt>
      <trkpt lat="40.65997433848679065704345703125" lon="-5.012479014694690704345703125">
        <ele>1370.4000244140625</ele>
        <time>2018-08-12T09:59:10.000Z</time>
      </trkpt>
      <trkpt lat="40.6599784456193447113037109375" lon="-5.0124526955187320709228515625">
        <ele>1370.4000244140625</ele>
        <time>2018-08-12T09:59:12.000Z</time>
      </trkpt>
      <trkpt lat="40.659986324608325958251953125" lon="-5.01243836246430873870849609375">
        <ele>1370.4000244140625</ele>
        <time>2018-08-12T09:59:13.000Z</time>
      </trkpt>
      <trkpt lat="40.65999680198729038238525390625" lon="-5.01242830418050289154052734375">
        <ele>1370.4000244140625</ele>
        <time>2018-08-12T09:59:14.000Z</time>
      </trkpt>
      <trkpt lat="40.66013661213219165802001953125" lon="-5.0122947804629802703857421875">
        <ele>1371</ele>
        <time>2018-08-12T09:59:25.000Z</time>
      </trkpt>
      <trkpt lat="40.66017433069646358489990234375" lon="-5.01223820261657238006591796875">
        <ele>1372</ele>
        <time>2018-08-12T09:59:29.000Z</time>
      </trkpt>
      <trkpt lat="40.66022537648677825927734375" lon="-5.012026391923427581787109375">
        <ele>1374.5999755859375</ele>
        <time>2018-08-12T09:59:42.000Z</time>
      </trkpt>
      <trkpt lat="40.66038656048476696014404296875" lon="-5.01196210272610187530517578125">
        <ele>1375.800048828125</ele>
        <time>2018-08-12T09:59:54.000Z</time>
      </trkpt>
      <trkpt lat="40.6605685316026210784912109375" lon="-5.01192455179989337921142578125">
        <ele>1377.4000244140625</ele>
        <time>2018-08-12T10:00:07.000Z</time>
      </trkpt>
      <trkpt lat="40.660784952342510223388671875" lon="-5.011833943426609039306640625">
        <ele>1379.4000244140625</ele>
        <time>2018-08-12T10:00:23.000Z</time>
      </trkpt>
      <trkpt lat="40.66102894954383373260498046875" lon="-5.01180435530841350555419921875">
        <ele>1381.4000244140625</ele>
        <time>2018-08-12T10:00:37.000Z</time>
      </trkpt>
      <trkpt lat="40.66129733808338642120361328125" lon="-5.01186646521091461181640625">
        <ele>1383.800048828125</ele>
        <time>2018-08-12T10:00:53.000Z</time>
      </trkpt>
      <trkpt lat="40.66150235943496227264404296875" lon="-5.01204458065330982208251953125">
        <ele>1385.199951171875</ele>
        <time>2018-08-12T10:01:05.000Z</time>
      </trkpt>
      <trkpt lat="40.66176018677651882171630859375" lon="-5.01218640245497226715087890625">
        <ele>1386.199951171875</ele>
        <time>2018-08-12T10:01:18.000Z</time>
      </trkpt>
      <trkpt lat="40.662044249475002288818359375" lon="-5.012337528169155120849609375">
        <ele>1387.800048828125</ele>
        <time>2018-08-12T10:01:31.000Z</time>
      </trkpt>
      <trkpt lat="40.66234574653208255767822265625" lon="-5.012464933097362518310546875">
        <ele>1389</ele>
        <time>2018-08-12T10:01:44.000Z</time>
      </trkpt>
      <trkpt lat="40.66261748783290386199951171875" lon="-5.012514553964138031005859375">
        <ele>1391</ele>
        <time>2018-08-12T10:01:57.000Z</time>
      </trkpt>
      <trkpt lat="40.66291655413806438446044921875" lon="-5.01256040297448635101318359375">
        <ele>1392.800048828125</ele>
        <time>2018-08-12T10:02:11.000Z</time>
      </trkpt>
      <trkpt lat="40.66330480389297008514404296875" lon="-5.0125770829617977142333984375">
        <ele>1395.199951171875</ele>
        <time>2018-08-12T10:02:28.000Z</time>
      </trkpt>
      <trkpt lat="40.663687102496623992919921875" lon="-5.01255420036613941192626953125">
        <ele>1396.199951171875</ele>
        <time>2018-08-12T10:02:43.000Z</time>
      </trkpt>
      <trkpt lat="40.6639065407216548919677734375" lon="-5.01239544712007045745849609375">
        <ele>1396.4000244140625</ele>
        <time>2018-08-12T10:02:55.000Z</time>
      </trkpt>
      <trkpt lat="40.66407711245119571685791015625" lon="-5.01219662837684154510498046875">
        <ele>1397.199951171875</ele>
        <time>2018-08-12T10:03:06.000Z</time>
      </trkpt>
      <trkpt lat="40.6642153300344944000244140625" lon="-5.012041814625263214111328125">
        <ele>1398.199951171875</ele>
        <time>2018-08-12T10:03:16.000Z</time>
      </trkpt>
      <trkpt lat="40.6644852273166179656982421875" lon="-5.01198573969304561614990234375">
        <ele>1400.4000244140625</ele>
        <time>2018-08-12T10:03:28.000Z</time>
      </trkpt>
      <trkpt lat="40.66482511349022388458251953125" lon="-5.0120349414646625518798828125">
        <ele>1400.800048828125</ele>
        <time>2018-08-12T10:03:40.000Z</time>
      </trkpt>
      <trkpt lat="40.66510029137134552001953125" lon="-5.0119920261204242706298828125">
        <ele>1401.800048828125</ele>
        <time>2018-08-12T10:03:53.000Z</time>
      </trkpt>
      <trkpt lat="40.66538535989820957183837890625" lon="-5.012112222611904144287109375">
        <ele>1405</ele>
        <time>2018-08-12T10:04:09.000Z</time>
      </trkpt>
      <trkpt lat="40.665633715689182281494140625" lon="-5.0121610052883625030517578125">
        <ele>1408</ele>
        <time>2018-08-12T10:04:24.000Z</time>
      </trkpt>
      <trkpt lat="40.66583647392690181732177734375" lon="-5.01216678880155086517333984375">
        <ele>1409.800048828125</ele>
        <time>2018-08-12T10:04:36.000Z</time>
      </trkpt>
      <trkpt lat="40.66594309173524379730224609375" lon="-5.01229251734912395477294921875">
        <ele>1411.800048828125</ele>
        <time>2018-08-12T10:04:45.000Z</time>
      </trkpt>
      <trkpt lat="40.666114501655101776123046875" lon="-5.01250960864126682281494140625">
        <ele>1412.4000244140625</ele>
        <time>2018-08-12T10:04:59.000Z</time>
      </trkpt>
      <trkpt lat="40.6661676429212093353271484375" lon="-5.01253458671271800994873046875">
        <ele>1412.5999755859375</ele>
        <time>2018-08-12T10:05:03.000Z</time>
      </trkpt>
      <trkpt lat="40.66636973060667514801025390625" lon="-5.01281202770769596099853515625">
        <ele>1415.4000244140625</ele>
        <time>2018-08-12T10:05:20.000Z</time>
      </trkpt>
      <trkpt lat="40.6666138954460620880126953125" lon="-5.0128355808556079864501953125">
        <ele>1418</ele>
        <time>2018-08-12T10:05:35.000Z</time>
      </trkpt>
      <trkpt lat="40.666803829371929168701171875" lon="-5.01276902854442596435546875">
        <ele>1420</ele>
        <time>2018-08-12T10:05:47.000Z</time>
      </trkpt>
      <trkpt lat="40.66705671139061450958251953125" lon="-5.01282208599150180816650390625">
        <ele>1422.199951171875</ele>
        <time>2018-08-12T10:06:02.000Z</time>
      </trkpt>
      <trkpt lat="40.66725200973451137542724609375" lon="-5.01299207098782062530517578125">
        <ele>1422.4000244140625</ele>
        <time>2018-08-12T10:06:09.000Z</time>
      </trkpt>
      <trkpt lat="40.667399950325489044189453125" lon="-5.0131879560649394989013671875">
        <ele>1422.199951171875</ele>
        <time>2018-08-12T10:06:17.000Z</time>
      </trkpt>
      <trkpt lat="40.6676582805812358856201171875" lon="-5.01341569237411022186279296875">
        <ele>1422</ele>
        <time>2018-08-12T10:06:30.000Z</time>
      </trkpt>
      <trkpt lat="40.66782332025468349456787109375" lon="-5.0135649740695953369140625">
        <ele>1424.800048828125</ele>
        <time>2018-08-12T10:06:41.000Z</time>
      </trkpt>
      <trkpt lat="40.6680250726640224456787109375" lon="-5.01381550915539264678955078125">
        <ele>1427.4000244140625</ele>
        <time>2018-08-12T10:06:57.000Z</time>
      </trkpt>
      <trkpt lat="40.66817452199757099151611328125" lon="-5.0139782018959522247314453125">
        <ele>1430.199951171875</ele>
        <time>2018-08-12T10:07:09.000Z</time>
      </trkpt>
      <trkpt lat="40.66823177039623260498046875" lon="-5.01394107006490230560302734375">
        <ele>1431.199951171875</ele>
        <time>2018-08-12T10:07:13.000Z</time>
      </trkpt>
      <trkpt lat="40.66824174486100673675537109375" lon="-5.0137237273156642913818359375">
        <ele>1432.4000244140625</ele>
        <time>2018-08-12T10:07:23.000Z</time>
      </trkpt>
      <trkpt lat="40.66819799132645130157470703125" lon="-5.0134481303393840789794921875">
        <ele>1434</ele>
        <time>2018-08-12T10:07:38.000Z</time>
      </trkpt>
      <trkpt lat="40.66813546232879161834716796875" lon="-5.0131805799901485443115234375">
        <ele>1436.800048828125</ele>
        <time>2018-08-12T10:07:54.000Z</time>
      </trkpt>
      <trkpt lat="40.6680646352469921112060546875" lon="-5.012949071824550628662109375">
        <ele>1439.199951171875</ele>
        <time>2018-08-12T10:08:08.000Z</time>
      </trkpt>
      <trkpt lat="40.667984001338481903076171875" lon="-5.01275553368031978607177734375">
        <ele>1440.5999755859375</ele>
        <time>2018-08-12T10:08:20.000Z</time>
      </trkpt>
      <trkpt lat="40.66793111152946949005126953125" lon="-5.01256794668734073638916015625">
        <ele>1441.800048828125</ele>
        <time>2018-08-12T10:08:30.000Z</time>
      </trkpt>
      <trkpt lat="40.6678343005478382110595703125" lon="-5.01236761920154094696044921875">
        <ele>1444.199951171875</ele>
        <time>2018-08-12T10:08:43.000Z</time>
      </trkpt>
      <trkpt lat="40.66774520091712474822998046875" lon="-5.01215522177517414093017578125">
        <ele>1445.4000244140625</ele>
        <time>2018-08-12T10:08:55.000Z</time>
      </trkpt>
      <trkpt lat="40.667678229510784149169921875" lon="-5.01194952987134456634521484375">
        <ele>1445.800048828125</ele>
        <time>2018-08-12T10:09:07.000Z</time>
      </trkpt>
      <trkpt lat="40.6676274351775646209716796875" lon="-5.0117120705544948577880859375">
        <ele>1448.800048828125</ele>
        <time>2018-08-12T10:09:21.000Z</time>
      </trkpt>
      <trkpt lat="40.6676227413117885589599609375" lon="-5.0115226395428180694580078125">
        <ele>1451.800048828125</ele>
        <time>2018-08-12T10:09:33.000Z</time>
      </trkpt>
      <trkpt lat="40.66762953065335750579833984375" lon="-5.0114354677498340606689453125">
        <ele>1453.800048828125</ele>
        <time>2018-08-12T10:09:39.000Z</time>
      </trkpt>
      <trkpt lat="40.6676311232149600982666015625" lon="-5.01135039143264293670654296875">
        <ele>1456.5999755859375</ele>
        <time>2018-08-12T10:09:52.000Z</time>
      </trkpt>
      <trkpt lat="40.66764143295586109161376953125" lon="-5.011345110833644866943359375">
        <ele>1458.199951171875</ele>
        <time>2018-08-12T10:10:05.000Z</time>
      </trkpt>
      <trkpt lat="40.667678229510784149169921875" lon="-5.0112674944102764129638671875">
        <ele>1458.4000244140625</ele>
        <time>2018-08-12T10:10:19.000Z</time>
      </trkpt>
      <trkpt lat="40.66769826225936412811279296875" lon="-5.011120140552520751953125">
        <ele>1459.800048828125</ele>
        <time>2018-08-12T10:10:30.000Z</time>
      </trkpt>
      <trkpt lat="40.66768954508006572723388671875" lon="-5.01105417497456073760986328125">
        <ele>1460.800048828125</ele>
        <time>2018-08-12T10:10:35.000Z</time>
      </trkpt>
      <trkpt lat="40.6676663272082805633544921875" lon="-5.01092392019927501678466796875">
        <ele>1462.5999755859375</ele>
        <time>2018-08-12T10:10:46.000Z</time>
      </trkpt>
      <trkpt lat="40.667665489017963409423828125" lon="-5.010915286839008331298828125">
        <ele>1464.199951171875</ele>
        <time>2018-08-12T10:10:58.000Z</time>
      </trkpt>
      <trkpt lat="40.6676624715328216552734375" lon="-5.0109100900590419769287109375">
        <ele>1464.4000244140625</ele>
        <time>2018-08-12T10:11:09.000Z</time>
      </trkpt>
      <trkpt lat="40.66760170273482799530029296875" lon="-5.01082308590412139892578125">
        <ele>1464.5999755859375</ele>
        <time>2018-08-12T10:11:16.000Z</time>
      </trkpt>
      <trkpt lat="40.66747463308274745941162109375" lon="-5.0106747262179851531982421875">
        <ele>1465.4000244140625</ele>
        <time>2018-08-12T10:11:29.000Z</time>
      </trkpt>
      <trkpt lat="40.66741780377924442291259765625" lon="-5.0104393623769283294677734375">
        <ele>1467.199951171875</ele>
        <time>2018-08-12T10:11:43.000Z</time>
      </trkpt>
      <trkpt lat="40.667375139892101287841796875" lon="-5.01022470183670520782470703125">
        <ele>1469.199951171875</ele>
        <time>2018-08-12T10:11:55.000Z</time>
      </trkpt>
      <trkpt lat="40.66731956787407398223876953125" lon="-5.0100437365472316741943359375">
        <ele>1470.4000244140625</ele>
        <time>2018-08-12T10:12:06.000Z</time>
      </trkpt>
      <trkpt lat="40.66728134639561176300048828125" lon="-5.009843073785305023193359375">
        <ele>1472.4000244140625</ele>
        <time>2018-08-12T10:12:19.000Z</time>
      </trkpt>
      <trkpt lat="40.66725368611514568328857421875" lon="-5.00971558503806591033935546875">
        <ele>1473.5999755859375</ele>
        <time>2018-08-12T10:12:27.000Z</time>
      </trkpt>
      <trkpt lat="40.667239688336849212646484375" lon="-5.00966412015259265899658203125">
        <ele>1474.5999755859375</ele>
        <time>2018-08-12T10:12:31.000Z</time>
      </trkpt>
      <trkpt lat="40.6672140397131443023681640625" lon="-5.00959974713623523712158203125">
        <ele>1476.199951171875</ele>
        <time>2018-08-12T10:12:36.000Z</time>
      </trkpt>
      <trkpt lat="40.6671184860169887542724609375" lon="-5.00944317318499088287353515625">
        <ele>1478.800048828125</ele>
        <time>2018-08-12T10:12:49.000Z</time>
      </trkpt>
      <trkpt lat="40.66707498393952846527099609375" lon="-5.00924351625144481658935546875">
        <ele>1480.5999755859375</ele>
        <time>2018-08-12T10:13:02.000Z</time>
      </trkpt>
      <trkpt lat="40.66702217794954776763916015625" lon="-5.0091009400784969329833984375">
        <ele>1482.4000244140625</ele>
        <time>2018-08-12T10:13:12.000Z</time>
      </trkpt>
      <trkpt lat="40.66694757901132106781005859375" lon="-5.0089086592197418212890625">
        <ele>1483.800048828125</ele>
        <time>2018-08-12T10:13:24.000Z</time>
      </trkpt>
      <trkpt lat="40.666901730000972747802734375" lon="-5.00875418074429035186767578125">
        <ele>1484.800048828125</ele>
        <time>2018-08-12T10:13:34.000Z</time>
      </trkpt>
      <trkpt lat="40.66676418296992778778076171875" lon="-5.0086335651576519012451171875">
        <ele>1485.199951171875</ele>
        <time>2018-08-12T10:13:44.000Z</time>
      </trkpt>
      <trkpt lat="40.66670400090515613555908203125" lon="-5.0084888935089111328125">
        <ele>1485.4000244140625</ele>
        <time>2018-08-12T10:13:53.000Z</time>
      </trkpt>
      <trkpt lat="40.66662512719631195068359375" lon="-5.0082446448504924774169921875">
        <ele>1487.199951171875</ele>
        <time>2018-08-12T10:14:08.000Z</time>
      </trkpt>
      <trkpt lat="40.66656201146543025970458984375" lon="-5.00804339535534381866455078125">
        <ele>1489.199951171875</ele>
        <time>2018-08-12T10:14:21.000Z</time>
      </trkpt>
      <trkpt lat="40.6665796972811222076416015625" lon="-5.008001066744327545166015625">
        <ele>1489.4000244140625</ele>
        <time>2018-08-12T10:14:24.000Z</time>
      </trkpt>
      <trkpt lat="40.666736774146556854248046875" lon="-5.0079234503209590911865234375">
        <ele>1492.199951171875</ele>
        <time>2018-08-12T10:14:38.000Z</time>
      </trkpt>
      <trkpt lat="40.66688789986073970794677734375" lon="-5.00786016695201396942138671875">
        <ele>1493.5999755859375</ele>
        <time>2018-08-12T10:14:50.000Z</time>
      </trkpt>
      <trkpt lat="40.66702879965305328369140625" lon="-5.00779487192630767822265625">
        <ele>1495.199951171875</ele>
        <time>2018-08-12T10:15:01.000Z</time>
      </trkpt>
      <trkpt lat="40.66706995479762554168701171875" lon="-5.00769135542213916778564453125">
        <ele>1495.5999755859375</ele>
        <time>2018-08-12T10:15:07.000Z</time>
      </trkpt>
      <trkpt lat="40.66706911660730838775634765625" lon="-5.00763804651796817779541015625">
        <ele>1495.800048828125</ele>
        <time>2018-08-12T10:15:10.000Z</time>
      </trkpt>
      <trkpt lat="40.66705025732517242431640625" lon="-5.007558166980743408203125">
        <ele>1496.800048828125</ele>
        <time>2018-08-12T10:15:15.000Z</time>
      </trkpt>
      <trkpt lat="40.6669625826179981231689453125" lon="-5.0073568336665630340576171875">
        <ele>1499.5999755859375</ele>
        <time>2018-08-12T10:15:29.000Z</time>
      </trkpt>
      <trkpt lat="40.66678664647042751312255859375" lon="-5.00720403157174587249755859375">
        <ele>1501.4000244140625</ele>
        <time>2018-08-12T10:15:43.000Z</time>
      </trkpt>
      <trkpt lat="40.6666547991335391998291015625" lon="-5.0071088969707489013671875">
        <ele>1503</ele>
        <time>2018-08-12T10:15:55.000Z</time>
      </trkpt>
      <trkpt lat="40.6664616800844669342041015625" lon="-5.00704242847859859466552734375">
        <ele>1504.5999755859375</ele>
        <time>2018-08-12T10:16:10.000Z</time>
      </trkpt>
      <trkpt lat="40.6662953831255435943603515625" lon="-5.00699532218277454376220703125">
        <ele>1505.800048828125</ele>
        <time>2018-08-12T10:16:23.000Z</time>
      </trkpt>
      <trkpt lat="40.66624366678297519683837890625" lon="-5.00694653950631618499755859375">
        <ele>1507.800048828125</ele>
        <time>2018-08-12T10:16:28.000Z</time>
      </trkpt>
      <trkpt lat="40.6660620309412479400634765625" lon="-5.00690815038979053497314453125">
        <ele>1508.800048828125</ele>
        <time>2018-08-12T10:16:39.000Z</time>
      </trkpt>
      <trkpt lat="40.66583161242306232452392578125" lon="-5.00684025697410106658935546875">
        <ele>1508.199951171875</ele>
        <time>2018-08-12T10:16:48.000Z</time>
      </trkpt>
      <trkpt lat="40.665712840855121612548828125" lon="-5.0067355670034885406494140625">
        <ele>1508</ele>
        <time>2018-08-12T10:16:56.000Z</time>
      </trkpt>
      <trkpt lat="40.66561887972056865692138671875" lon="-5.00655175186693668365478515625">
        <ele>1508.5999755859375</ele>
        <time>2018-08-12T10:17:08.000Z</time>
      </trkpt>
      <trkpt lat="40.6655634753406047821044921875" lon="-5.00634103082120418548583984375">
        <ele>1510.4000244140625</ele>
        <time>2018-08-12T10:17:21.000Z</time>
      </trkpt>
      <trkpt lat="40.6655839271843433380126953125" lon="-5.0061285495758056640625">
        <ele>1513.199951171875</ele>
        <time>2018-08-12T10:17:34.000Z</time>
      </trkpt>
      <trkpt lat="40.6656379066407680511474609375" lon="-5.0059168227016925811767578125">
        <ele>1515.199951171875</ele>
        <time>2018-08-12T10:17:48.000Z</time>
      </trkpt>
      <trkpt lat="40.66559784114360809326171875" lon="-5.0056864880025386810302734375">
        <ele>1517.4000244140625</ele>
        <time>2018-08-12T10:18:03.000Z</time>
      </trkpt>
      <trkpt lat="40.66550773568451404571533203125" lon="-5.00547333620488643646240234375">
        <ele>1519.199951171875</ele>
        <time>2018-08-12T10:18:17.000Z</time>
      </trkpt>
      <trkpt lat="40.66540069878101348876953125" lon="-5.00525347888469696044921875">
        <ele>1521</ele>
        <time>2018-08-12T10:18:30.000Z</time>
      </trkpt>
      <trkpt lat="40.66525275819003582000732421875" lon="-5.00502607785165309906005859375">
        <ele>1522.199951171875</ele>
        <time>2018-08-12T10:18:42.000Z</time>
      </trkpt>
      <trkpt lat="40.66498587839305400848388671875" lon="-5.00471862964332103729248046875">
        <ele>1522.199951171875</ele>
        <time>2018-08-12T10:18:54.000Z</time>
      </trkpt>
      <trkpt lat="40.6647608242928981781005859375" lon="-5.00455417670309543609619140625">
        <ele>1521.800048828125</ele>
        <time>2018-08-12T10:19:01.000Z</time>
      </trkpt>
      <trkpt lat="40.66440048627555370330810546875" lon="-5.00460379756987094879150390625">
        <ele>1520.800048828125</ele>
        <time>2018-08-12T10:19:10.000Z</time>
      </trkpt>
      <trkpt lat="40.66435488872230052947998046875" lon="-5.00465534627437591552734375">
        <ele>1520</ele>
        <time>2018-08-12T10:19:12.000Z</time>
      </trkpt>
      <trkpt lat="40.664126984775066375732421875" lon="-5.00488542951643466949462890625">
        <ele>1519.4000244140625</ele>
        <time>2018-08-12T10:19:23.000Z</time>
      </trkpt>
      <trkpt lat="40.6639293394982814788818359375" lon="-5.0046823360025882720947265625">
        <ele>1521.199951171875</ele>
        <time>2018-08-12T10:19:31.000Z</time>
      </trkpt>
      <trkpt lat="40.663734711706638336181640625" lon="-5.0042893923819065093994140625">
        <ele>1522.5999755859375</ele>
        <time>2018-08-12T10:19:41.000Z</time>
      </trkpt>
      <trkpt lat="40.66348819993436336517333984375" lon="-5.00394590198993682861328125">
        <ele>1522.199951171875</ele>
        <time>2018-08-12T10:19:50.000Z</time>
      </trkpt>
      <trkpt lat="40.66330614499747753143310546875" lon="-5.00380567274987697601318359375">
        <ele>1521.800048828125</ele>
        <time>2018-08-12T10:19:55.000Z</time>
      </trkpt>
      <trkpt lat="40.663130544126033782958984375" lon="-5.0037301518023014068603515625">
        <ele>1521.800048828125</ele>
        <time>2018-08-12T10:20:00.000Z</time>
      </trkpt>
      <trkpt lat="40.66293968819081783294677734375" lon="-5.003542564809322357177734375">
        <ele>1521.5999755859375</ele>
        <time>2018-08-12T10:20:07.000Z</time>
      </trkpt>
      <trkpt lat="40.66291957162320613861083984375" lon="-5.00350560061633586883544921875">
        <ele>1521.5999755859375</ele>
        <time>2018-08-12T10:20:08.000Z</time>
      </trkpt>
      <trkpt lat="40.6627481617033481597900390625" lon="-5.00311575829982757568359375">
        <ele>1521.199951171875</ele>
        <time>2018-08-12T10:20:14.000Z</time>
      </trkpt>
      <trkpt lat="40.66268093883991241455078125" lon="-5.0029888562858104705810546875">
        <ele>1521</ele>
        <time>2018-08-12T10:20:17.000Z</time>
      </trkpt>
      <trkpt lat="40.6626760773360729217529296875" lon="-5.00291048549115657806396484375">
        <ele>1519.4000244140625</ele>
        <time>2018-08-12T10:20:20.000Z</time>
      </trkpt>
      <trkpt lat="40.6626869738101959228515625" lon="-5.00288299284875392913818359375">
        <ele>1516.4000244140625</ele>
        <time>2018-08-12T10:20:23.000Z</time>
      </trkpt>
      <trkpt lat="40.6626945175230503082275390625" lon="-5.0028669834136962890625">
        <ele>1514.4000244140625</ele>
        <time>2018-08-12T10:20:48.000Z</time>
      </trkpt>
      <trkpt lat="40.66269426606595516204833984375" lon="-5.0028557516634464263916015625">
        <ele>1514.4000244140625</ele>
        <time>2018-08-12T10:21:28.000Z</time>
      </trkpt>
      <trkpt lat="40.66272293217480182647705078125" lon="-5.002715103328227996826171875">
        <ele>1514.4000244140625</ele>
        <time>2018-08-12T10:21:32.000Z</time>
      </trkpt>
      <trkpt lat="40.6627270393073558807373046875" lon="-5.0025147758424282073974609375">
        <ele>1514.4000244140625</ele>
        <time>2018-08-12T10:21:36.000Z</time>
      </trkpt>
      <trkpt lat="40.66276987083256244659423828125" lon="-5.0021100975573062896728515625">
        <ele>1511.199951171875</ele>
        <time>2018-08-12T10:21:44.000Z</time>
      </trkpt>
      <trkpt lat="40.6627723015844821929931640625" lon="-5.001980848610401153564453125">
        <ele>1508.5999755859375</ele>
        <time>2018-08-12T10:21:49.000Z</time>
      </trkpt>
      <trkpt lat="40.6628195755183696746826171875" lon="-5.0019488297402858734130859375">
        <ele>1507.800048828125</ele>
        <time>2018-08-12T10:21:51.000Z</time>
      </trkpt>
      <trkpt lat="40.662849582731723785400390625" lon="-5.00193248502910137176513671875">
        <ele>1507.5999755859375</ele>
        <time>2018-08-12T10:21:52.000Z</time>
      </trkpt>
      <trkpt lat="40.6645744107663631439208984375" lon="-4.99664702452719211578369140625">
        <ele>1466.4000244140625</ele>
        <time>2018-08-12T10:24:52.000Z</time>
      </trkpt>
      <trkpt lat="40.66457449458539485931396484375" lon="-4.9966424144804477691650390625">
        <ele>1466.4000244140625</ele>
        <time>2018-08-12T10:24:53.000Z</time>
      </trkpt>
      <trkpt lat="40.66461606882512569427490234375" lon="-4.9964466132223606109619140625">
        <ele>1467</ele>
        <time>2018-08-12T10:25:09.000Z</time>
      </trkpt>
      <trkpt lat="40.6646578945219516754150390625" lon="-4.9961924739181995391845703125">
        <ele>1467.4000244140625</ele>
        <time>2018-08-12T10:25:22.000Z</time>
      </trkpt>
      <trkpt lat="40.66465864889323711395263671875" lon="-4.996130280196666717529296875">
        <ele>1468</ele>
        <time>2018-08-12T10:25:28.000Z</time>
      </trkpt>
      <trkpt lat="40.6647415459156036376953125" lon="-4.99594948254525661468505859375">
        <ele>1468.5999755859375</ele>
        <time>2018-08-12T10:25:37.000Z</time>
      </trkpt>
      <trkpt lat="40.66480130888521671295166015625" lon="-4.99577145092189311981201171875">
        <ele>1468.5999755859375</ele>
        <time>2018-08-12T10:25:41.000Z</time>
      </trkpt>
      <trkpt lat="40.66486467607319355010986328125" lon="-4.99538705684244632720947265625">
        <ele>1467.4000244140625</ele>
        <time>2018-08-12T10:25:49.000Z</time>
      </trkpt>
      <trkpt lat="40.66485160030424594879150390625" lon="-4.995037950575351715087890625">
        <ele>1466</ele>
        <time>2018-08-12T10:25:59.000Z</time>
      </trkpt>
      <trkpt lat="40.66481203772127628326416015625" lon="-4.99481960199773311614990234375">
        <ele>1466.199951171875</ele>
        <time>2018-08-12T10:26:07.000Z</time>
      </trkpt>
      <trkpt lat="40.66478370688855648040771484375" lon="-4.994507543742656707763671875">
        <ele>1469.4000244140625</ele>
        <time>2018-08-12T10:26:19.000Z</time>
      </trkpt>
      <trkpt lat="40.66479577682912349700927734375" lon="-4.99413781799376010894775390625">
        <ele>1469.800048828125</ele>
        <time>2018-08-12T10:26:28.000Z</time>
      </trkpt>
      <trkpt lat="40.6648379378020763397216796875" lon="-4.993729032576084136962890625">
        <ele>1470</ele>
        <time>2018-08-12T10:26:39.000Z</time>
      </trkpt>
      <trkpt lat="40.6648064218461513519287109375" lon="-4.99335830099880695343017578125">
        <ele>1470.800048828125</ele>
        <time>2018-08-12T10:26:49.000Z</time>
      </trkpt>
      <trkpt lat="40.66473559476435184478759765625" lon="-4.99308538623154163360595703125">
        <ele>1470.800048828125</ele>
        <time>2018-08-12T10:26:58.000Z</time>
      </trkpt>
      <trkpt lat="40.6647817790508270263671875" lon="-4.99284021556377410888671875">
        <ele>1471.4000244140625</ele>
        <time>2018-08-12T10:27:08.000Z</time>
      </trkpt>
      <trkpt lat="40.66490725614130496978759765625" lon="-4.99249865300953388214111328125">
        <ele>1472.5999755859375</ele>
        <time>2018-08-12T10:27:18.000Z</time>
      </trkpt>
      <trkpt lat="40.66491781733930110931396484375" lon="-4.99244618229568004608154296875">
        <ele>1472.5999755859375</ele>
        <time>2018-08-12T10:27:19.000Z</time>
      </trkpt>
      <trkpt lat="40.66494011320173740386962890625" lon="-4.99209665693342685699462890625">
        <ele>1471.4000244140625</ele>
        <time>2018-08-12T10:27:27.000Z</time>
      </trkpt>
      <trkpt lat="40.66491262055933475494384765625" lon="-4.99182240106165409088134765625">
        <ele>1470.5999755859375</ele>
        <time>2018-08-12T10:27:38.000Z</time>
      </trkpt>
      <trkpt lat="40.66493625752627849578857421875" lon="-4.9915700219571590423583984375">
        <ele>1472.199951171875</ele>
        <time>2018-08-12T10:27:50.000Z</time>
      </trkpt>
      <trkpt lat="40.66501286812126636505126953125" lon="-4.991322420537471771240234375">
        <ele>1473.800048828125</ele>
        <time>2018-08-12T10:28:03.000Z</time>
      </trkpt>
      <trkpt lat="40.66510272212326526641845703125" lon="-4.99112485907971858978271484375">
        <ele>1475</ele>
        <time>2018-08-12T10:28:15.000Z</time>
      </trkpt>
      <trkpt lat="40.6652379222214221954345703125" lon="-4.99089251272380352020263671875">
        <ele>1476.5999755859375</ele>
        <time>2018-08-12T10:28:32.000Z</time>
      </trkpt>
      <trkpt lat="40.66526264883577823638916015625" lon="-4.99081690795719623565673828125">
        <ele>1477.199951171875</ele>
        <time>2018-08-12T10:28:42.000Z</time>
      </trkpt>
      <trkpt lat="40.66529684700071811676025390625" lon="-4.9907050095498561859130859375">
        <ele>1478.199951171875</ele>
        <time>2018-08-12T10:28:55.000Z</time>
      </trkpt>
      <trkpt lat="40.66537865437567234039306640625" lon="-4.9905970506370067596435546875">
        <ele>1479</ele>
        <time>2018-08-12T10:29:07.000Z</time>
      </trkpt>
      <trkpt lat="40.6654791533946990966796875" lon="-4.990407116711139678955078125">
        <ele>1480.800048828125</ele>
        <time>2018-08-12T10:29:26.000Z</time>
      </trkpt>
      <trkpt lat="40.66558987833559513092041015625" lon="-4.99025096185505390167236328125">
        <ele>1483.800048828125</ele>
        <time>2018-08-12T10:29:44.000Z</time>
      </trkpt>
      <trkpt lat="40.6656576879322528839111328125" lon="-4.99016848392784595489501953125">
        <ele>1485.5999755859375</ele>
        <time>2018-08-12T10:30:00.000Z</time>
      </trkpt>
      <trkpt lat="40.66566866822540760040283203125" lon="-4.990142248570919036865234375">
        <ele>1485.5999755859375</ele>
        <time>2018-08-12T10:30:03.000Z</time>
      </trkpt>
      <trkpt lat="40.66585063934326171875" lon="-4.9898919649422168731689453125">
        <ele>1487</ele>
        <time>2018-08-12T10:30:25.000Z</time>
      </trkpt>
      <trkpt lat="40.6659051217138767242431640625" lon="-4.98978207819163799285888671875">
        <ele>1487.4000244140625</ele>
        <time>2018-08-12T10:30:33.000Z</time>
      </trkpt>
      <trkpt lat="40.6659865938127040863037109375" lon="-4.9896988458931446075439453125">
        <ele>1488</ele>
        <time>2018-08-12T10:30:45.000Z</time>
      </trkpt>
      <trkpt lat="40.66611810587346553802490234375" lon="-4.98943456448614597320556640625">
        <ele>1488.800048828125</ele>
        <time>2018-08-12T10:31:00.000Z</time>
      </trkpt>
      <trkpt lat="40.6662729196250438690185546875" lon="-4.98921797610819339752197265625">
        <ele>1489.800048828125</ele>
        <time>2018-08-12T10:31:13.000Z</time>
      </trkpt>
      <trkpt lat="40.66639370284974575042724609375" lon="-4.9890698678791522979736328125">
        <ele>1490.5999755859375</ele>
        <time>2018-08-12T10:31:23.000Z</time>
      </trkpt>
      <trkpt lat="40.66652999259531497955322265625" lon="-4.988941289484500885009765625">
        <ele>1491.5999755859375</ele>
        <time>2018-08-12T10:31:30.000Z</time>
      </trkpt>
      <trkpt lat="40.66661364398896694183349609375" lon="-4.98883274383842945098876953125">
        <ele>1491.5999755859375</ele>
        <time>2018-08-12T10:31:35.000Z</time>
      </trkpt>
      <trkpt lat="40.66671892069280147552490234375" lon="-4.9886172451078891754150390625">
        <ele>1491.4000244140625</ele>
        <time>2018-08-12T10:31:43.000Z</time>
      </trkpt>
      <trkpt lat="40.666845738887786865234375" lon="-4.98830636031925678253173828125">
        <ele>1491</ele>
        <time>2018-08-12T10:31:51.000Z</time>
      </trkpt>
      <trkpt lat="40.6669521890580654144287109375" lon="-4.98794962652027606964111328125">
        <ele>1490.800048828125</ele>
        <time>2018-08-12T10:32:03.000Z</time>
      </trkpt>
      <trkpt lat="40.66704757511615753173828125" lon="-4.98767989687621593475341796875">
        <ele>1491.199951171875</ele>
        <time>2018-08-12T10:32:13.000Z</time>
      </trkpt>
      <trkpt lat="40.66715352237224578857421875" lon="-4.98731327243149280548095703125">
        <ele>1491.4000244140625</ele>
        <time>2018-08-12T10:32:24.000Z</time>
      </trkpt>
      <trkpt lat="40.66718579269945621490478515625" lon="-4.9870290420949459075927734375">
        <ele>1491.5999755859375</ele>
        <time>2018-08-12T10:32:33.000Z</time>
      </trkpt>
      <trkpt lat="40.6672603078186511993408203125" lon="-4.986690916121006011962890625">
        <ele>1492</ele>
        <time>2018-08-12T10:32:42.000Z</time>
      </trkpt>
      <trkpt lat="40.66737002693116664886474609375" lon="-4.986310042440891265869140625">
        <ele>1492</ele>
        <time>2018-08-12T10:32:50.000Z</time>
      </trkpt>
      <trkpt lat="40.66747144795954227447509765625" lon="-4.98610979877412319183349609375">
        <ele>1491.800048828125</ele>
        <time>2018-08-12T10:32:54.000Z</time>
      </trkpt>
      <trkpt lat="40.667514614760875701904296875" lon="-4.9860074557363986968994140625">
        <ele>1491.800048828125</ele>
        <time>2018-08-12T10:32:56.000Z</time>
      </trkpt>
      <trkpt lat="40.6675553508102893829345703125" lon="-4.985539577901363372802734375">
        <ele>1490.5999755859375</ele>
        <time>2018-08-12T10:33:05.000Z</time>
      </trkpt>
      <trkpt lat="40.6675979308784008026123046875" lon="-4.9848772399127483367919921875">
        <ele>1488</ele>
        <time>2018-08-12T10:33:16.000Z</time>
      </trkpt>
      <trkpt lat="40.66755124367773532867431640625" lon="-4.98453651554882526397705078125">
        <ele>1487.4000244140625</ele>
        <time>2018-08-12T10:33:21.000Z</time>
      </trkpt>
      <trkpt lat="40.66755576990544795989990234375" lon="-4.98440139926970005035400390625">
        <ele>1487.199951171875</ele>
        <time>2018-08-12T10:33:23.000Z</time>
      </trkpt>
      <trkpt lat="40.667540095746517181396484375" lon="-4.98405053280293941497802734375">
        <ele>1485.5999755859375</ele>
        <time>2018-08-12T10:33:28.000Z</time>
      </trkpt>
      <trkpt lat="40.66753984428942203521728515625" lon="-4.983757250010967254638671875">
        <ele>1485</ele>
        <time>2018-08-12T10:33:32.000Z</time>
      </trkpt>
      <trkpt lat="40.66753431223332881927490234375" lon="-4.98358433134853839874267578125">
        <ele>1484.199951171875</ele>
        <time>2018-08-12T10:33:34.000Z</time>
      </trkpt>
      <trkpt lat="40.66754520870745182037353515625" lon="-4.98317479155957698822021484375">
        <ele>1480.800048828125</ele>
        <time>2018-08-12T10:33:41.000Z</time>
      </trkpt>
      <trkpt lat="40.667519979178905487060546875" lon="-4.9829678423702716827392578125">
        <ele>1478</ele>
        <time>2018-08-12T10:33:46.000Z</time>
      </trkpt>
      <trkpt lat="40.6674728728830814361572265625" lon="-4.98257816769182682037353515625">
        <ele>1476.199951171875</ele>
        <time>2018-08-12T10:33:52.000Z</time>
      </trkpt>
      <trkpt lat="40.667420737445354461669921875" lon="-4.98236359097063541412353515625">
        <ele>1474.800048828125</ele>
        <time>2018-08-12T10:33:55.000Z</time>
      </trkpt>
      <trkpt lat="40.66739148460328578948974609375" lon="-4.98216980136930942535400390625">
        <ele>1473.5999755859375</ele>
        <time>2018-08-12T10:33:58.000Z</time>
      </trkpt>
      <trkpt lat="40.66737622953951358795166015625" lon="-4.98202848248183727264404296875">
        <ele>1472.199951171875</ele>
        <time>2018-08-12T10:34:00.000Z</time>
      </trkpt>
      <trkpt lat="40.66735024563968181610107421875" lon="-4.9818912707269191741943359375">
        <ele>1471.800048828125</ele>
        <time>2018-08-12T10:34:02.000Z</time>
      </trkpt>
      <trkpt lat="40.66729257814586162567138671875" lon="-4.9815791286528110504150390625">
        <ele>1471</ele>
        <time>2018-08-12T10:34:07.000Z</time>
      </trkpt>
      <trkpt lat="40.66729274578392505645751953125" lon="-4.981372766196727752685546875">
        <ele>1469.4000244140625</ele>
        <time>2018-08-12T10:34:11.000Z</time>
      </trkpt>
      <trkpt lat="40.6672950088977813720703125" lon="-4.98105718754231929779052734375">
        <ele>1467.5999755859375</ele>
        <time>2018-08-12T10:34:18.000Z</time>
      </trkpt>
      <trkpt lat="40.6672896444797515869140625" lon="-4.98077304102480411529541015625">
        <ele>1464.4000244140625</ele>
        <time>2018-08-12T10:34:26.000Z</time>
      </trkpt>
      <trkpt lat="40.6672975234687328338623046875" lon="-4.98040817677974700927734375">
        <ele>1463.800048828125</ele>
        <time>2018-08-12T10:34:34.000Z</time>
      </trkpt>
      <trkpt lat="40.66732727922499179840087890625" lon="-4.9799865670502185821533203125">
        <ele>1463.4000244140625</ele>
        <time>2018-08-12T10:34:45.000Z</time>
      </trkpt>
      <trkpt lat="40.66740489564836025238037109375" lon="-4.97961700893938541412353515625">
        <ele>1463.4000244140625</ele>
        <time>2018-08-12T10:34:55.000Z</time>
      </trkpt>
      <trkpt lat="40.66737907938659191131591796875" lon="-4.97902139090001583099365234375">
        <ele>1461.5999755859375</ele>
        <time>2018-08-12T10:35:07.000Z</time>
      </trkpt>
      <trkpt lat="40.6673696078360080718994140625" lon="-4.9784838594496250152587890625">
        <ele>1460</ele>
        <time>2018-08-12T10:35:17.000Z</time>
      </trkpt>
      <trkpt lat="40.6673612259328365325927734375" lon="-4.97842107899487018585205078125">
        <ele>1459.800048828125</ele>
        <time>2018-08-12T10:35:18.000Z</time>
      </trkpt>
      <trkpt lat="40.6673236750066280364990234375" lon="-4.9782364256680011749267578125">
        <ele>1459.4000244140625</ele>
        <time>2018-08-12T10:35:21.000Z</time>
      </trkpt>
      <trkpt lat="40.6671778298914432525634765625" lon="-4.97751549817621707916259765625">
        <ele>1456.4000244140625</ele>
        <time>2018-08-12T10:35:33.000Z</time>
      </trkpt>
      <trkpt lat="40.6671151332557201385498046875" lon="-4.97709673829376697540283203125">
        <ele>1455</ele>
        <time>2018-08-12T10:35:39.000Z</time>
      </trkpt>
      <trkpt lat="40.66701547242701053619384765625" lon="-4.97644529677927494049072265625">
        <ele>1453.4000244140625</ele>
        <time>2018-08-12T10:35:49.000Z</time>
      </trkpt>
      <trkpt lat="40.6668767519295215606689453125" lon="-4.97570492327213287353515625">
        <ele>1451.800048828125</ele>
        <time>2018-08-12T10:35:59.000Z</time>
      </trkpt>
      <trkpt lat="40.666852779686450958251953125" lon="-4.97501299716532230377197265625">
        <ele>1450.5999755859375</ele>
        <time>2018-08-12T10:36:11.000Z</time>
      </trkpt>
      <trkpt lat="40.66678681410849094390869140625" lon="-4.9743787385523319244384765625">
        <ele>1452.800048828125</ele>
        <time>2018-08-12T10:36:22.000Z</time>
      </trkpt>
      <trkpt lat="40.66674071364104747772216796875" lon="-4.97413507662713527679443359375">
        <ele>1453.4000244140625</ele>
        <time>2018-08-12T10:36:27.000Z</time>
      </trkpt>
      <trkpt lat="40.66671632230281829833984375" lon="-4.97403323650360107421875">
        <ele>1453.800048828125</ele>
        <time>2018-08-12T10:36:29.000Z</time>
      </trkpt>
      <trkpt lat="40.66654591821134090423583984375" lon="-4.97352872975170612335205078125">
        <ele>1454.4000244140625</ele>
        <time>2018-08-12T10:36:38.000Z</time>
      </trkpt>
      <trkpt lat="40.6665126420557498931884765625" lon="-4.9733988940715789794921875">
        <ele>1454.4000244140625</ele>
        <time>2018-08-12T10:36:40.000Z</time>
      </trkpt>
      <trkpt lat="40.66636889241635799407958984375" lon="-4.97294233180582523345947265625">
        <ele>1451.199951171875</ele>
        <time>2018-08-12T10:36:49.000Z</time>
      </trkpt>
      <trkpt lat="40.66636361181735992431640625" lon="-4.9728906154632568359375">
        <ele>1451.199951171875</ele>
        <time>2018-08-12T10:36:50.000Z</time>
      </trkpt>
      <trkpt lat="40.666352212429046630859375" lon="-4.972671009600162506103515625">
        <ele>1449.5999755859375</ele>
        <time>2018-08-12T10:36:54.000Z</time>
      </trkpt>
      <trkpt lat="40.6663781963288784027099609375" lon="-4.97254100628197193145751953125">
        <ele>1448.4000244140625</ele>
        <time>2018-08-12T10:36:56.000Z</time>
      </trkpt>
      <trkpt lat="40.6663610972464084625244140625" lon="-4.9722584523260593414306640625">
        <ele>1446</ele>
        <time>2018-08-12T10:37:01.000Z</time>
      </trkpt>
      <trkpt lat="40.66625992767512798309326171875" lon="-4.971958883106708526611328125">
        <ele>1442.800048828125</ele>
        <time>2018-08-12T10:37:08.000Z</time>
      </trkpt>
      <trkpt lat="40.66637392155826091766357421875" lon="-4.97145756147801876068115234375">
        <ele>1438</ele>
        <time>2018-08-12T10:37:16.000Z</time>
      </trkpt>
      <trkpt lat="40.66639001481235027313232421875" lon="-4.97139939107000827789306640625">
        <ele>1437.4000244140625</ele>
        <time>2018-08-12T10:37:17.000Z</time>
      </trkpt>
      <trkpt lat="40.66641113720834255218505859375" lon="-4.97120442800223827362060546875">
        <ele>1435.5999755859375</ele>
        <time>2018-08-12T10:37:20.000Z</time>
      </trkpt>
      <trkpt lat="40.66636185161769390106201171875" lon="-4.971027486026287078857421875">
        <ele>1433</ele>
        <time>2018-08-12T10:37:23.000Z</time>
      </trkpt>
      <trkpt lat="40.66628582775592803955078125" lon="-4.970870576798915863037109375">
        <ele>1431.5999755859375</ele>
        <time>2018-08-12T10:37:26.000Z</time>
      </trkpt>
      <trkpt lat="40.66623914055526256561279296875" lon="-4.9707218818366527557373046875">
        <ele>1430.199951171875</ele>
        <time>2018-08-12T10:37:29.000Z</time>
      </trkpt>
      <trkpt lat="40.66609715111553668975830078125" lon="-4.97066396288573741912841796875">
        <ele>1427.800048828125</ele>
        <time>2018-08-12T10:37:33.000Z</time>
      </trkpt>
      <trkpt lat="40.66602439619600772857666015625" lon="-4.97067569755017757415771484375">
        <ele>1426.199951171875</ele>
        <time>2018-08-12T10:37:36.000Z</time>
      </trkpt>
      <trkpt lat="40.66593370400369167327880859375" lon="-4.97066228650510311126708984375">
        <ele>1425.5999755859375</ele>
        <time>2018-08-12T10:37:40.000Z</time>
      </trkpt>
      <trkpt lat="40.6658927164971828460693359375" lon="-4.97063965536653995513916015625">
        <ele>1425.199951171875</ele>
        <time>2018-08-12T10:37:49.000Z</time>
      </trkpt>
      <trkpt lat="40.6658746115863323211669921875" lon="-4.9706323631107807159423828125">
        <ele>1425.4000244140625</ele>
        <time>2018-08-12T10:37:55.000Z</time>
      </trkpt>
      <trkpt lat="40.66580948419868946075439453125" lon="-4.97058349661529064178466796875">
        <ele>1425.199951171875</ele>
        <time>2018-08-12T10:37:59.000Z</time>
      </trkpt>
      <trkpt lat="40.6656741164624691009521484375" lon="-4.97041426599025726318359375">
        <ele>1425</ele>
        <time>2018-08-12T10:38:05.000Z</time>
      </trkpt>
      <trkpt lat="40.66558937542140483856201171875" lon="-4.9702794849872589111328125">
        <ele>1424.5999755859375</ele>
        <time>2018-08-12T10:38:08.000Z</time>
      </trkpt>
      <trkpt lat="40.66535535268485546112060546875" lon="-4.96985862962901592254638671875">
        <ele>1421.4000244140625</ele>
        <time>2018-08-12T10:38:17.000Z</time>
      </trkpt>
      <trkpt lat="40.6650955975055694580078125" lon="-4.9695552885532379150390625">
        <ele>1418</ele>
        <time>2018-08-12T10:38:25.000Z</time>
      </trkpt>
      <trkpt lat="40.6651356630027294158935546875" lon="-4.96929855085909366607666015625">
        <ele>1414.4000244140625</ele>
        <time>2018-08-12T10:38:30.000Z</time>
      </trkpt>
      <trkpt lat="40.66522375680506229400634765625" lon="-4.96908950619399547576904296875">
        <ele>1412.199951171875</ele>
        <time>2018-08-12T10:38:34.000Z</time>
      </trkpt>
      <trkpt lat="40.66528134047985076904296875" lon="-4.96891013346612453460693359375">
        <ele>1410</ele>
        <time>2018-08-12T10:38:37.000Z</time>
      </trkpt>
      <trkpt lat="40.66547269932925701141357421875" lon="-4.968671165406703948974609375">
        <ele>1407</ele>
        <time>2018-08-12T10:38:43.000Z</time>
      </trkpt>
      <trkpt lat="40.66556967794895172119140625" lon="-4.96861894614994525909423828125">
        <ele>1405.800048828125</ele>
        <time>2018-08-12T10:38:45.000Z</time>
      </trkpt>
      <trkpt lat="40.665712840855121612548828125" lon="-4.96843102388083934783935546875">
        <ele>1404.5999755859375</ele>
        <time>2018-08-12T10:38:49.000Z</time>
      </trkpt>
      <trkpt lat="40.66574963741004467010498046875" lon="-4.96828920207917690277099609375">
        <ele>1403.5999755859375</ele>
        <time>2018-08-12T10:38:51.000Z</time>
      </trkpt>
      <trkpt lat="40.66583060659468173980712890625" lon="-4.967957027256488800048828125">
        <ele>1400.199951171875</ele>
        <time>2018-08-12T10:38:55.000Z</time>
      </trkpt>
      <trkpt lat="40.66585340537130832672119140625" lon="-4.96780640445649623870849609375">
        <ele>1399.5999755859375</ele>
        <time>2018-08-12T10:38:57.000Z</time>
      </trkpt>
      <trkpt lat="40.6658538244664669036865234375" lon="-4.96766030788421630859375">
        <ele>1398.800048828125</ele>
        <time>2018-08-12T10:38:59.000Z</time>
      </trkpt>
      <trkpt lat="40.66590973176062107086181640625" lon="-4.9673339165747165679931640625">
        <ele>1395</ele>
        <time>2018-08-12T10:39:04.000Z</time>
      </trkpt>
      <trkpt lat="40.6660214625298976898193359375" lon="-4.966951869428157806396484375">
        <ele>1393.4000244140625</ele>
        <time>2018-08-12T10:39:10.000Z</time>
      </trkpt>
      <trkpt lat="40.666038729250431060791015625" lon="-4.966573677957057952880859375">
        <ele>1389.5999755859375</ele>
        <time>2018-08-12T10:39:17.000Z</time>
      </trkpt>
      <trkpt lat="40.66604518331587314605712890625" lon="-4.96646068990230560302734375">
        <ele>1389</ele>
        <time>2018-08-12T10:39:21.000Z</time>
      </trkpt>
      <trkpt lat="40.66606261767446994781494140625" lon="-4.9664578400552272796630859375">
        <ele>1388.4000244140625</ele>
        <time>2018-08-12T10:39:22.000Z</time>
      </trkpt>
      <trkpt lat="40.66608390770852565765380859375" lon="-4.9664632044732570648193359375">
        <ele>1386.199951171875</ele>
        <time>2018-08-12T10:39:31.000Z</time>
      </trkpt>
      <trkpt lat="40.6660692393779754638671875" lon="-4.96648005209863185882568359375">
        <ele>1386.199951171875</ele>
        <time>2018-08-12T10:40:03.000Z</time>
      </trkpt>
      <trkpt lat="40.6660469435155391693115234375" lon="-4.9664340354502201080322265625">
        <ele>1386</ele>
        <time>2018-08-12T10:40:31.000Z</time>
      </trkpt>
      <trkpt lat="40.6659989990293979644775390625" lon="-4.96651743538677692413330078125">
        <ele>1385.800048828125</ele>
        <time>2018-08-12T10:40:46.000Z</time>
      </trkpt>
      <trkpt lat="40.66601098515093326568603515625" lon="-4.9665020965039730072021484375">
        <ele>1386</ele>
        <time>2018-08-12T10:41:15.000Z</time>
      </trkpt>
      <trkpt lat="40.6659879349172115325927734375" lon="-4.96653168462216854095458984375">
        <ele>1386</ele>
        <time>2018-08-12T10:41:45.000Z</time>
      </trkpt>
      <trkpt lat="40.666016601026058197021484375" lon="-4.9665292538702487945556640625">
        <ele>1386.199951171875</ele>
        <time>2018-08-12T10:42:07.000Z</time>
      </trkpt>
      <trkpt lat="40.66596262156963348388671875" lon="-4.966579042375087738037109375">
        <ele>1386.199951171875</ele>
        <time>2018-08-12T10:42:12.000Z</time>
      </trkpt>
      <trkpt lat="40.66591308452188968658447265625" lon="-4.9665818922221660614013671875">
        <ele>1386.199951171875</ele>
        <time>2018-08-12T10:42:13.000Z</time>
      </trkpt>
      <trkpt lat="40.66555953584611415863037109375" lon="-4.96663771569728851318359375">
        <ele>1385.5999755859375</ele>
        <time>2018-08-12T10:42:20.000Z</time>
      </trkpt>
      <trkpt lat="40.66551662050187587738037109375" lon="-4.9666476063430309295654296875">
        <ele>1385.4000244140625</ele>
        <time>2018-08-12T10:42:21.000Z</time>
      </trkpt>
      <trkpt lat="40.665479488670825958251953125" lon="-4.9666636995971202850341796875">
        <ele>1385</ele>
        <time>2018-08-12T10:42:22.000Z</time>
      </trkpt>
      <trkpt lat="40.66544570960104465484619140625" lon="-4.96667970903217792510986328125">
        <ele>1384.800048828125</ele>
        <time>2018-08-12T10:42:23.000Z</time>
      </trkpt>
      <trkpt lat="40.66541754640638828277587890625" lon="-4.9666933715343475341796875">
        <ele>1384.4000244140625</ele>
        <time>2018-08-12T10:42:24.000Z</time>
      </trkpt>
      <trkpt lat="40.66532283090054988861083984375" lon="-4.9667009152472019195556640625">
        <ele>1384.4000244140625</ele>
        <time>2018-08-12T10:42:27.000Z</time>
      </trkpt>
      <trkpt lat="40.66530019976198673248291015625" lon="-4.96670267544686794281005859375">
        <ele>1384.4000244140625</ele>
        <time>2018-08-12T10:42:28.000Z</time>
      </trkpt>
      <trkpt lat="40.66513541154563426971435546875" lon="-4.96679236181080341339111328125">
        <ele>1384.5999755859375</ele>
        <time>2018-08-12T10:42:33.000Z</time>
      </trkpt>
      <trkpt lat="40.664973556995391845703125" lon="-4.96690283529460430145263671875">
        <ele>1385.199951171875</ele>
        <time>2018-08-12T10:42:38.000Z</time>
      </trkpt>
      <trkpt lat="40.6647128798067569732666015625" lon="-4.96690987609326839447021484375">
        <ele>1386</ele>
        <time>2018-08-12T10:42:45.000Z</time>
      </trkpt>
      <trkpt lat="40.664679519832134246826171875" lon="-4.96681272983551025390625">
        <ele>1386.199951171875</ele>
        <time>2018-08-12T10:42:49.000Z</time>
      </trkpt>
      <trkpt lat="40.6647182442247867584228515625" lon="-4.9667684733867645263671875">
        <ele>1386.199951171875</ele>
        <time>2018-08-12T10:43:04.000Z</time>
      </trkpt>
      <trkpt lat="40.66473551094532012939453125" lon="-4.96677962131798267364501953125">
        <ele>1386.4000244140625</ele>
        <time>2018-08-12T10:44:38.000Z</time>
      </trkpt>
      <trkpt lat="40.6647259555757045745849609375" lon="-4.96681918390095233917236328125">
        <ele>1386.199951171875</ele>
        <time>2018-08-12T10:44:43.000Z</time>
      </trkpt>
      <trkpt lat="40.664873979985713958740234375" lon="-4.96693116612732410430908203125">
        <ele>1386.199951171875</ele>
        <time>2018-08-12T10:44:50.000Z</time>
      </trkpt>
      <trkpt lat="40.66506768576800823211669921875" lon="-4.96684164740145206451416015625">
        <ele>1386</ele>
        <time>2018-08-12T10:44:57.000Z</time>
      </trkpt>
      <trkpt lat="40.66534177400171756744384765625" lon="-4.96669077314436435699462890625">
        <ele>1386.199951171875</ele>
        <time>2018-08-12T10:45:06.000Z</time>
      </trkpt>
      <trkpt lat="40.66563530825078487396240234375" lon="-4.966612569987773895263671875">
        <ele>1386</ele>
        <time>2018-08-12T10:45:13.000Z</time>
      </trkpt>
      <trkpt lat="40.665682666003704071044921875" lon="-4.96660678647458553314208984375">
        <ele>1386</ele>
        <time>2018-08-12T10:45:14.000Z</time>
      </trkpt>
      <trkpt lat="40.665896236896514892578125" lon="-4.96655724942684173583984375">
        <ele>1384.5999755859375</ele>
        <time>2018-08-12T10:45:21.000Z</time>
      </trkpt>
      <trkpt lat="40.66600243560969829559326171875" lon="-4.9665195308625698089599609375">
        <ele>1385</ele>
        <time>2018-08-12T10:45:30.000Z</time>
      </trkpt>
      <trkpt lat="40.66601014696061611175537109375" lon="-4.96649011038243770599365234375">
        <ele>1386.800048828125</ele>
        <time>2018-08-12T10:46:39.000Z</time>
      </trkpt>
      <trkpt lat="40.666003189980983734130859375" lon="-4.9665136635303497314453125">
        <ele>1387</ele>
        <time>2018-08-12T10:47:16.000Z</time>
      </trkpt>
      <trkpt lat="40.66601215861737728118896484375" lon="-4.96649631299078464508056640625">
        <ele>1387.199951171875</ele>
        <time>2018-08-12T10:47:36.000Z</time>
      </trkpt>
      <trkpt lat="40.66600008867681026458740234375" lon="-4.9664960615336894989013671875">
        <ele>1386.5999755859375</ele>
        <time>2018-08-12T10:48:00.000Z</time>
      </trkpt>
      <trkpt lat="40.66600645892322063446044921875" lon="-4.96647653169929981231689453125">
        <ele>1386.4000244140625</ele>
        <time>2018-08-12T10:48:36.000Z</time>
      </trkpt>
      <trkpt lat="40.6660315208137035369873046875" lon="-4.96644669212400913238525390625">
        <ele>1386.4000244140625</ele>
        <time>2018-08-12T10:48:51.000Z</time>
      </trkpt>
      <trkpt lat="40.66603361628949642181396484375" lon="-4.96644183062016963958740234375">
        <ele>1386.4000244140625</ele>
        <time>2018-08-12T10:49:11.000Z</time>
      </trkpt>
      <trkpt lat="40.66602473147213459014892578125" lon="-4.96645758859813213348388671875">
        <ele>1386.5999755859375</ele>
        <time>2018-08-12T10:49:28.000Z</time>
      </trkpt>
      <trkpt lat="40.66602406091988086700439453125" lon="-4.9664618633687496185302734375">
        <ele>1386.5999755859375</ele>
        <time>2018-08-12T10:50:01.000Z</time>
      </trkpt>
      <trkpt lat="40.66601467318832874298095703125" lon="-4.96647368185222148895263671875">
        <ele>1386.5999755859375</ele>
        <time>2018-08-12T10:50:25.000Z</time>
      </trkpt>
      <trkpt lat="40.66601064987480640411376953125" lon="-4.96647653169929981231689453125">
        <ele>1386.800048828125</ele>
        <time>2018-08-12T10:50:50.000Z</time>
      </trkpt>
      <trkpt lat="40.6660070456564426422119140625" lon="-4.96648105792701244354248046875">
        <ele>1386.800048828125</ele>
        <time>2018-08-12T10:51:16.000Z</time>
      </trkpt>
      <trkpt lat="40.6660358794033527374267578125" lon="-4.96644903905689716339111328125">
        <ele>1386.800048828125</ele>
        <time>2018-08-12T10:51:36.000Z</time>
      </trkpt>
      <trkpt lat="40.666040070354938507080078125" lon="-4.96643378399312496185302734375">
        <ele>1386.800048828125</ele>
        <time>2018-08-12T10:51:37.000Z</time>
      </trkpt>
      <trkpt lat="40.66618097014725208282470703125" lon="-4.96618978679180145263671875">
        <ele>1386.5999755859375</ele>
        <time>2018-08-12T10:51:46.000Z</time>
      </trkpt>
      <trkpt lat="40.666411556303501129150390625" lon="-4.9662690795958042144775390625">
        <ele>1385</ele>
        <time>2018-08-12T10:51:54.000Z</time>
      </trkpt>
      <trkpt lat="40.66677306778728961944580078125" lon="-4.96650167740881443023681640625">
        <ele>1382.5999755859375</ele>
        <time>2018-08-12T10:52:03.000Z</time>
      </trkpt>
      <trkpt lat="40.666833333671092987060546875" lon="-4.96652296744287014007568359375">
        <ele>1382</ele>
        <time>2018-08-12T10:52:04.000Z</time>
      </trkpt>
      <trkpt lat="40.6668988801538944244384765625" lon="-4.96653621084988117218017578125">
        <ele>1381.800048828125</ele>
        <time>2018-08-12T10:52:05.000Z</time>
      </trkpt>
      <trkpt lat="40.667108595371246337890625" lon="-4.96658080257475376129150390625">
        <ele>1379.5999755859375</ele>
        <time>2018-08-12T10:52:08.000Z</time>
      </trkpt>
      <trkpt lat="40.66717321984469890594482421875" lon="-4.966609217226505279541015625">
        <ele>1379</ele>
        <time>2018-08-12T10:52:09.000Z</time>
      </trkpt>
      <trkpt lat="40.6673417799174785614013671875" lon="-4.9667119793593883514404296875">
        <ele>1376.800048828125</ele>
        <time>2018-08-12T10:52:12.000Z</time>
      </trkpt>
      <trkpt lat="40.667395256459712982177734375" lon="-4.9667626060545444488525390625">
        <ele>1375.800048828125</ele>
        <time>2018-08-12T10:52:13.000Z</time>
      </trkpt>
      <trkpt lat="40.6676177121698856353759765625" lon="-4.96698112227022647857666015625">
        <ele>1372.199951171875</ele>
        <time>2018-08-12T10:52:17.000Z</time>
      </trkpt>
      <trkpt lat="40.66767998971045017242431640625" lon="-4.9670341797173023223876953125">
        <ele>1371.800048828125</ele>
        <time>2018-08-12T10:52:18.000Z</time>
      </trkpt>
      <trkpt lat="40.667751319706439971923828125" lon="-4.9670821242034435272216796875">
        <ele>1371.199951171875</ele>
        <time>2018-08-12T10:52:19.000Z</time>
      </trkpt>
      <trkpt lat="40.66782667301595211029052734375" lon="-4.967120848596096038818359375">
        <ele>1370.800048828125</ele>
        <time>2018-08-12T10:52:20.000Z</time>
      </trkpt>
      <trkpt lat="40.66810260526835918426513671875" lon="-4.96723107062280178070068359375">
        <ele>1367</ele>
        <time>2018-08-12T10:52:24.000Z</time>
      </trkpt>
      <trkpt lat="40.66831919364631175994873046875" lon="-4.9673308990895748138427734375">
        <ele>1363.800048828125</ele>
        <time>2018-08-12T10:52:28.000Z</time>
      </trkpt>
      <trkpt lat="40.66837166436016559600830078125" lon="-4.96736819855868816375732421875">
        <ele>1363.4000244140625</ele>
        <time>2018-08-12T10:52:29.000Z</time>
      </trkpt>
      <trkpt lat="40.66857031546533107757568359375" lon="-4.9675324000418186187744140625">
        <ele>1362.4000244140625</ele>
        <time>2018-08-12T10:52:33.000Z</time>
      </trkpt>
      <trkpt lat="40.668608956038951873779296875" lon="-4.9675816856324672698974609375">
        <ele>1362.199951171875</ele>
        <time>2018-08-12T10:52:34.000Z</time>
      </trkpt>
      <trkpt lat="40.66863954998552799224853515625" lon="-4.96763273142278194427490234375">
        <ele>1362</ele>
        <time>2018-08-12T10:52:35.000Z</time>
      </trkpt>
      <trkpt lat="40.66866603679955005645751953125" lon="-4.96768889017403125762939453125">
        <ele>1361.800048828125</ele>
        <time>2018-08-12T10:52:36.000Z</time>
      </trkpt>
      <trkpt lat="40.66869017668068408966064453125" lon="-4.967749156057834625244140625">
        <ele>1361.4000244140625</ele>
        <time>2018-08-12T10:52:37.000Z</time>
      </trkpt>
      <trkpt lat="40.6687620095908641815185546875" lon="-4.96794336475431919097900390625">
        <ele>1360.800048828125</ele>
        <time>2018-08-12T10:52:40.000Z</time>
      </trkpt>
      <trkpt lat="40.66883526742458343505859375" lon="-4.9680721946060657501220703125">
        <ele>1360.5999755859375</ele>
        <time>2018-08-12T10:52:42.000Z</time>
      </trkpt>
      <trkpt lat="40.669079013168811798095703125" lon="-4.96836279518902301788330078125">
        <ele>1360.4000244140625</ele>
        <time>2018-08-12T10:52:47.000Z</time>
      </trkpt>
      <trkpt lat="40.669130980968475341796875" lon="-4.96840931475162506103515625">
        <ele>1360.199951171875</ele>
        <time>2018-08-12T10:52:48.000Z</time>
      </trkpt>
      <trkpt lat="40.6693239323794841766357421875" lon="-4.96859044767916202545166015625">
        <ele>1358</ele>
        <time>2018-08-12T10:52:52.000Z</time>
      </trkpt>
      <trkpt lat="40.66938017494976520538330078125" lon="-4.96862389147281646728515625">
        <ele>1357.800048828125</ele>
        <time>2018-08-12T10:52:53.000Z</time>
      </trkpt>
      <trkpt lat="40.6698338873684406280517578125" lon="-4.968900494277477264404296875">
        <ele>1356.5999755859375</ele>
        <time>2018-08-12T10:53:01.000Z</time>
      </trkpt>
      <trkpt lat="40.6699418462812900543212890625" lon="-4.9689920246601104736328125">
        <ele>1356</ele>
        <time>2018-08-12T10:53:03.000Z</time>
      </trkpt>
      <trkpt lat="40.66998668946325778961181640625" lon="-4.96905011124908924102783203125">
        <ele>1355.800048828125</ele>
        <time>2018-08-12T10:53:04.000Z</time>
      </trkpt>
      <trkpt lat="40.6700300239026546478271484375" lon="-4.96911465190351009368896484375">
        <ele>1355.4000244140625</ele>
        <time>2018-08-12T10:53:05.000Z</time>
      </trkpt>
      <trkpt lat="40.67036823369562625885009765625" lon="-4.96965763159096240997314453125">
        <ele>1353.800048828125</ele>
        <time>2018-08-12T10:53:12.000Z</time>
      </trkpt>
      <trkpt lat="40.67053805105388164520263671875" lon="-4.9699678458273410797119140625">
        <ele>1353</ele>
        <time>2018-08-12T10:53:16.000Z</time>
      </trkpt>
      <trkpt lat="40.67060862667858600616455078125" lon="-4.970123581588268280029296875">
        <ele>1351.800048828125</ele>
        <time>2018-08-12T10:53:18.000Z</time>
      </trkpt>
      <trkpt lat="40.67062974907457828521728515625" lon="-4.97020798735320568084716796875">
        <ele>1351</ele>
        <time>2018-08-12T10:53:19.000Z</time>
      </trkpt>
      <trkpt lat="40.67064802162349224090576171875" lon="-4.97029448859393596649169921875">
        <ele>1350.5999755859375</ele>
        <time>2018-08-12T10:53:20.000Z</time>
      </trkpt>
      <trkpt lat="40.6707837246358394622802734375" lon="-4.97093863785266876220703125">
        <ele>1349</ele>
        <time>2018-08-12T10:53:28.000Z</time>
      </trkpt>
      <trkpt lat="40.6708105467259883880615234375" lon="-4.97100829146802425384521484375">
        <ele>1348.800048828125</ele>
        <time>2018-08-12T10:53:29.000Z</time>
      </trkpt>
      <trkpt lat="40.67083560861647129058837890625" lon="-4.97107702307403087615966796875">
        <ele>1348.5999755859375</ele>
        <time>2018-08-12T10:53:30.000Z</time>
      </trkpt>
      <trkpt lat="40.67094541154801845550537109375" lon="-4.97137759812176227569580078125">
        <ele>1348</ele>
        <time>2018-08-12T10:53:35.000Z</time>
      </trkpt>
      <trkpt lat="40.67095932550728321075439453125" lon="-4.97143543325364589691162109375">
        <ele>1348</ele>
        <time>2018-08-12T10:53:36.000Z</time>
      </trkpt>
      <trkpt lat="40.67098782397806644439697265625" lon="-4.97156367637217044830322265625">
        <ele>1348</ele>
        <time>2018-08-12T10:53:38.000Z</time>
      </trkpt>
      <trkpt lat="40.671010203659534454345703125" lon="-4.9717359244823455810546875">
        <ele>1347.800048828125</ele>
        <time>2018-08-12T10:53:41.000Z</time>
      </trkpt>
      <trkpt lat="40.67100676707923412322998046875" lon="-4.97179719619452953338623046875">
        <ele>1347.800048828125</ele>
        <time>2018-08-12T10:53:42.000Z</time>
      </trkpt>
      <trkpt lat="40.67103995941579341888427734375" lon="-4.9721062369644641876220703125">
        <ele>1348</ele>
        <time>2018-08-12T10:53:49.000Z</time>
      </trkpt>
      <trkpt lat="40.67108019255101680755615234375" lon="-4.97213423252105712890625">
        <ele>1348</ele>
        <time>2018-08-12T10:53:50.000Z</time>
      </trkpt>
      <trkpt lat="40.671536587178707122802734375" lon="-4.97238912619650363922119140625">
        <ele>1347.800048828125</ele>
        <time>2018-08-12T10:53:58.000Z</time>
      </trkpt>
      <trkpt lat="40.6720420159399509429931640625" lon="-4.97265717945992946624755859375">
        <ele>1344.199951171875</ele>
        <time>2018-08-12T10:54:07.000Z</time>
      </trkpt>
      <trkpt lat="40.6720907986164093017578125" lon="-4.97269338928163051605224609375">
        <ele>1344.199951171875</ele>
        <time>2018-08-12T10:54:08.000Z</time>
      </trkpt>
      <trkpt lat="40.67256546579301357269287109375" lon="-4.97315506450831890106201171875">
        <ele>1341.800048828125</ele>
        <time>2018-08-12T10:54:19.000Z</time>
      </trkpt>
      <trkpt lat="40.67263134755194187164306640625" lon="-4.97326017357409000396728515625">
        <ele>1341.5999755859375</ele>
        <time>2018-08-12T10:54:21.000Z</time>
      </trkpt>
      <trkpt lat="40.67297282628715038299560546875" lon="-4.9738050810992717742919921875">
        <ele>1340.4000244140625</ele>
        <time>2018-08-12T10:54:32.000Z</time>
      </trkpt>
      <trkpt lat="40.673303492367267608642578125" lon="-4.974276311695575714111328125">
        <ele>1340.5999755859375</ele>
        <time>2018-08-12T10:54:42.000Z</time>
      </trkpt>
      <trkpt lat="40.67358504049479961395263671875" lon="-4.97474343515932559967041015625">
        <ele>1342</ele>
        <time>2018-08-12T10:54:55.000Z</time>
      </trkpt>
      <trkpt lat="40.67381084896624088287353515625" lon="-4.97524433769285678863525390625">
        <ele>1343.4000244140625</ele>
        <time>2018-08-12T10:55:07.000Z</time>
      </trkpt>
      <trkpt lat="40.67392635159194469451904296875" lon="-4.9758029915392398834228515625">
        <ele>1344</ele>
        <time>2018-08-12T10:55:19.000Z</time>
      </trkpt>
      <trkpt lat="40.673996843397617340087890625" lon="-4.97631001286208629608154296875">
        <ele>1344.800048828125</ele>
        <time>2018-08-12T10:55:29.000Z</time>
      </trkpt>
      <trkpt lat="40.6739737093448638916015625" lon="-4.97674637474119663238525390625">
        <ele>1344.800048828125</ele>
        <time>2018-08-12T10:55:37.000Z</time>
      </trkpt>
      <trkpt lat="40.67396759055554866790771484375" lon="-4.97681158594787120819091796875">
        <ele>1344.800048828125</ele>
        <time>2018-08-12T10:55:38.000Z</time>
      </trkpt>
      <trkpt lat="40.6739763915538787841796875" lon="-4.97724224813282489776611328125">
        <ele>1344.5999755859375</ele>
        <time>2018-08-12T10:55:47.000Z</time>
      </trkpt>
      <trkpt lat="40.6740432791411876678466796875" lon="-4.977507703006267547607421875">
        <ele>1344.5999755859375</ele>
        <time>2018-08-12T10:55:52.000Z</time>
      </trkpt>
      <trkpt lat="40.67406716756522655487060546875" lon="-4.97772236354649066925048828125">
        <ele>1344.5999755859375</ele>
        <time>2018-08-12T10:55:56.000Z</time>
      </trkpt>
      <trkpt lat="40.6740905530750751495361328125" lon="-4.97783325612545013427734375">
        <ele>1344.5999755859375</ele>
        <time>2018-08-12T10:55:58.000Z</time>
      </trkpt>
      <trkpt lat="40.67413137294352054595947265625" lon="-4.97809804044663906097412109375">
        <ele>1344.5999755859375</ele>
        <time>2018-08-12T10:56:03.000Z</time>
      </trkpt>
      <trkpt lat="40.67413439042866230010986328125" lon="-4.9784647487103939056396484375">
        <ele>1344.4000244140625</ele>
        <time>2018-08-12T10:56:09.000Z</time>
      </trkpt>
      <trkpt lat="40.67412986420094966888427734375" lon="-4.978659041225910186767578125">
        <ele>1344.4000244140625</ele>
        <time>2018-08-12T10:56:12.000Z</time>
      </trkpt>
      <trkpt lat="40.67413589917123317718505859375" lon="-4.97899725101888179779052734375">
        <ele>1343.4000244140625</ele>
        <time>2018-08-12T10:56:18.000Z</time>
      </trkpt>
      <trkpt lat="40.6741492263972759246826171875" lon="-4.97912683524191379547119140625">
        <ele>1343.4000244140625</ele>
        <time>2018-08-12T10:56:20.000Z</time>
      </trkpt>
      <trkpt lat="40.67428727634251117706298828125" lon="-4.9795701541006565093994140625">
        <ele>1343.199951171875</ele>
        <time>2018-08-12T10:56:29.000Z</time>
      </trkpt>
      <trkpt lat="40.674308650195598602294921875" lon="-4.97981633059680461883544921875">
        <ele>1343.199951171875</ele>
        <time>2018-08-12T10:56:33.000Z</time>
      </trkpt>
      <trkpt lat="40.67439355887472629547119140625" lon="-4.98014037497341632843017578125">
        <ele>1343</ele>
        <time>2018-08-12T10:56:38.000Z</time>
      </trkpt>
      <trkpt lat="40.67449732683598995208740234375" lon="-4.98040624894201755523681640625">
        <ele>1341.800048828125</ele>
        <time>2018-08-12T10:56:42.000Z</time>
      </trkpt>
      <trkpt lat="40.6746504642069339752197265625" lon="-4.98091377317905426025390625">
        <ele>1340.199951171875</ele>
        <time>2018-08-12T10:56:50.000Z</time>
      </trkpt>
      <trkpt lat="40.67474274896085262298583984375" lon="-4.98125114478170871734619140625">
        <ele>1339.800048828125</ele>
        <time>2018-08-12T10:56:55.000Z</time>
      </trkpt>
      <trkpt lat="40.67483645863831043243408203125" lon="-4.9815060384571552276611328125">
        <ele>1338.4000244140625</ele>
        <time>2018-08-12T10:56:59.000Z</time>
      </trkpt>
      <trkpt lat="40.67487887106835842132568359375" lon="-4.9818889237940311431884765625">
        <ele>1337.4000244140625</ele>
        <time>2018-08-12T10:57:04.000Z</time>
      </trkpt>
      <trkpt lat="40.67488708533346652984619140625" lon="-4.9825930036604404449462890625">
        <ele>1335</ele>
        <time>2018-08-12T10:57:14.000Z</time>
      </trkpt>
      <trkpt lat="40.67484609782695770263671875" lon="-4.9830395914614200592041015625">
        <ele>1334.800048828125</ele>
        <time>2018-08-12T10:57:23.000Z</time>
      </trkpt>
      <trkpt lat="40.67480796016752719879150390625" lon="-4.98323765583336353302001953125">
        <ele>1334.800048828125</ele>
        <time>2018-08-12T10:57:27.000Z</time>
      </trkpt>
      <trkpt lat="40.67472162656486034393310546875" lon="-4.98343328945338726043701171875">
        <ele>1334.800048828125</ele>
        <time>2018-08-12T10:57:31.000Z</time>
      </trkpt>
      <trkpt lat="40.6745532341301441192626953125" lon="-4.98383930884301662445068359375">
        <ele>1335.4000244140625</ele>
        <time>2018-08-12T10:57:40.000Z</time>
      </trkpt>
      <trkpt lat="40.6744794733822345733642578125" lon="-4.98403452336788177490234375">
        <ele>1336.4000244140625</ele>
        <time>2018-08-12T10:57:44.000Z</time>
      </trkpt>
      <trkpt lat="40.67434594966471195220947265625" lon="-4.98433551751077175140380859375">
        <ele>1337.5999755859375</ele>
        <time>2018-08-12T10:57:52.000Z</time>
      </trkpt>
      <trkpt lat="40.67423899658024311065673828125" lon="-4.98453869484364986419677734375">
        <ele>1338.4000244140625</ele>
        <time>2018-08-12T10:58:00.000Z</time>
      </trkpt>
      <trkpt lat="40.6742203049361705780029296875" lon="-4.98478126712143421173095703125">
        <ele>1339.800048828125</ele>
        <time>2018-08-12T10:58:09.000Z</time>
      </trkpt>
      <trkpt lat="40.67417797632515430450439453125" lon="-4.98500548303127288818359375">
        <ele>1341.800048828125</ele>
        <time>2018-08-12T10:58:19.000Z</time>
      </trkpt>
      <trkpt lat="40.6741507351398468017578125" lon="-4.98527093790471553802490234375">
        <ele>1342.800048828125</ele>
        <time>2018-08-12T10:58:29.000Z</time>
      </trkpt>
      <trkpt lat="40.6741143576800823211669921875" lon="-4.98539364896714687347412109375">
        <ele>1343.4000244140625</ele>
        <time>2018-08-12T10:58:36.000Z</time>
      </trkpt>
      <trkpt lat="40.6741006113588809967041015625" lon="-4.9854113347828388214111328125">
        <ele>1343.800048828125</ele>
        <time>2018-08-12T10:58:38.000Z</time>
      </trkpt>
      <trkpt lat="40.6740734539926052093505859375" lon="-4.985468499362468719482421875">
        <ele>1344.5999755859375</ele>
        <time>2018-08-12T10:58:42.000Z</time>
      </trkpt>
      <trkpt lat="40.67403028719127178192138671875" lon="-4.9856423400342464447021484375">
        <ele>1346.5999755859375</ele>
        <time>2018-08-12T10:58:51.000Z</time>
      </trkpt>
      <trkpt lat="40.67404084838926792144775390625" lon="-4.9857596866786479949951171875">
        <ele>1347</ele>
        <time>2018-08-12T10:58:57.000Z</time>
      </trkpt>
      <trkpt lat="40.6740332208573818206787109375" lon="-4.98595205135643482208251953125">
        <ele>1347.800048828125</ele>
        <time>2018-08-12T10:59:07.000Z</time>
      </trkpt>
      <trkpt lat="40.67401335574686527252197265625" lon="-4.98620602302253246307373046875">
        <ele>1349.5999755859375</ele>
        <time>2018-08-12T10:59:18.000Z</time>
      </trkpt>
      <trkpt lat="40.67399851977825164794921875" lon="-4.986441135406494140625">
        <ele>1351.5999755859375</ele>
        <time>2018-08-12T10:59:28.000Z</time>
      </trkpt>
      <trkpt lat="40.6739554367959499359130859375" lon="-4.9868074245750904083251953125">
        <ele>1352</ele>
        <time>2018-08-12T10:59:38.000Z</time>
      </trkpt>
      <trkpt lat="40.67387421615421772003173828125" lon="-4.98707841150462627410888671875">
        <ele>1351</ele>
        <time>2018-08-12T10:59:45.000Z</time>
      </trkpt>
      <trkpt lat="40.6737690232694149017333984375" lon="-4.98746045865118503570556640625">
        <ele>1350.199951171875</ele>
        <time>2018-08-12T10:59:53.000Z</time>
      </trkpt>
      <trkpt lat="40.67365444265305995941162109375" lon="-4.9878501333296298980712890625">
        <ele>1349.199951171875</ele>
        <time>2018-08-12T11:00:00.000Z</time>
      </trkpt>
      <trkpt lat="40.67363214679062366485595703125" lon="-4.98793403618037700653076171875">
        <ele>1349</ele>
        <time>2018-08-12T11:00:02.000Z</time>
      </trkpt>
      <trkpt lat="40.67353659309446811676025390625" lon="-4.988391436636447906494140625">
        <ele>1348.800048828125</ele>
        <time>2018-08-12T11:00:11.000Z</time>
      </trkpt>
      <trkpt lat="40.673478506505489349365234375" lon="-4.98864683322608470916748046875">
        <ele>1348.5999755859375</ele>
        <time>2018-08-12T11:00:16.000Z</time>
      </trkpt>
      <trkpt lat="40.6734226830303668975830078125" lon="-4.98888186179101467132568359375">
        <ele>1347.800048828125</ele>
        <time>2018-08-12T11:00:20.000Z</time>
      </trkpt>
      <trkpt lat="40.67335789091885089874267578125" lon="-4.98904262669384479522705078125">
        <ele>1347</ele>
        <time>2018-08-12T11:00:23.000Z</time>
      </trkpt>
      <trkpt lat="40.6731561385095119476318359375" lon="-4.98924144543707370758056640625">
        <ele>1343.5999755859375</ele>
        <time>2018-08-12T11:00:29.000Z</time>
      </trkpt>
      <trkpt lat="40.67309268750250339508056640625" lon="-4.9893018789589405059814453125">
        <ele>1342.4000244140625</ele>
        <time>2018-08-12T11:00:31.000Z</time>
      </trkpt>
      <trkpt lat="40.67306083627045154571533203125" lon="-4.98942576348781585693359375">
        <ele>1341.800048828125</ele>
        <time>2018-08-12T11:00:35.000Z</time>
      </trkpt>
      <trkpt lat="40.67318379878997802734375" lon="-4.989491142332553863525390625">
        <ele>1340</ele>
        <time>2018-08-12T11:00:41.000Z</time>
      </trkpt>
      <trkpt lat="40.6734045781195163726806640625" lon="-4.9895189702510833740234375">
        <ele>1339.199951171875</ele>
        <time>2018-08-12T11:00:49.000Z</time>
      </trkpt>
      <trkpt lat="40.673439614474773406982421875" lon="-4.98952844180166721343994140625">
        <ele>1339.199951171875</ele>
        <time>2018-08-12T11:00:50.000Z</time>
      </trkpt>
      <trkpt lat="40.6736302189528942108154296875" lon="-4.98970027081668376922607421875">
        <ele>1338</ele>
        <time>2018-08-12T11:00:58.000Z</time>
      </trkpt>
      <trkpt lat="40.673756115138530731201171875" lon="-4.98997335322201251983642578125">
        <ele>1335.199951171875</ele>
        <time>2018-08-12T11:01:07.000Z</time>
      </trkpt>
      <trkpt lat="40.67377178929746150970458984375" lon="-4.99003454111516475677490234375">
        <ele>1335.199951171875</ele>
        <time>2018-08-12T11:01:08.000Z</time>
      </trkpt>
      <trkpt lat="40.67402760498225688934326171875" lon="-4.99032790772616863250732421875">
        <ele>1332.800048828125</ele>
        <time>2018-08-12T11:01:16.000Z</time>
      </trkpt>
      <trkpt lat="40.6741797365248203277587890625" lon="-4.990301169455051422119140625">
        <ele>1330.5999755859375</ele>
        <time>2018-08-12T11:01:20.000Z</time>
      </trkpt>
      <trkpt lat="40.6743433512747287750244140625" lon="-4.99049303121864795684814453125">
        <ele>1329.5999755859375</ele>
        <time>2018-08-12T11:01:26.000Z</time>
      </trkpt>
      <trkpt lat="40.67436120472848415374755859375" lon="-4.99065614305436611175537109375">
        <ele>1329.199951171875</ele>
        <time>2018-08-12T11:01:29.000Z</time>
      </trkpt>
      <trkpt lat="40.6743296049535274505615234375" lon="-4.99107171781361103057861328125">
        <ele>1325.5999755859375</ele>
        <time>2018-08-12T11:01:36.000Z</time>
      </trkpt>
      <trkpt lat="40.67433245480060577392578125" lon="-4.99118328094482421875">
        <ele>1324</ele>
        <time>2018-08-12T11:01:40.000Z</time>
      </trkpt>
      <trkpt lat="40.67432516254484653472900390625" lon="-4.99120465479791164398193359375">
        <ele>1324</ele>
        <time>2018-08-12T11:01:41.000Z</time>
      </trkpt>
      <trkpt lat="40.67424394190311431884765625" lon="-4.9914506636559963226318359375">
        <ele>1324.199951171875</ele>
        <time>2018-08-12T11:01:51.000Z</time>
      </trkpt>
      <trkpt lat="40.6742447800934314727783203125" lon="-4.991681836545467376708984375">
        <ele>1325.199951171875</ele>
        <time>2018-08-12T11:02:00.000Z</time>
      </trkpt>
      <trkpt lat="40.6742446124553680419921875" lon="-4.9919664859771728515625">
        <ele>1325.800048828125</ele>
        <time>2018-08-12T11:02:10.000Z</time>
      </trkpt>
      <trkpt lat="40.674243606626987457275390625" lon="-4.99229765497148036956787109375">
        <ele>1326.800048828125</ele>
        <time>2018-08-12T11:02:20.000Z</time>
      </trkpt>
      <trkpt lat="40.6742742843925952911376953125" lon="-4.9926714040338993072509765625">
        <ele>1327</ele>
        <time>2018-08-12T11:02:28.000Z</time>
      </trkpt>
      <trkpt lat="40.67435701377689838409423828125" lon="-4.99315981753170490264892578125">
        <ele>1325.199951171875</ele>
        <time>2018-08-12T11:02:36.000Z</time>
      </trkpt>
      <trkpt lat="40.6743674911558628082275390625" lon="-4.993492327630519866943359375">
        <ele>1323.800048828125</ele>
        <time>2018-08-12T11:02:41.000Z</time>
      </trkpt>
      <trkpt lat="40.67435131408274173736572265625" lon="-4.99382198788225650787353515625">
        <ele>1322.199951171875</ele>
        <time>2018-08-12T11:02:48.000Z</time>
      </trkpt>
      <trkpt lat="40.6743574328720569610595703125" lon="-4.993859119713306427001953125">
        <ele>1322.199951171875</ele>
        <time>2018-08-12T11:02:49.000Z</time>
      </trkpt>
      <trkpt lat="40.67444200627505779266357421875" lon="-4.99395668506622314453125">
        <ele>1322.199951171875</ele>
        <time>2018-08-12T11:02:53.000Z</time>
      </trkpt>
      <trkpt lat="40.674527250230312347412109375" lon="-4.99406305141746997833251953125">
        <ele>1322.199951171875</ele>
        <time>2018-08-12T11:02:57.000Z</time>
      </trkpt>
      <trkpt lat="40.67455046810209751129150390625" lon="-4.99439262785017490386962890625">
        <ele>1323.800048828125</ele>
        <time>2018-08-12T11:03:07.000Z</time>
      </trkpt>
      <trkpt lat="40.6745606102049350738525390625" lon="-4.99475707300007343292236328125">
        <ele>1326.5999755859375</ele>
        <time>2018-08-12T11:03:18.000Z</time>
      </trkpt>
      <trkpt lat="40.67462238483130931854248046875" lon="-4.99505169689655303955078125">
        <ele>1327.4000244140625</ele>
        <time>2018-08-12T11:03:28.000Z</time>
      </trkpt>
      <trkpt lat="40.67474794574081897735595703125" lon="-4.99539124779403209686279296875">
        <ele>1328.5999755859375</ele>
        <time>2018-08-12T11:03:39.000Z</time>
      </trkpt>
      <trkpt lat="40.6748174317181110382080078125" lon="-4.995622001588344573974609375">
        <ele>1329</ele>
        <time>2018-08-12T11:03:47.000Z</time>
      </trkpt>
      <trkpt lat="40.67493251524865627288818359375" lon="-4.99595719389617443084716796875">
        <ele>1329.4000244140625</ele>
        <time>2018-08-12T11:03:57.000Z</time>
      </trkpt>
      <trkpt lat="40.6750477664172649383544921875" lon="-4.996371679008007049560546875">
        <ele>1329.199951171875</ele>
        <time>2018-08-12T11:04:08.000Z</time>
      </trkpt>
      <trkpt lat="40.6750600039958953857421875" lon="-4.99647620134055614471435546875">
        <ele>1329</ele>
        <time>2018-08-12T11:04:10.000Z</time>
      </trkpt>
      <trkpt lat="40.67514373920857906341552734375" lon="-4.99678398482501506805419921875">
        <ele>1328.800048828125</ele>
        <time>2018-08-12T11:04:17.000Z</time>
      </trkpt>
      <trkpt lat="40.6752221100032329559326171875" lon="-4.99707651324570178985595703125">
        <ele>1329.199951171875</ele>
        <time>2018-08-12T11:04:25.000Z</time>
      </trkpt>
      <trkpt lat="40.6753076054155826568603515625" lon="-4.9974920041859149932861328125">
        <ele>1330</ele>
        <time>2018-08-12T11:04:35.000Z</time>
      </trkpt>
      <trkpt lat="40.67541531287133693695068359375" lon="-4.9976432137191295623779296875">
        <ele>1330.5999755859375</ele>
        <time>2018-08-12T11:04:39.000Z</time>
      </trkpt>
      <trkpt lat="40.67555327899754047393798828125" lon="-4.99775527976453304290771484375">
        <ele>1331</ele>
        <time>2018-08-12T11:04:43.000Z</time>
      </trkpt>
      <trkpt lat="40.67569510079920291900634765625" lon="-4.99806515872478485107421875">
        <ele>1331.199951171875</ele>
        <time>2018-08-12T11:04:53.000Z</time>
      </trkpt>
      <trkpt lat="40.67580096423625946044921875" lon="-4.99838861636817455291748046875">
        <ele>1331.5999755859375</ele>
        <time>2018-08-12T11:05:03.000Z</time>
      </trkpt>
      <trkpt lat="40.67594655789434909820556640625" lon="-4.99883604235947132110595703125">
        <ele>1332.4000244140625</ele>
        <time>2018-08-12T11:05:15.000Z</time>
      </trkpt>
      <trkpt lat="40.676206983625888824462890625" lon="-4.9992957897484302520751953125">
        <ele>1333.4000244140625</ele>
        <time>2018-08-12T11:05:26.000Z</time>
      </trkpt>
      <trkpt lat="40.67648719064891338348388671875" lon="-4.9997752346098423004150390625">
        <ele>1333.5999755859375</ele>
        <time>2018-08-12T11:05:36.000Z</time>
      </trkpt>
      <trkpt lat="40.67687812261283397674560546875" lon="-5.00038334168493747711181640625">
        <ele>1333</ele>
        <time>2018-08-12T11:05:46.000Z</time>
      </trkpt>
      <trkpt lat="40.6769474409520626068115234375" lon="-5.0005021132528781890869140625">
        <ele>1332.4000244140625</ele>
        <time>2018-08-12T11:05:48.000Z</time>
      </trkpt>
      <trkpt lat="40.67704953253269195556640625" lon="-5.00073253177106380462646484375">
        <ele>1331.4000244140625</ele>
        <time>2018-08-12T11:05:52.000Z</time>
      </trkpt>
      <trkpt lat="40.67721105180680751800537109375" lon="-5.0014422275125980377197265625">
        <ele>1330.4000244140625</ele>
        <time>2018-08-12T11:06:04.000Z</time>
      </trkpt>
      <trkpt lat="40.6773185916244983673095703125" lon="-5.001737438142299652099609375">
        <ele>1330.4000244140625</ele>
        <time>2018-08-12T11:06:08.000Z</time>
      </trkpt>
      <trkpt lat="40.6774587370455265045166015625" lon="-5.00213800929486751556396484375">
        <ele>1329.4000244140625</ele>
        <time>2018-08-12T11:06:13.000Z</time>
      </trkpt>
      <trkpt lat="40.67773844115436077117919921875" lon="-5.002778470516204833984375">
        <ele>1325.4000244140625</ele>
        <time>2018-08-12T11:06:21.000Z</time>
      </trkpt>
      <trkpt lat="40.67781203426420688629150390625" lon="-5.00292909331619739532470703125">
        <ele>1324.4000244140625</ele>
        <time>2018-08-12T11:06:23.000Z</time>
      </trkpt>
      <trkpt lat="40.67805561237037181854248046875" lon="-5.00322598032653331756591796875">
        <ele>1323.4000244140625</ele>
        <time>2018-08-12T11:06:29.000Z</time>
      </trkpt>
      <trkpt lat="40.678382255136966705322265625" lon="-5.00336025841534137725830078125">
        <ele>1323</ele>
        <time>2018-08-12T11:06:35.000Z</time>
      </trkpt>
      <trkpt lat="40.67857847549021244049072265625" lon="-5.00339680351316928863525390625">
        <ele>1322.800048828125</ele>
        <time>2018-08-12T11:06:39.000Z</time>
      </trkpt>
      <trkpt lat="40.67891576327383518218994140625" lon="-5.0035469233989715576171875">
        <ele>1321</ele>
        <time>2018-08-12T11:06:45.000Z</time>
      </trkpt>
      <trkpt lat="40.67897862754762172698974609375" lon="-5.00368782319128513336181640625">
        <ele>1320.5999755859375</ele>
        <time>2018-08-12T11:06:47.000Z</time>
      </trkpt>
      <trkpt lat="40.6790516339242458343505859375" lon="-5.00421437434852123260498046875">
        <ele>1316</ele>
        <time>2018-08-12T11:06:54.000Z</time>
      </trkpt>
      <trkpt lat="40.67908172495663166046142578125" lon="-5.00435292720794677734375">
        <ele>1315.199951171875</ele>
        <time>2018-08-12T11:06:56.000Z</time>
      </trkpt>
      <trkpt lat="40.67908708937466144561767578125" lon="-5.00465174205601215362548828125">
        <ele>1314.5999755859375</ele>
        <time>2018-08-12T11:07:00.000Z</time>
      </trkpt>
      <trkpt lat="40.67917560227215290069580078125" lon="-5.00511241145431995391845703125">
        <ele>1313.5999755859375</ele>
        <time>2018-08-12T11:07:07.000Z</time>
      </trkpt>
      <trkpt lat="40.67919923923909664154052734375" lon="-5.0051245652139186859130859375">
        <ele>1313.4000244140625</ele>
        <time>2018-08-12T11:07:08.000Z</time>
      </trkpt>
      <trkpt lat="40.6792239658534526824951171875" lon="-5.0051339529454708099365234375">
        <ele>1313.4000244140625</ele>
        <time>2018-08-12T11:07:09.000Z</time>
      </trkpt>
      <trkpt lat="40.67925120703876018524169921875" lon="-5.005142502486705780029296875">
        <ele>1313.199951171875</ele>
        <time>2018-08-12T11:07:10.000Z</time>
      </trkpt>
      <trkpt lat="40.67927836440503597259521484375" lon="-5.00514275394380092620849609375">
        <ele>1313</ele>
        <time>2018-08-12T11:07:11.000Z</time>
      </trkpt>
      <trkpt lat="40.67930904217064380645751953125" lon="-5.00513973645865917205810546875">
        <ele>1312.5999755859375</ele>
        <time>2018-08-12T11:07:12.000Z</time>
      </trkpt>
      <trkpt lat="40.679500065743923187255859375" lon="-5.005142502486705780029296875">
        <ele>1311.5999755859375</ele>
        <time>2018-08-12T11:07:21.000Z</time>
      </trkpt>
      <trkpt lat="40.67950853146612644195556640625" lon="-5.0051419995725154876708984375">
        <ele>1310.5999755859375</ele>
        <time>2018-08-12T11:07:55.000Z</time>
      </trkpt>
      <trkpt lat="40.67948095500469207763671875" lon="-5.0051642954349517822265625">
        <ele>1310.800048828125</ele>
        <time>2018-08-12T11:08:34.000Z</time>
      </trkpt>
      <trkpt lat="40.67948497831821441650390625" lon="-5.00514795072376728057861328125">
        <ele>1310.4000244140625</ele>
        <time>2018-08-12T11:09:25.000Z</time>
      </trkpt>
      <trkpt lat="40.6794804520905017852783203125" lon="-5.00512582249939441680908203125">
        <ele>1311</ele>
        <time>2018-08-12T11:10:04.000Z</time>
      </trkpt>
      <trkpt lat="40.6794945336878299713134765625" lon="-5.0051426701247692108154296875">
        <ele>1311</ele>
        <time>2018-08-12T11:11:07.000Z</time>
      </trkpt>
      <trkpt lat="40.67950232885777950286865234375" lon="-5.005128085613250732421875">
        <ele>1311.5999755859375</ele>
        <time>2018-08-12T11:11:40.000Z</time>
      </trkpt>
      <trkpt lat="40.67949931137263774871826171875" lon="-5.0051302649080753326416015625">
        <ele>1311.4000244140625</ele>
        <time>2018-08-12T11:12:15.000Z</time>
      </trkpt>
      <trkpt lat="40.67952278070151805877685546875" lon="-5.00508642755448818206787109375">
        <ele>1311.4000244140625</ele>
        <time>2018-08-12T11:12:28.000Z</time>
      </trkpt>
      <trkpt lat="40.679613053798675537109375" lon="-5.00490571372210979461669921875">
        <ele>1311.4000244140625</ele>
        <time>2018-08-12T11:12:33.000Z</time>
      </trkpt>
      <trkpt lat="40.67962847650051116943359375" lon="-5.0048509798943996429443359375">
        <ele>1311.4000244140625</ele>
        <time>2018-08-12T11:12:34.000Z</time>
      </trkpt>
      <trkpt lat="40.6796293146908283233642578125" lon="-5.00479876063764095306396484375">
        <ele>1311.4000244140625</ele>
        <time>2018-08-12T11:12:35.000Z</time>
      </trkpt>
      <trkpt lat="40.67963258363306522369384765625" lon="-5.00473774038255214691162109375">
        <ele>1311.199951171875</ele>
        <time>2018-08-12T11:12:36.000Z</time>
      </trkpt>
      <trkpt lat="40.6796299852430820465087890625" lon="-5.00467956997454166412353515625">
        <ele>1311.199951171875</ele>
        <time>2018-08-12T11:12:37.000Z</time>
      </trkpt>
      <trkpt lat="40.67963308654725551605224609375" lon="-5.00379678793251514434814453125">
        <ele>1309.199951171875</ele>
        <time>2018-08-12T11:12:50.000Z</time>
      </trkpt>
      <trkpt lat="40.6796534545719623565673828125" lon="-5.00270999036729335784912109375">
        <ele>1306.5999755859375</ele>
        <time>2018-08-12T11:12:59.000Z</time>
      </trkpt>
      <trkpt lat="40.67972235381603240966796875" lon="-5.00228636898100376129150390625">
        <ele>1303.199951171875</ele>
        <time>2018-08-12T11:13:03.000Z</time>
      </trkpt>
      <trkpt lat="40.67974171601235866546630859375" lon="-5.00207833014428615570068359375">
        <ele>1301.5999755859375</ele>
        <time>2018-08-12T11:13:05.000Z</time>
      </trkpt>
      <trkpt lat="40.67973450757563114166259765625" lon="-5.0019751489162445068359375">
        <ele>1301</ele>
        <time>2018-08-12T11:13:06.000Z</time>
      </trkpt>
      <trkpt lat="40.67971707321703433990478515625" lon="-5.001876242458820343017578125">
        <ele>1300.199951171875</ele>
        <time>2018-08-12T11:13:07.000Z</time>
      </trkpt>
      <trkpt lat="40.679694525897502899169921875" lon="-5.00178412534296512603759765625">
        <ele>1299.800048828125</ele>
        <time>2018-08-12T11:13:08.000Z</time>
      </trkpt>
      <trkpt lat="40.67967046983540058135986328125" lon="-5.00169812701642513275146484375">
        <ele>1299.800048828125</ele>
        <time>2018-08-12T11:13:09.000Z</time>
      </trkpt>
      <trkpt lat="40.67958422005176544189453125" lon="-5.00136016868054866790771484375">
        <ele>1299.4000244140625</ele>
        <time>2018-08-12T11:13:13.000Z</time>
      </trkpt>
      <trkpt lat="40.6795723177492618560791015625" lon="-5.00126679427921772003173828125">
        <ele>1299.4000244140625</ele>
        <time>2018-08-12T11:13:14.000Z</time>
      </trkpt>
      <trkpt lat="40.67956904880702495574951171875" lon="-5.001168139278888702392578125">
        <ele>1299.4000244140625</ele>
        <time>2018-08-12T11:13:15.000Z</time>
      </trkpt>
      <trkpt lat="40.67957223393023014068603515625" lon="-5.0010631978511810302734375">
        <ele>1299.4000244140625</ele>
        <time>2018-08-12T11:13:16.000Z</time>
      </trkpt>
      <trkpt lat="40.67957843653857707977294921875" lon="-5.0009520538151264190673828125">
        <ele>1299.4000244140625</ele>
        <time>2018-08-12T11:13:17.000Z</time>
      </trkpt>
      <trkpt lat="40.67967273294925689697265625" lon="-4.9998365901410579681396484375">
        <ele>1296</ele>
        <time>2018-08-12T11:13:27.000Z</time>
      </trkpt>
      <trkpt lat="40.6797453202307224273681640625" lon="-4.99921490438282489776611328125">
        <ele>1292.199951171875</ele>
        <time>2018-08-12T11:13:33.000Z</time>
      </trkpt>
      <trkpt lat="40.6797667779028415679931640625" lon="-4.99871601350605487823486328125">
        <ele>1289</ele>
        <time>2018-08-12T11:13:38.000Z</time>
      </trkpt>
      <trkpt lat="40.679747499525547027587890625" lon="-4.99821527861058712005615234375">
        <ele>1287.800048828125</ele>
        <time>2018-08-12T11:13:44.000Z</time>
      </trkpt>
      <trkpt lat="40.679527223110198974609375" lon="-4.9977749772369861602783203125">
        <ele>1286</ele>
        <time>2018-08-12T11:13:53.000Z</time>
      </trkpt>
      <trkpt lat="40.67935849539935588836669921875" lon="-4.99733425676822662353515625">
        <ele>1285.800048828125</ele>
        <time>2018-08-12T11:14:04.000Z</time>
      </trkpt>
      <trkpt lat="40.67919529974460601806640625" lon="-4.99680929817259311676025390625">
        <ele>1286.5999755859375</ele>
        <time>2018-08-12T11:14:16.000Z</time>
      </trkpt>
      <trkpt lat="40.67919990979135036468505859375" lon="-4.99664568342268466949462890625">
        <ele>1286.800048828125</ele>
        <time>2018-08-12T11:14:19.000Z</time>
      </trkpt>
      <trkpt lat="40.67928607575595378875732421875" lon="-4.99627771787345409393310546875">
        <ele>1286.800048828125</ele>
        <time>2018-08-12T11:14:27.000Z</time>
      </trkpt>
      <trkpt lat="40.67927752621471881866455078125" lon="-4.9962360598146915435791015625">
        <ele>1286.800048828125</ele>
        <time>2018-08-12T11:14:28.000Z</time>
      </trkpt>
      <trkpt lat="40.67926797084510326385498046875" lon="-4.99594998545944690704345703125">
        <ele>1286.5999755859375</ele>
        <time>2018-08-12T11:14:34.000Z</time>
      </trkpt>
      <trkpt lat="40.67918750457465648651123046875" lon="-4.99577027745544910430908203125">
        <ele>1285</ele>
        <time>2018-08-12T11:14:39.000Z</time>
      </trkpt>
      <trkpt lat="40.679157413542270660400390625" lon="-4.99575183726847171783447265625">
        <ele>1284.5999755859375</ele>
        <time>2018-08-12T11:14:40.000Z</time>
      </trkpt>
      <trkpt lat="40.67910485900938510894775390625" lon="-4.99558302573859691619873046875">
        <ele>1284</ele>
        <time>2018-08-12T11:14:44.000Z</time>
      </trkpt>
      <trkpt lat="40.6791894324123859405517578125" lon="-4.99516032636165618896484375">
        <ele>1283.800048828125</ele>
        <time>2018-08-12T11:14:53.000Z</time>
      </trkpt>
      <trkpt lat="40.6792611815035343170166015625" lon="-4.9948446638882160186767578125">
        <ele>1285.199951171875</ele>
        <time>2018-08-12T11:15:01.000Z</time>
      </trkpt>
      <trkpt lat="40.67927702330052852630615234375" lon="-4.9947916902601718902587890625">
        <ele>1285.4000244140625</ele>
        <time>2018-08-12T11:15:02.000Z</time>
      </trkpt>
      <trkpt lat="40.67938347347080707550048828125" lon="-4.994554482400417327880859375">
        <ele>1285.5999755859375</ele>
        <time>2018-08-12T11:15:06.000Z</time>
      </trkpt>
      <trkpt lat="40.67944650538265705108642578125" lon="-4.9941607005894184112548828125">
        <ele>1285.5999755859375</ele>
        <time>2018-08-12T11:15:11.000Z</time>
      </trkpt>
      <trkpt lat="40.679413564503192901611328125" lon="-4.9937188066542148590087890625">
        <ele>1282.800048828125</ele>
        <time>2018-08-12T11:15:19.000Z</time>
      </trkpt>
      <trkpt lat="40.67941163666546344757080078125" lon="-4.99315260909497737884521484375">
        <ele>1281.5999755859375</ele>
        <time>2018-08-12T11:15:28.000Z</time>
      </trkpt>
      <trkpt lat="40.6794224493205547332763671875" lon="-4.99305990524590015411376953125">
        <ele>1281</ele>
        <time>2018-08-12T11:15:30.000Z</time>
      </trkpt>
      <trkpt lat="40.67947827279567718505859375" lon="-4.99307331629097461700439453125">
        <ele>1280.4000244140625</ele>
        <time>2018-08-12T11:15:34.000Z</time>
      </trkpt>
      <trkpt lat="40.679636187851428985595703125" lon="-4.99350666068494319915771484375">
        <ele>1279</ele>
        <time>2018-08-12T11:15:43.000Z</time>
      </trkpt>
      <trkpt lat="40.679695867002010345458984375" lon="-4.9936732091009616851806640625">
        <ele>1278.4000244140625</ele>
        <time>2018-08-12T11:15:46.000Z</time>
      </trkpt>
      <trkpt lat="40.679770298302173614501953125" lon="-4.9938076548278331756591796875">
        <ele>1278</ele>
        <time>2018-08-12T11:15:49.000Z</time>
      </trkpt>
      <trkpt lat="40.6799756549298763275146484375" lon="-4.994297325611114501953125">
        <ele>1277</ele>
        <time>2018-08-12T11:15:59.000Z</time>
      </trkpt>
      <trkpt lat="40.68001412786543369293212890625" lon="-4.9944091401994228363037109375">
        <ele>1276.5999755859375</ele>
        <time>2018-08-12T11:16:01.000Z</time>
      </trkpt>
      <trkpt lat="40.6800556182861328125" lon="-4.9945157580077648162841796875">
        <ele>1276.5999755859375</ele>
        <time>2018-08-12T11:16:03.000Z</time>
      </trkpt>
      <trkpt lat="40.68008537404239177703857421875" lon="-4.9946535564959049224853515625">
        <ele>1276.4000244140625</ele>
        <time>2018-08-12T11:16:05.000Z</time>
      </trkpt>
      <trkpt lat="40.680211521685123443603515625" lon="-4.9950116313993930816650390625">
        <ele>1276.199951171875</ele>
        <time>2018-08-12T11:16:10.000Z</time>
      </trkpt>
      <trkpt lat="40.68029458634555339813232421875" lon="-4.99541840516030788421630859375">
        <ele>1274.5999755859375</ele>
        <time>2018-08-12T11:16:15.000Z</time>
      </trkpt>
      <trkpt lat="40.6803514994680881500244140625" lon="-4.99560984782874584197998046875">
        <ele>1273.800048828125</ele>
        <time>2018-08-12T11:16:17.000Z</time>
      </trkpt>
      <trkpt lat="40.68051788024604320526123046875" lon="-4.99611326493322849273681640625">
        <ele>1269.4000244140625</ele>
        <time>2018-08-12T11:16:24.000Z</time>
      </trkpt>
      <trkpt lat="40.68056180141866207122802734375" lon="-4.9961921386420726776123046875">
        <ele>1268.5999755859375</ele>
        <time>2018-08-12T11:16:26.000Z</time>
      </trkpt>
      <trkpt lat="40.6807216443121433258056640625" lon="-4.996236227452754974365234375">
        <ele>1268</ele>
        <time>2018-08-12T11:16:31.000Z</time>
      </trkpt>
      <trkpt lat="40.68084343336522579193115234375" lon="-4.99628274701535701751708984375">
        <ele>1267.800048828125</ele>
        <time>2018-08-12T11:16:36.000Z</time>
      </trkpt>
      <trkpt lat="40.680916607379913330078125" lon="-4.99642632901668548583984375">
        <ele>1267.4000244140625</ele>
        <time>2018-08-12T11:16:40.000Z</time>
      </trkpt>
      <trkpt lat="40.68110461346805095672607421875" lon="-4.9969351105391979217529296875">
        <ele>1266.199951171875</ele>
        <time>2018-08-12T11:16:53.000Z</time>
      </trkpt>
      <trkpt lat="40.68130075000226497650146484375" lon="-4.99729762785136699676513671875">
        <ele>1266</ele>
        <time>2018-08-12T11:17:03.000Z</time>
      </trkpt>
      <trkpt lat="40.68140820600092411041259765625" lon="-4.997563250362873077392578125">
        <ele>1266</ele>
        <time>2018-08-12T11:17:11.000Z</time>
      </trkpt>
      <trkpt lat="40.681629069149494171142578125" lon="-4.99803003855049610137939453125">
        <ele>1265.800048828125</ele>
        <time>2018-08-12T11:17:22.000Z</time>
      </trkpt>
      <trkpt lat="40.681725628674030303955078125" lon="-4.9981618858873844146728515625">
        <ele>1265.5999755859375</ele>
        <time>2018-08-12T11:17:25.000Z</time>
      </trkpt>
      <trkpt lat="40.68182445131242275238037109375" lon="-4.99840672127902507781982421875">
        <ele>1265.4000244140625</ele>
        <time>2018-08-12T11:17:30.000Z</time>
      </trkpt>
      <trkpt lat="40.681979097425937652587890625" lon="-4.99878591857850551605224609375">
        <ele>1264.800048828125</ele>
        <time>2018-08-12T11:17:39.000Z</time>
      </trkpt>
      <trkpt lat="40.68217984400689601898193359375" lon="-4.99904961325228214263916015625">
        <ele>1264.4000244140625</ele>
        <time>2018-08-12T11:17:46.000Z</time>
      </trkpt>
      <trkpt lat="40.68228947930037975311279296875" lon="-4.999245665967464447021484375">
        <ele>1264.199951171875</ele>
        <time>2018-08-12T11:17:50.000Z</time>
      </trkpt>
      <trkpt lat="40.68239643238484859466552734375" lon="-4.99966417439281940460205078125">
        <ele>1263.800048828125</ele>
        <time>2018-08-12T11:17:57.000Z</time>
      </trkpt>
      <trkpt lat="40.68250573240220546722412109375" lon="-4.9998419545590877532958984375">
        <ele>1263</ele>
        <time>2018-08-12T11:18:01.000Z</time>
      </trkpt>
      <trkpt lat="40.68285089917480945587158203125" lon="-5.00025895424187183380126953125">
        <ele>1261.4000244140625</ele>
        <time>2018-08-12T11:18:10.000Z</time>
      </trkpt>
      <trkpt lat="40.68295198492705821990966796875" lon="-5.0005037896335124969482421875">
        <ele>1260.4000244140625</ele>
        <time>2018-08-12T11:18:14.000Z</time>
      </trkpt>
      <trkpt lat="40.6830679066479206085205078125" lon="-5.00086999498307704925537109375">
        <ele>1259</ele>
        <time>2018-08-12T11:18:23.000Z</time>
      </trkpt>
      <trkpt lat="40.68312129937112331390380859375" lon="-5.000987760722637176513671875">
        <ele>1259.4000244140625</ele>
        <time>2018-08-12T11:18:34.000Z</time>
      </trkpt>
      <trkpt lat="40.68316228687763214111328125" lon="-5.0010140798985958099365234375">
        <ele>1259.4000244140625</ele>
        <time>2018-08-12T11:18:36.000Z</time>
      </trkpt>
      <trkpt lat="40.68318936042487621307373046875" lon="-5.0010030157864093780517578125">
        <ele>1259.4000244140625</ele>
        <time>2018-08-12T11:18:37.000Z</time>
      </trkpt>
      <trkpt lat="40.68321635015308856964111328125" lon="-5.0009802170097827911376953125">
        <ele>1259.4000244140625</ele>
        <time>2018-08-12T11:18:38.000Z</time>
      </trkpt>
      <trkpt lat="40.6832502968609333038330078125" lon="-5.0009597651660442352294921875">
        <ele>1259.4000244140625</ele>
        <time>2018-08-12T11:18:39.000Z</time>
      </trkpt>
      <trkpt lat="40.68328893743455410003662109375" lon="-5.00095146708190441131591796875">
        <ele>1259.4000244140625</ele>
        <time>2018-08-12T11:18:40.000Z</time>
      </trkpt>
      <trkpt lat="40.68332715891301631927490234375" lon="-5.00096605159342288970947265625">
        <ele>1259.4000244140625</ele>
        <time>2018-08-12T11:18:41.000Z</time>
      </trkpt>
      <trkpt lat="40.68335398100316524505615234375" lon="-5.001002848148345947265625">
        <ele>1259.4000244140625</ele>
        <time>2018-08-12T11:18:42.000Z</time>
      </trkpt>
      <trkpt lat="40.68338759243488311767578125" lon="-5.001157410442829132080078125">
        <ele>1259.199951171875</ele>
        <time>2018-08-12T11:18:45.000Z</time>
      </trkpt>
      <trkpt lat="40.68341718055307865142822265625" lon="-5.00134122557938098907470703125">
        <ele>1258.800048828125</ele>
        <time>2018-08-12T11:18:48.000Z</time>
      </trkpt>
      <trkpt lat="40.68347903899848461151123046875" lon="-5.001657642424106597900390625">
        <ele>1257.5999755859375</ele>
        <time>2018-08-12T11:18:53.000Z</time>
      </trkpt>
      <trkpt lat="40.68356386385858058929443359375" lon="-5.00188085250556468963623046875">
        <ele>1257.4000244140625</ele>
        <time>2018-08-12T11:18:57.000Z</time>
      </trkpt>
      <trkpt lat="40.6836304999887943267822265625" lon="-5.00209911726415157318115234375">
        <ele>1257.199951171875</ele>
        <time>2018-08-12T11:19:01.000Z</time>
      </trkpt>
      <trkpt lat="40.68366511724889278411865234375" lon="-5.00222434289753437042236328125">
        <ele>1257.199951171875</ele>
        <time>2018-08-12T11:19:03.000Z</time>
      </trkpt>
      <trkpt lat="40.68374038673937320709228515625" lon="-5.00253908336162567138671875">
        <ele>1257</ele>
        <time>2018-08-12T11:19:08.000Z</time>
      </trkpt>
      <trkpt lat="40.68379101343452930450439453125" lon="-5.0027856789529323577880859375">
        <ele>1256.800048828125</ele>
        <time>2018-08-12T11:19:12.000Z</time>
      </trkpt>
      <trkpt lat="40.68381247110664844512939453125" lon="-5.00299581326544284820556640625">
        <ele>1256.5999755859375</ele>
        <time>2018-08-12T11:19:15.000Z</time>
      </trkpt>
      <trkpt lat="40.68392177112400531768798828125" lon="-5.00347919762134552001953125">
        <ele>1255.5999755859375</ele>
        <time>2018-08-12T11:19:23.000Z</time>
      </trkpt>
      <trkpt lat="40.68406845442950725555419921875" lon="-5.0036869011819362640380859375">
        <ele>1255.4000244140625</ele>
        <time>2018-08-12T11:19:27.000Z</time>
      </trkpt>
      <trkpt lat="40.684175156056880950927734375" lon="-5.00393140129745006561279296875">
        <ele>1254.800048828125</ele>
        <time>2018-08-12T11:19:31.000Z</time>
      </trkpt>
      <trkpt lat="40.6842936761677265167236328125" lon="-5.00421152450144290924072265625">
        <ele>1254.199951171875</ele>
        <time>2018-08-12T11:19:36.000Z</time>
      </trkpt>
      <trkpt lat="40.684454441070556640625" lon="-5.004904456436634063720703125">
        <ele>1253.4000244140625</ele>
        <time>2018-08-12T11:19:46.000Z</time>
      </trkpt>
      <trkpt lat="40.6844844482839107513427734375" lon="-5.00519472174346446990966796875">
        <ele>1252.800048828125</ele>
        <time>2018-08-12T11:19:50.000Z</time>
      </trkpt>
      <trkpt lat="40.68463255651295185089111328125" lon="-5.005655474960803985595703125">
        <ele>1252.5999755859375</ele>
        <time>2018-08-12T11:19:59.000Z</time>
      </trkpt>
      <trkpt lat="40.68468511104583740234375" lon="-5.00576309859752655029296875">
        <ele>1252.5999755859375</ele>
        <time>2018-08-12T11:20:01.000Z</time>
      </trkpt>
      <trkpt lat="40.68477873690426349639892578125" lon="-5.00600977800786495208740234375">
        <ele>1252.5999755859375</ele>
        <time>2018-08-12T11:20:05.000Z</time>
      </trkpt>
      <trkpt lat="40.6849085725843906402587890625" lon="-5.00640322454273700714111328125">
        <ele>1252</ele>
        <time>2018-08-12T11:20:11.000Z</time>
      </trkpt>
      <trkpt lat="40.6850782223045825958251953125" lon="-5.00666507519781589508056640625">
        <ele>1250</ele>
        <time>2018-08-12T11:20:16.000Z</time>
      </trkpt>
      <trkpt lat="40.685343928635120391845703125" lon="-5.00689993612468242645263671875">
        <ele>1248.800048828125</ele>
        <time>2018-08-12T11:20:22.000Z</time>
      </trkpt>
      <trkpt lat="40.685655735433101654052734375" lon="-5.0072629563510417938232421875">
        <ele>1246.5999755859375</ele>
        <time>2018-08-12T11:20:29.000Z</time>
      </trkpt>
      <trkpt lat="40.685823373496532440185546875" lon="-5.0074027664959430694580078125">
        <ele>1245.800048828125</ele>
        <time>2018-08-12T11:20:32.000Z</time>
      </trkpt>
      <trkpt lat="40.68611011840403079986572265625" lon="-5.00783778727054595947265625">
        <ele>1243.5999755859375</ele>
        <time>2018-08-12T11:20:39.000Z</time>
      </trkpt>
      <trkpt lat="40.686214305460453033447265625" lon="-5.00809452496469020843505859375">
        <ele>1241.5999755859375</ele>
        <time>2018-08-12T11:20:43.000Z</time>
      </trkpt>
      <trkpt lat="40.686398707330226898193359375" lon="-5.0084875524044036865234375">
        <ele>1240.199951171875</ele>
        <time>2018-08-12T11:20:52.000Z</time>
      </trkpt>
      <trkpt lat="40.6864444725215435028076171875" lon="-5.00857179053127765655517578125">
        <ele>1239.800048828125</ele>
        <time>2018-08-12T11:20:57.000Z</time>
      </trkpt>
      <trkpt lat="40.68656944669783115386962890625" lon="-5.00875912606716156005859375">
        <ele>1239.800048828125</ele>
        <time>2018-08-12T11:21:03.000Z</time>
      </trkpt>
      <trkpt lat="40.6868367455899715423583984375" lon="-5.0088139437139034271240234375">
        <ele>1238.800048828125</ele>
        <time>2018-08-12T11:21:09.000Z</time>
      </trkpt>
      <trkpt lat="40.68739590235054492950439453125" lon="-5.00891410745680332183837890625">
        <ele>1236.199951171875</ele>
        <time>2018-08-12T11:21:18.000Z</time>
      </trkpt>
      <trkpt lat="40.6874606944620609283447265625" lon="-5.00891176052391529083251953125">
        <ele>1235.800048828125</ele>
        <time>2018-08-12T11:21:19.000Z</time>
      </trkpt>
      <trkpt lat="40.687668733298778533935546875" lon="-5.00884420238435268402099609375">
        <ele>1233.800048828125</ele>
        <time>2018-08-12T11:21:23.000Z</time>
      </trkpt>
      <trkpt lat="40.68771340884268283843994140625" lon="-5.008825846016407012939453125">
        <ele>1233.5999755859375</ele>
        <time>2018-08-12T11:21:24.000Z</time>
      </trkpt>
      <trkpt lat="40.68793125450611114501953125" lon="-5.00882911495864391326904296875">
        <ele>1231.800048828125</ele>
        <time>2018-08-12T11:21:29.000Z</time>
      </trkpt>
      <trkpt lat="40.68827985785901546478271484375" lon="-5.00872232951223850250244140625">
        <ele>1230.5999755859375</ele>
        <time>2018-08-12T11:21:37.000Z</time>
      </trkpt>
      <trkpt lat="40.6883434765040874481201171875" lon="-5.0086553581058979034423828125">
        <ele>1230.199951171875</ele>
        <time>2018-08-12T11:21:39.000Z</time>
      </trkpt>
      <trkpt lat="40.68847280927002429962158203125" lon="-5.00859995372593402862548828125">
        <ele>1229.199951171875</ele>
        <time>2018-08-12T11:21:42.000Z</time>
      </trkpt>
      <trkpt lat="40.688693337142467498779296875" lon="-5.0085329823195934295654296875">
        <ele>1227.800048828125</ele>
        <time>2018-08-12T11:21:49.000Z</time>
      </trkpt>
      <trkpt lat="40.68885183893144130706787109375" lon="-5.0085406936705112457275390625">
        <ele>1226.4000244140625</ele>
        <time>2018-08-12T11:21:56.000Z</time>
      </trkpt>
      <trkpt lat="40.6889265216886997222900390625" lon="-5.00857631675899028778076171875">
        <ele>1226.4000244140625</ele>
        <time>2018-08-12T11:21:58.000Z</time>
      </trkpt>
      <trkpt lat="40.68914704956114292144775390625" lon="-5.00874814577400684356689453125">
        <ele>1226.800048828125</ele>
        <time>2018-08-12T11:22:04.000Z</time>
      </trkpt>
      <trkpt lat="40.68918426521122455596923828125" lon="-5.00874311663210391998291015625">
        <ele>1226.800048828125</ele>
        <time>2018-08-12T11:22:05.000Z</time>
      </trkpt>
      <trkpt lat="40.68930110894143581390380859375" lon="-5.00870590098202228546142578125">
        <ele>1227.4000244140625</ele>
        <time>2018-08-12T11:22:13.000Z</time>
      </trkpt>
      <trkpt lat="40.689315609633922576904296875" lon="-5.00869466923177242279052734375">
        <ele>1228.800048828125</ele>
        <time>2018-08-12T11:22:19.000Z</time>
      </trkpt>
      <trkpt lat="40.68944536149501800537109375" lon="-5.00857447274029254913330078125">
        <ele>1229.5999755859375</ele>
        <time>2018-08-12T11:22:27.000Z</time>
      </trkpt>
      <trkpt lat="40.68940387107431888580322265625" lon="-5.00848512165248394012451171875">
        <ele>1229.5999755859375</ele>
        <time>2018-08-12T11:22:31.000Z</time>
      </trkpt>
      <trkpt lat="40.68939180113375186920166015625" lon="-5.008201897144317626953125">
        <ele>1230.800048828125</ele>
        <time>2018-08-12T11:22:40.000Z</time>
      </trkpt>
      <trkpt lat="40.6895327009260654449462890625" lon="-5.0080478377640247344970703125">
        <ele>1232.199951171875</ele>
        <time>2018-08-12T11:22:49.000Z</time>
      </trkpt>
      <trkpt lat="40.68957922048866748809814453125" lon="-5.00805513001978397369384765625">
        <ele>1232.5999755859375</ele>
        <time>2018-08-12T11:22:51.000Z</time>
      </trkpt>
      <trkpt lat="40.6897264905273914337158203125" lon="-5.0078698061406612396240234375">
        <ele>1233.5999755859375</ele>
        <time>2018-08-12T11:22:58.000Z</time>
      </trkpt>
      <trkpt lat="40.689824558794498443603515625" lon="-5.00774298794567584991455078125">
        <ele>1234</ele>
        <time>2018-08-12T11:23:02.000Z</time>
      </trkpt>
      <trkpt lat="40.6899343617260456085205078125" lon="-5.007369406521320343017578125">
        <ele>1234</ele>
        <time>2018-08-12T11:23:12.000Z</time>
      </trkpt>
      <trkpt lat="40.6900731660425662994384765625" lon="-5.0069692544639110565185546875">
        <ele>1235</ele>
        <time>2018-08-12T11:23:27.000Z</time>
      </trkpt>
      <trkpt lat="40.69024289958178997039794921875" lon="-5.0067131035029888153076171875">
        <ele>1237.4000244140625</ele>
        <time>2018-08-12T11:23:39.000Z</time>
      </trkpt>
      <trkpt lat="40.69040182046592235565185546875" lon="-5.00642702914774417877197265625">
        <ele>1238.4000244140625</ele>
        <time>2018-08-12T11:23:50.000Z</time>
      </trkpt>
      <trkpt lat="40.690609104931354522705078125" lon="-5.00629878602921962738037109375">
        <ele>1239.800048828125</ele>
        <time>2018-08-12T11:24:00.000Z</time>
      </trkpt>
      <trkpt lat="40.690823011100292205810546875" lon="-5.00633843243122100830078125">
        <ele>1240.800048828125</ele>
        <time>2018-08-12T11:24:10.000Z</time>
      </trkpt>
      <trkpt lat="40.6911540962755680084228515625" lon="-5.00630347989499568939208984375">
        <ele>1241.4000244140625</ele>
        <time>2018-08-12T11:24:22.000Z</time>
      </trkpt>
      <trkpt lat="40.69148744456470012664794921875" lon="-5.006265342235565185546875">
        <ele>1241.800048828125</ele>
        <time>2018-08-12T11:24:33.000Z</time>
      </trkpt>
      <trkpt lat="40.69185138680040836334228515625" lon="-5.00630624592304229736328125">
        <ele>1242.5999755859375</ele>
        <time>2018-08-12T11:24:45.000Z</time>
      </trkpt>
      <trkpt lat="40.6919939629733562469482421875" lon="-5.0062202475965023040771484375">
        <ele>1243.800048828125</ele>
        <time>2018-08-12T11:24:54.000Z</time>
      </trkpt>
      <trkpt lat="40.69218398071825504302978515625" lon="-5.00598664395511150360107421875">
        <ele>1245.800048828125</ele>
        <time>2018-08-12T11:25:07.000Z</time>
      </trkpt>
      <trkpt lat="40.69238816387951374053955078125" lon="-5.00575547106564044952392578125">
        <ele>1248</ele>
        <time>2018-08-12T11:25:19.000Z</time>
      </trkpt>
      <trkpt lat="40.692534931004047393798828125" lon="-5.0056107155978679656982421875">
        <ele>1250</ele>
        <time>2018-08-12T11:25:30.000Z</time>
      </trkpt>
      <trkpt lat="40.69267809391021728515625" lon="-5.0053756870329380035400390625">
        <ele>1252.800048828125</ele>
        <time>2018-08-12T11:25:43.000Z</time>
      </trkpt>
      <trkpt lat="40.692868866026401519775390625" lon="-5.0052694045007228851318359375">
        <ele>1255</ele>
        <time>2018-08-12T11:25:54.000Z</time>
      </trkpt>
      <trkpt lat="40.69321453571319580078125" lon="-5.00523042865097522735595703125">
        <ele>1256.5999755859375</ele>
        <time>2018-08-12T11:26:09.000Z</time>
      </trkpt>
      <trkpt lat="40.69357856176793575286865234375" lon="-5.00526688992977142333984375">
        <ele>1257.5999755859375</ele>
        <time>2018-08-12T11:26:21.000Z</time>
      </trkpt>
      <trkpt lat="40.6938265822827816009521484375" lon="-5.0051091425120830535888671875">
        <ele>1258.4000244140625</ele>
        <time>2018-08-12T11:26:30.000Z</time>
      </trkpt>
      <trkpt lat="40.69402514956891536712646484375" lon="-5.0047490559518337249755859375">
        <ele>1259.5999755859375</ele>
        <time>2018-08-12T11:26:43.000Z</time>
      </trkpt>
      <trkpt lat="40.69416026584804058074951171875" lon="-5.00459139235317707061767578125">
        <ele>1261</ele>
        <time>2018-08-12T11:26:51.000Z</time>
      </trkpt>
      <trkpt lat="40.69444994442164897918701171875" lon="-5.00448636710643768310546875">
        <ele>1262.4000244140625</ele>
        <time>2018-08-12T11:27:02.000Z</time>
      </trkpt>
      <trkpt lat="40.6947179138660430908203125" lon="-5.00414866022765636444091796875">
        <ele>1262.800048828125</ele>
        <time>2018-08-12T11:27:11.000Z</time>
      </trkpt>
      <trkpt lat="40.69491061381995677947998046875" lon="-5.00407121144235134124755859375">
        <ele>1262.800048828125</ele>
        <time>2018-08-12T11:27:15.000Z</time>
      </trkpt>
      <trkpt lat="40.69531160406768321990966796875" lon="-5.0039832852780818939208984375">
        <ele>1261.800048828125</ele>
        <time>2018-08-12T11:27:22.000Z</time>
      </trkpt>
      <trkpt lat="40.69575768895447254180908203125" lon="-5.00380835495889186859130859375">
        <ele>1259.800048828125</ele>
        <time>2018-08-12T11:27:30.000Z</time>
      </trkpt>
      <trkpt lat="40.69614342413842678070068359375" lon="-5.0034967996180057525634765625">
        <ele>1259</ele>
        <time>2018-08-12T11:27:38.000Z</time>
      </trkpt>
      <trkpt lat="40.696285665035247802734375" lon="-5.00336646102368831634521484375">
        <ele>1258.5999755859375</ele>
        <time>2018-08-12T11:27:41.000Z</time>
      </trkpt>
      <trkpt lat="40.69674189202487468719482421875" lon="-5.00311718322336673736572265625">
        <ele>1257.199951171875</ele>
        <time>2018-08-12T11:27:49.000Z</time>
      </trkpt>
      <trkpt lat="40.69691807962954044342041015625" lon="-5.00300017185509204864501953125">
        <ele>1257</ele>
        <time>2018-08-12T11:27:55.000Z</time>
      </trkpt>
      <trkpt lat="40.69695747457444667816162109375" lon="-5.002717114984989166259765625">
        <ele>1257.5999755859375</ele>
        <time>2018-08-12T11:28:04.000Z</time>
      </trkpt>
      <trkpt lat="40.69708052091300487518310546875" lon="-5.0022643245756626129150390625">
        <ele>1260.199951171875</ele>
        <time>2018-08-12T11:28:17.000Z</time>
      </trkpt>
      <trkpt lat="40.6973411142826080322265625" lon="-5.0019072555005550384521484375">
        <ele>1261.4000244140625</ele>
        <time>2018-08-12T11:28:27.000Z</time>
      </trkpt>
      <trkpt lat="40.6977556832134723663330078125" lon="-5.00143392942845821380615234375">
        <ele>1261</ele>
        <time>2018-08-12T11:28:39.000Z</time>
      </trkpt>
      <trkpt lat="40.69778946228325366973876953125" lon="-5.00138799659907817840576171875">
        <ele>1261</ele>
        <time>2018-08-12T11:28:40.000Z</time>
      </trkpt>
      <trkpt lat="40.69811761379241943359375" lon="-5.00119286589324474334716796875">
        <ele>1260.4000244140625</ele>
        <time>2018-08-12T11:28:48.000Z</time>
      </trkpt>
      <trkpt lat="40.69819581694900989532470703125" lon="-5.00088072381913661956787109375">
        <ele>1260.4000244140625</ele>
        <time>2018-08-12T11:28:54.000Z</time>
      </trkpt>
      <trkpt lat="40.69834233261644840240478515625" lon="-5.00046011991798877716064453125">
        <ele>1260.800048828125</ele>
        <time>2018-08-12T11:29:04.000Z</time>
      </trkpt>
      <trkpt lat="40.69832213222980499267578125" lon="-4.999987296760082244873046875">
        <ele>1261.5999755859375</ele>
        <time>2018-08-12T11:29:14.000Z</time>
      </trkpt>
      <trkpt lat="40.69835029542446136474609375" lon="-4.9997205846011638641357421875">
        <ele>1261.5999755859375</ele>
        <time>2018-08-12T11:29:19.000Z</time>
      </trkpt>
      <trkpt lat="40.698351301252841949462890625" lon="-4.9996059201657772064208984375">
        <ele>1261.5999755859375</ele>
        <time>2018-08-12T11:29:21.000Z</time>
      </trkpt>
      <trkpt lat="40.69833730347454547882080078125" lon="-4.99936292879283428192138671875">
        <ele>1261.5999755859375</ele>
        <time>2018-08-12T11:29:25.000Z</time>
      </trkpt>
      <trkpt lat="40.698358006775379180908203125" lon="-4.99918003566563129425048828125">
        <ele>1261.199951171875</ele>
        <time>2018-08-12T11:29:28.000Z</time>
      </trkpt>
      <trkpt lat="40.69832883775234222412109375" lon="-4.99880117364227771759033203125">
        <ele>1259.5999755859375</ele>
        <time>2018-08-12T11:29:36.000Z</time>
      </trkpt>
      <trkpt lat="40.69832481443881988525390625" lon="-4.9986678175628185272216796875">
        <ele>1259</ele>
        <time>2018-08-12T11:29:44.000Z</time>
      </trkpt>
      <trkpt lat="40.69835163652896881103515625" lon="-4.99856782145798206329345703125">
        <ele>1258.5999755859375</ele>
        <time>2018-08-12T11:30:10.000Z</time>
      </trkpt>
      <trkpt lat="40.69836647249758243560791015625" lon="-4.99856262467801570892333984375">
        <ele>1258.5999755859375</ele>
        <time>2018-08-12T11:30:17.000Z</time>
      </trkpt>
      <trkpt lat="40.698506198823451995849609375" lon="-4.99829113483428955078125">
        <ele>1258.5999755859375</ele>
        <time>2018-08-12T11:30:26.000Z</time>
      </trkpt>
      <trkpt lat="40.6986957974731922149658203125" lon="-4.99797907657921314239501953125">
        <ele>1257.4000244140625</ele>
        <time>2018-08-12T11:30:34.000Z</time>
      </trkpt>
      <trkpt lat="40.698733516037464141845703125" lon="-4.9977843649685382843017578125">
        <ele>1256.4000244140625</ele>
        <time>2018-08-12T11:30:38.000Z</time>
      </trkpt>
      <trkpt lat="40.6987561471760272979736328125" lon="-4.9975057505071163177490234375">
        <ele>1253.4000244140625</ele>
        <time>2018-08-12T11:30:44.000Z</time>
      </trkpt>
      <trkpt lat="40.69881071336567401885986328125" lon="-4.99702353961765766143798828125">
        <ele>1250.5999755859375</ele>
        <time>2018-08-12T11:30:55.000Z</time>
      </trkpt>
      <trkpt lat="40.69883845746517181396484375" lon="-4.996867217123508453369140625">
        <ele>1250.199951171875</ele>
        <time>2018-08-12T11:30:58.000Z</time>
      </trkpt>
      <trkpt lat="40.69891515187919139862060546875" lon="-4.99623279087245464324951171875">
        <ele>1248.800048828125</ele>
        <time>2018-08-12T11:31:09.000Z</time>
      </trkpt>
      <trkpt lat="40.6989583186805248260498046875" lon="-4.9960260093212127685546875">
        <ele>1248.4000244140625</ele>
        <time>2018-08-12T11:31:15.000Z</time>
      </trkpt>
      <trkpt lat="40.69907541386783123016357421875" lon="-4.9956007115542888641357421875">
        <ele>1247.800048828125</ele>
        <time>2018-08-12T11:31:24.000Z</time>
      </trkpt>
      <trkpt lat="40.69912008941173553466796875" lon="-4.99549149535596370697021484375">
        <ele>1247.5999755859375</ele>
        <time>2018-08-12T11:31:26.000Z</time>
      </trkpt>
      <trkpt lat="40.6992751546204090118408203125" lon="-4.9952496774494647979736328125">
        <ele>1247.5999755859375</ele>
        <time>2018-08-12T11:31:31.000Z</time>
      </trkpt>
      <trkpt lat="40.6993881426751613616943359375" lon="-4.99511732719838619232177734375">
        <ele>1246.800048828125</ele>
        <time>2018-08-12T11:31:34.000Z</time>
      </trkpt>
      <trkpt lat="40.6995400227606296539306640625" lon="-4.9944756925106048583984375">
        <ele>1244.800048828125</ele>
        <time>2018-08-12T11:31:45.000Z</time>
      </trkpt>
      <trkpt lat="40.69951177574694156646728515625" lon="-4.99402248300611972808837890625">
        <ele>1244</ele>
        <time>2018-08-12T11:31:53.000Z</time>
      </trkpt>
      <trkpt lat="40.6994920782744884490966796875" lon="-4.99397051520645618438720703125">
        <ele>1244</ele>
        <time>2018-08-12T11:31:54.000Z</time>
      </trkpt>
      <trkpt lat="40.69951479323208332061767578125" lon="-4.9936817586421966552734375">
        <ele>1243.800048828125</ele>
        <time>2018-08-12T11:31:59.000Z</time>
      </trkpt>
      <trkpt lat="40.69981687702238559722900390625" lon="-4.99290768988430500030517578125">
        <ele>1242.4000244140625</ele>
        <time>2018-08-12T11:32:10.000Z</time>
      </trkpt>
      <trkpt lat="40.70004905574023723602294921875" lon="-4.99204385094344615936279296875">
        <ele>1239.5999755859375</ele>
        <time>2018-08-12T11:32:22.000Z</time>
      </trkpt>
      <trkpt lat="40.70006783120334148406982421875" lon="-4.99192734248936176300048828125">
        <ele>1239.199951171875</ele>
        <time>2018-08-12T11:32:24.000Z</time>
      </trkpt>
      <trkpt lat="40.70004737935960292816162109375" lon="-4.99152459204196929931640625">
        <ele>1239</ele>
        <time>2018-08-12T11:32:31.000Z</time>
      </trkpt>
      <trkpt lat="40.70004469715058803558349609375" lon="-4.99136122874915599822998046875">
        <ele>1238.800048828125</ele>
        <time>2018-08-12T11:32:34.000Z</time>
      </trkpt>
      <trkpt lat="40.700012259185314178466796875" lon="-4.99109082855284214019775390625">
        <ele>1238.5999755859375</ele>
        <time>2018-08-12T11:32:39.000Z</time>
      </trkpt>
      <trkpt lat="40.69993640296161174774169921875" lon="-4.99059227295219898223876953125">
        <ele>1238.4000244140625</ele>
        <time>2018-08-12T11:32:49.000Z</time>
      </trkpt>
      <trkpt lat="40.69983012042939662933349609375" lon="-4.99014769680798053741455078125">
        <ele>1238.5999755859375</ele>
        <time>2018-08-12T11:33:00.000Z</time>
      </trkpt>
      <trkpt lat="40.699714533984661102294921875" lon="-4.9898242391645908355712890625">
        <ele>1238.5999755859375</ele>
        <time>2018-08-12T11:33:07.000Z</time>
      </trkpt>
      <trkpt lat="40.6995802558958530426025390625" lon="-4.989133737981319427490234375">
        <ele>1238.4000244140625</ele>
        <time>2018-08-12T11:33:19.000Z</time>
      </trkpt>
      <trkpt lat="40.6993914954364299774169921875" lon="-4.98829663731157779693603515625">
        <ele>1238.199951171875</ele>
        <time>2018-08-12T11:33:31.000Z</time>
      </trkpt>
      <trkpt lat="40.69933609105646610260009765625" lon="-4.98751980252563953399658203125">
        <ele>1238.5999755859375</ele>
        <time>2018-08-12T11:33:42.000Z</time>
      </trkpt>
      <trkpt lat="40.6992285512387752532958984375" lon="-4.98688663356006145477294921875">
        <ele>1238.5999755859375</ele>
        <time>2018-08-12T11:33:53.000Z</time>
      </trkpt>
      <trkpt lat="40.6992148049175739288330078125" lon="-4.9865945242345333099365234375">
        <ele>1238.800048828125</ele>
        <time>2018-08-12T11:34:03.000Z</time>
      </trkpt>
      <trkpt lat="40.6992215104401111602783203125" lon="-4.98660751618444919586181640625">
        <ele>1239</ele>
        <time>2018-08-12T11:34:42.000Z</time>
      </trkpt>
      <trkpt lat="40.699224360287189483642578125" lon="-4.98661321587860584259033203125">
        <ele>1238.800048828125</ele>
        <time>2018-08-12T11:35:20.000Z</time>
      </trkpt>
      <trkpt lat="40.6992231868207454681396484375" lon="-4.9866139702498912811279296875">
        <ele>1239</ele>
        <time>2018-08-12T11:35:50.000Z</time>
      </trkpt>
      <trkpt lat="40.69922209717333316802978515625" lon="-4.98660751618444919586181640625">
        <ele>1239</ele>
        <time>2018-08-12T11:36:16.000Z</time>
      </trkpt>
      <trkpt lat="40.699218995869159698486328125" lon="-4.98659603297710418701171875">
        <ele>1239</ele>
        <time>2018-08-12T11:36:17.000Z</time>
      </trkpt>
      <trkpt lat="40.6992044113576412200927734375" lon="-4.986490420997142791748046875">
        <ele>1239</ele>
        <time>2018-08-12T11:36:21.000Z</time>
      </trkpt>
      <trkpt lat="40.69909670390188694000244140625" lon="-4.98604794032871723175048828125">
        <ele>1238.5999755859375</ele>
        <time>2018-08-12T11:36:33.000Z</time>
      </trkpt>
      <trkpt lat="40.69898790679872035980224609375" lon="-4.9853405915200710296630859375">
        <ele>1238</ele>
        <time>2018-08-12T11:36:47.000Z</time>
      </trkpt>
      <trkpt lat="40.698873661458492279052734375" lon="-4.98464833013713359832763671875">
        <ele>1236.4000244140625</ele>
        <time>2018-08-12T11:37:02.000Z</time>
      </trkpt>
      <trkpt lat="40.69866545498371124267578125" lon="-4.98415413312613964080810546875">
        <ele>1235.800048828125</ele>
        <time>2018-08-12T11:37:12.000Z</time>
      </trkpt>
      <trkpt lat="40.69849186576902866363525390625" lon="-4.98354208655655384063720703125">
        <ele>1235.4000244140625</ele>
        <time>2018-08-12T11:37:24.000Z</time>
      </trkpt>
      <trkpt lat="40.6982991658151149749755859375" lon="-4.98268025927245616912841796875">
        <ele>1235.4000244140625</ele>
        <time>2018-08-12T11:37:39.000Z</time>
      </trkpt>
      <trkpt lat="40.6979607045650482177734375" lon="-4.98178993351757526397705078125">
        <ele>1234.800048828125</ele>
        <time>2018-08-12T11:37:54.000Z</time>
      </trkpt>
      <trkpt lat="40.69749861024320125579833984375" lon="-4.98119398020207881927490234375">
        <ele>1233.5999755859375</ele>
        <time>2018-08-12T11:38:07.000Z</time>
      </trkpt>
      <trkpt lat="40.69735653698444366455078125" lon="-4.98102466575801372528076171875">
        <ele>1233.4000244140625</ele>
        <time>2018-08-12T11:38:11.000Z</time>
      </trkpt>
      <trkpt lat="40.6971935927867889404296875" lon="-4.98073582537472248077392578125">
        <ele>1233.5999755859375</ele>
        <time>2018-08-12T11:38:17.000Z</time>
      </trkpt>
      <trkpt lat="40.6971360929310321807861328125" lon="-4.98066172935068607330322265625">
        <ele>1234.199951171875</ele>
        <time>2018-08-12T11:38:19.000Z</time>
      </trkpt>
      <trkpt lat="40.697039701044559478759765625" lon="-4.9805719591677188873291015625">
        <ele>1234.800048828125</ele>
        <time>2018-08-12T11:38:22.000Z</time>
      </trkpt>
      <trkpt lat="40.69704732857644557952880859375" lon="-4.98034858144819736480712890625">
        <ele>1235.199951171875</ele>
        <time>2018-08-12T11:38:27.000Z</time>
      </trkpt>
      <trkpt lat="40.6970666907727718353271484375" lon="-4.97998262755572795867919921875">
        <ele>1235.199951171875</ele>
        <time>2018-08-12T11:38:33.000Z</time>
      </trkpt>
      <trkpt lat="40.69701857864856719970703125" lon="-4.979863353073596954345703125">
        <ele>1235</ele>
        <time>2018-08-12T11:38:36.000Z</time>
      </trkpt>
      <trkpt lat="40.69707867689430713653564453125" lon="-4.97981163673102855682373046875">
        <ele>1233.4000244140625</ele>
        <time>2018-08-12T11:38:40.000Z</time>
      </trkpt>
      <trkpt lat="40.697108767926692962646484375" lon="-4.97982135973870754241943359375">
        <ele>1233.199951171875</ele>
        <time>2018-08-12T11:38:41.000Z</time>
      </trkpt>
      <trkpt lat="40.697227455675601959228515625" lon="-4.97987114824354648590087890625">
        <ele>1232.800048828125</ele>
        <time>2018-08-12T11:38:44.000Z</time>
      </trkpt>
      <trkpt lat="40.6977863609790802001953125" lon="-4.98002101667225360870361328125">
        <ele>1232.4000244140625</ele>
        <time>2018-08-12T11:38:56.000Z</time>
      </trkpt>
      <trkpt lat="40.6981030292809009552001953125" lon="-4.9801112897694110870361328125">
        <ele>1233.5999755859375</ele>
        <time>2018-08-12T11:39:06.000Z</time>
      </trkpt>
      <trkpt lat="40.69841978140175342559814453125" lon="-4.98016971163451671600341796875">
        <ele>1236.199951171875</ele>
        <time>2018-08-12T11:39:17.000Z</time>
      </trkpt>
      <trkpt lat="40.69868565537035465240478515625" lon="-4.980334080755710601806640625">
        <ele>1237.800048828125</ele>
        <time>2018-08-12T11:39:26.000Z</time>
      </trkpt>
      <trkpt lat="40.69903283379971981048583984375" lon="-4.9805416166782379150390625">
        <ele>1240</ele>
        <time>2018-08-12T11:39:38.000Z</time>
      </trkpt>
      <trkpt lat="40.69956189952790737152099609375" lon="-4.98063406907021999359130859375">
        <ele>1241</ele>
        <time>2018-08-12T11:39:53.000Z</time>
      </trkpt>
      <trkpt lat="40.70012080483138561248779296875" lon="-4.9806470610201358795166015625">
        <ele>1239.800048828125</ele>
        <time>2018-08-12T11:40:04.000Z</time>
      </trkpt>
      <trkpt lat="40.70090736262500286102294921875" lon="-4.98061344958841800689697265625">
        <ele>1239.5999755859375</ele>
        <time>2018-08-12T11:40:21.000Z</time>
      </trkpt>
      <trkpt lat="40.70140533149242401123046875" lon="-4.9805719591677188873291015625">
        <ele>1241.800048828125</ele>
        <time>2018-08-12T11:40:35.000Z</time>
      </trkpt>
      <trkpt lat="40.7018204033374786376953125" lon="-4.9805370904505252838134765625">
        <ele>1242.199951171875</ele>
        <time>2018-08-12T11:40:43.000Z</time>
      </trkpt>
      <trkpt lat="40.7021695934236049652099609375" lon="-4.98029979877173900604248046875">
        <ele>1240</ele>
        <time>2018-08-12T11:40:53.000Z</time>
      </trkpt>
      <trkpt lat="40.70261425338685512542724609375" lon="-4.97987198643386363983154296875">
        <ele>1238.4000244140625</ele>
        <time>2018-08-12T11:41:03.000Z</time>
      </trkpt>
      <trkpt lat="40.702833272516727447509765625" lon="-4.9796948768198490142822265625">
        <ele>1236.800048828125</ele>
        <time>2018-08-12T11:41:07.000Z</time>
      </trkpt>
      <trkpt lat="40.70336359553039073944091796875" lon="-4.97919221408665180206298828125">
        <ele>1233.4000244140625</ele>
        <time>2018-08-12T11:41:16.000Z</time>
      </trkpt>
      <trkpt lat="40.70361077785491943359375" lon="-4.978945367038249969482421875">
        <ele>1231.4000244140625</ele>
        <time>2018-08-12T11:41:22.000Z</time>
      </trkpt>
      <trkpt lat="40.70381940342485904693603515625" lon="-4.97855384834110736846923828125">
        <ele>1231.4000244140625</ele>
        <time>2018-08-12T11:41:32.000Z</time>
      </trkpt>
      <trkpt lat="40.70384211838245391845703125" lon="-4.9785116873681545257568359375">
        <ele>1231.4000244140625</ele>
        <time>2018-08-12T11:41:33.000Z</time>
      </trkpt>
      <trkpt lat="40.703867934644222259521484375" lon="-4.97847564518451690673828125">
        <ele>1231.4000244140625</ele>
        <time>2018-08-12T11:41:34.000Z</time>
      </trkpt>
      <trkpt lat="40.70389685221016407012939453125" lon="-4.97844924218952655792236328125">
        <ele>1231.4000244140625</ele>
        <time>2018-08-12T11:41:35.000Z</time>
      </trkpt>
      <trkpt lat="40.7039304636418819427490234375" lon="-4.9784325622022151947021484375">
        <ele>1231.5999755859375</ele>
        <time>2018-08-12T11:41:36.000Z</time>
      </trkpt>
      <trkpt lat="40.70396826602518558502197265625" lon="-4.97842661105096340179443359375">
        <ele>1231.5999755859375</ele>
        <time>2018-08-12T11:41:37.000Z</time>
      </trkpt>
      <trkpt lat="40.7040022127330303192138671875" lon="-4.9784292094409465789794921875">
        <ele>1231.5999755859375</ele>
        <time>2018-08-12T11:41:38.000Z</time>
      </trkpt>
      <trkpt lat="40.70403833873569965362548828125" lon="-4.97843138873577117919921875">
        <ele>1231.5999755859375</ele>
        <time>2018-08-12T11:41:39.000Z</time>
      </trkpt>
      <trkpt lat="40.704125426709651947021484375" lon="-4.97840180061757564544677734375">
        <ele>1231.5999755859375</ele>
        <time>2018-08-12T11:41:42.000Z</time>
      </trkpt>
      <trkpt lat="40.70415216498076915740966796875" lon="-4.97837799601256847381591796875">
        <ele>1231.5999755859375</ele>
        <time>2018-08-12T11:41:43.000Z</time>
      </trkpt>
      <trkpt lat="40.70417873561382293701171875" lon="-4.9783507548272609710693359375">
        <ele>1231.5999755859375</ele>
        <time>2018-08-12T11:41:44.000Z</time>
      </trkpt>
      <trkpt lat="40.704208910465240478515625" lon="-4.978322423994541168212890625">
        <ele>1231.5999755859375</ele>
        <time>2018-08-12T11:41:45.000Z</time>
      </trkpt>
      <trkpt lat="40.704237408936023712158203125" lon="-4.978290908038616180419921875">
        <ele>1231.5999755859375</ele>
        <time>2018-08-12T11:41:46.000Z</time>
      </trkpt>
      <trkpt lat="40.704433880746364593505859375" lon="-4.978052861988544464111328125">
        <ele>1231.199951171875</ele>
        <time>2018-08-12T11:41:55.000Z</time>
      </trkpt>
      <trkpt lat="40.70457427762448787689208984375" lon="-4.977978765964508056640625">
        <ele>1231.199951171875</ele>
        <time>2018-08-12T11:42:01.000Z</time>
      </trkpt>
      <trkpt lat="40.70465256460011005401611328125" lon="-4.97791246511042118072509765625">
        <ele>1231.199951171875</ele>
        <time>2018-08-12T11:42:04.000Z</time>
      </trkpt>
      <trkpt lat="40.7046509720385074615478515625" lon="-4.977875836193561553955078125">
        <ele>1231.199951171875</ele>
        <time>2018-08-12T11:42:05.000Z</time>
      </trkpt>
      <trkpt lat="40.704639740288257598876953125" lon="-4.97784088365733623504638671875">
        <ele>1231.199951171875</ele>
        <time>2018-08-12T11:42:06.000Z</time>
      </trkpt>
      <trkpt lat="40.7045326195657253265380859375" lon="-4.97759965248405933380126953125">
        <ele>1231.199951171875</ele>
        <time>2018-08-12T11:42:15.000Z</time>
      </trkpt>
      <trkpt lat="40.70443279109895229339599609375" lon="-4.97755321674048900604248046875">
        <ele>1231.5999755859375</ele>
        <time>2018-08-12T11:42:21.000Z</time>
      </trkpt>
      <trkpt lat="40.70441669784486293792724609375" lon="-4.977543242275714874267578125">
        <ele>1231.5999755859375</ele>
        <time>2018-08-12T11:42:22.000Z</time>
      </trkpt>
      <trkpt lat="40.70439842529594898223876953125" lon="-4.97753460891544818878173828125">
        <ele>1231.5999755859375</ele>
        <time>2018-08-12T11:42:23.000Z</time>
      </trkpt>
      <trkpt lat="40.704266913235187530517578125" lon="-4.97749169357120990753173828125">
        <ele>1232.199951171875</ele>
        <time>2018-08-12T11:42:33.000Z</time>
      </trkpt>
      <trkpt lat="40.7042436115443706512451171875" lon="-4.97751901857554912567138671875">
        <ele>1232.4000244140625</ele>
        <time>2018-08-12T11:42:35.000Z</time>
      </trkpt>
      <trkpt lat="40.70421268232166767120361328125" lon="-4.97754952870309352874755859375">
        <ele>1232.5999755859375</ele>
        <time>2018-08-12T11:42:47.000Z</time>
      </trkpt>
    </trkseg>
  </trk>
</gpx>
